[[{"header":{"parameterUnit":"m.s-1","parameterCategory":1,"la1":30.6,"la2":29.2853,"lo1":-89.7004,"lo2":-87.6739,"dy":0.0162,"dx":0.0183,"nx":112,"ny":82,"refTime":"2026-03-02T12:00:00:Z","depth":0,"parameterNumber":2,"parameterNumberName":"U-component_of_WINDS"},"data":[0.0,0.0,0.0,0.0,0.0,0.0,0.0,0.0,0.0,0.0,0.0,0.0,0.0,0.0,0.0,0.0,0.0,0.0,0.0,0.0,0.0,0.0,0.0,0.0,0.0,0.0,0.0,0.0,0.0,0.0,0.0,0.0,0.0,0.0,0.0,0.0,0.0,0.0,0.0,0.0,0.0,0.0,0.0,0.0,0.0,0.0,0.0,0.0,0.0,0.0,0.0,0.0,0.0,0.0,0.0,0.0,0.0,0.0,0.0,0.0,0.0,0.0,0.0,0.0,0.0,0.0,0.0,0.0,0.0,0.0,0.0,0.0,0.0,0.0,0.0,0.0,0.0,0.0,0.0,0.0,0.0,0.0,0.0,0.0,0.0,0.0,0.0,0.0,0.0,0.0,-2.6041,-2.8485,-3.2174,-3.3927,-3.2619,-3.241,-3.0409,-2.5755,0.0,0.0,0.0,0.0,0.0,0.0,0.0,0.0,0.0,0.0,0.0,0.0,0.0,0.0,0.0,0.0,0.0,0.0,0.0,0.0,0.0,0.0,0.0,0.0,0.0,0.0,0.0,0.0,0.0,0.0,0.0,0.0,0.0,0.0,0.0,0.0,0.0,0.0,0.0,0.0,0.0,0.0,0.0,0.0,0.0,0.0,0.0,0.0,0.0,0.0,0.0,0.0,0.0,0.0,0.0,0.0,0.0,0.0,0.0,0.0,0.0,0.0,0.0,0.0,0.0,0.0,0.0,0.0,0.0,0.0,0.0,0.0,0.0,0.0,0.0,0.0,0.0,0.0,0.0,0.0,0.0,0.0,0.0,0.0,0.0,0.0,0.0,0.0,0.0,0.0,0.0,0.0,0.0,0.0,0.0,0.0,0.0,0.0,0.0,0.0,0.0,0.0,0.0,0.0,-2.5148,-2.9783,-3.212,-3.2895,-3.1719,-3.1185,-2.9189,-2.5189,0.0,0.0,0.0,0.0,0.0,0.0,0.0,0.0,0.0,0.0,0.0,0.0,0.0,0.0,0.0,0.0,0.0,0.0,0.0,0.0,0.0,0.0,0.0,0.0,0.0,0.0,0.0,0.0,0.0,0.0,0.0,0.0,0.0,0.0,0.0,0.0,0.0,0.0,0.0,0.0,0.0,0.0,0.0,0.0,0.0,0.0,0.0,0.0,0.0,0.0,0.0,0.0,0.0,0.0,0.0,0.0,0.0,0.0,0.0,0.0,0.0,0.0,0.0,0.0,0.0,0.0,0.0,0.0,0.0,0.0,0.0,0.0,0.0,0.0,0.0,0.0,0.0,0.0,0.0,0.0,0.0,0.0,0.0,0.0,0.0,0.0,0.0,0.0,0.0,0.0,0.0,0.0,0.0,0.0,0.0,0.0,0.0,0.0,0.0,0.0,0.0,0.0,0.0,-2.5006,-2.6907,-3.1022,-3.2441,-3.2616,-3.1486,-3.0922,-2.8925,-2.5039,-2.3659,0.0,0.0,0.0,0.0,0.0,0.0,0.0,0.0,0.0,0.0,0.0,0.0,0.0,0.0,0.0,0.0,0.0,0.0,0.0,0.0,0.0,0.0,0.0,0.0,0.0,0.0,0.0,0.0,0.0,0.0,0.0,0.0,0.0,0.0,0.0,0.0,0.0,0.0,0.0,0.0,0.0,0.0,0.0,0.0,0.0,0.0,0.0,0.0,0.0,0.0,0.0,0.0,0.0,0.0,0.0,0.0,0.0,0.0,0.0,0.0,0.0,0.0,0.0,0.0,0.0,0.0,0.0,0.0,0.0,0.0,0.0,0.0,0.0,0.0,0.0,0.0,0.0,0.0,0.0,0.0,0.0,0.0,0.0,0.0,0.0,0.0,0.0,0.0,0.0,0.0,0.0,0.0,0.0,0.0,0.0,0.0,0.0,0.0,0.0,0.0,0.0,0.0,-2.7394,-2.8988,-3.1901,-3.2729,-3.2616,-3.1486,-3.0631,-2.8637,-2.5013,-2.297,0.0,0.0,0.0,0.0,0.0,0.0,0.0,0.0,0.0,0.0,0.0,0.0,0.0,0.0,0.0,0.0,0.0,0.0,0.0,0.0,0.0,0.0,0.0,0.0,0.0,0.0,0.0,0.0,0.0,0.0,0.0,0.0,0.0,0.0,0.0,0.0,0.0,0.0,0.0,0.0,0.0,0.0,0.0,0.0,0.0,0.0,0.0,0.0,0.0,0.0,0.0,0.0,0.0,0.0,0.0,0.0,0.0,0.0,0.0,0.0,0.0,0.0,0.0,0.0,0.0,0.0,0.0,0.0,0.0,0.0,0.0,0.0,0.0,0.0,0.0,0.0,0.0,0.0,0.0,0.0,0.0,0.0,0.0,0.0,0.0,0.0,0.0,0.0,0.0,0.0,0.0,0.0,0.0,0.0,0.0,0.0,0.0,0.0,0.0,0.0,0.0,0.0,-2.7695,-3.0281,-3.2026,-3.2729,-3.2616,-3.1486,-2.9799,-2.7664,-2.4963,-2.2168,0.0,0.0,0.0,0.0,0.0,0.0,0.0,0.0,0.0,0.0,0.0,0.0,0.0,0.0,0.0,0.0,0.0,0.0,0.0,0.0,0.0,0.0,0.0,0.0,0.0,0.0,0.0,0.0,0.0,0.0,0.0,0.0,0.0,0.0,0.0,0.0,0.0,0.0,0.0,0.0,0.0,0.0,0.0,0.0,0.0,0.0,0.0,0.0,0.0,0.0,0.0,0.0,0.0,0.0,0.0,0.0,0.0,0.0,0.0,0.0,0.0,0.0,0.0,0.0,0.0,0.0,0.0,0.0,0.0,0.0,0.0,0.0,0.0,0.0,0.0,0.0,0.0,0.0,0.0,0.0,0.0,0.0,0.0,0.0,0.0,0.0,0.0,0.0,0.0,0.0,0.0,0.0,0.0,0.0,0.0,0.0,0.0,0.0,0.0,0.0,0.0,0.0,-2.7329,-2.9507,0.0,-3.2525,-3.2203,-3.11,-3.0106,-2.8101,-2.4838,0.0,0.0,0.0,0.0,0.0,0.0,0.0,0.0,0.0,0.0,0.0,0.0,0.0,0.0,0.0,0.0,0.0,0.0,0.0,0.0,0.0,0.0,0.0,0.0,0.0,0.0,0.0,0.0,0.0,0.0,0.0,0.0,0.0,0.0,0.0,0.0,0.0,0.0,0.0,0.0,0.0,0.0,0.0,0.0,0.0,0.0,0.0,0.0,0.0,0.0,0.0,0.0,0.0,0.0,0.0,0.0,0.0,0.0,0.0,0.0,0.0,0.0,0.0,0.0,0.0,0.0,0.0,0.0,0.0,0.0,0.0,0.0,0.0,0.0,0.0,0.0,0.0,0.0,0.0,0.0,0.0,0.0,0.0,0.0,0.0,0.0,0.0,0.0,0.0,0.0,0.0,0.0,0.0,0.0,0.0,0.0,0.0,0.0,0.0,0.0,0.0,0.0,-2.4995,-2.7111,-2.9211,0.0,-3.2289,-3.1958,-3.0876,-2.9766,-2.7717,-2.4369,0.0,0.0,0.0,0.0,0.0,0.0,0.0,0.0,0.0,0.0,0.0,0.0,0.0,0.0,0.0,0.0,0.0,0.0,0.0,0.0,0.0,0.0,0.0,0.0,0.0,0.0,0.0,0.0,0.0,0.0,0.0,0.0,0.0,0.0,0.0,0.0,0.0,0.0,0.0,0.0,0.0,0.0,0.0,0.0,0.0,0.0,0.0,0.0,0.0,0.0,0.0,0.0,0.0,0.0,0.0,0.0,0.0,0.0,0.0,0.0,0.0,0.0,0.0,0.0,0.0,0.0,0.0,0.0,0.0,0.0,0.0,0.0,0.0,0.0,0.0,0.0,0.0,0.0,0.0,0.0,0.0,0.0,0.0,0.0,0.0,0.0,0.0,0.0,0.0,0.0,0.0,0.0,0.0,0.0,0.0,0.0,0.0,0.0,0.0,0.0,0.0,0.0,-2.3939,-2.7103,-2.973,-3.1362,-3.2025,-3.1902,-3.0834,-2.8604,-2.6211,0.0,0.0,0.0,0.0,0.0,0.0,0.0,0.0,0.0,0.0,0.0,0.0,0.0,0.0,0.0,0.0,0.0,0.0,0.0,0.0,0.0,0.0,0.0,0.0,0.0,0.0,0.0,0.0,0.0,0.0,0.0,0.0,0.0,0.0,0.0,0.0,0.0,0.0,0.0,0.0,0.0,0.0,0.0,0.0,0.0,0.0,0.0,0.0,0.0,0.0,0.0,0.0,0.0,0.0,0.0,0.0,0.0,0.0,0.0,0.0,0.0,0.0,0.0,0.0,0.0,0.0,0.0,0.0,0.0,0.0,0.0,0.0,0.0,0.0,0.0,0.0,0.0,0.0,0.0,0.0,0.0,0.0,0.0,0.0,0.0,0.0,0.0,0.0,0.0,0.0,0.0,0.0,0.0,0.0,0.0,0.0,0.0,0.0,0.0,0.0,0.0,0.0,0.0,-2.3263,-2.5612,-2.7527,-2.8987,-2.9545,-2.9387,-2.84,-2.7047,-2.5123,-2.2472,0.0,0.0,0.0,0.0,0.0,0.0,0.0,0.0,0.0,0.0,0.0,0.0,0.0,0.0,0.0,0.0,0.0,0.0,0.0,0.0,0.0,0.0,0.0,0.0,0.0,0.0,0.0,0.0,0.0,0.0,0.0,0.0,0.0,0.0,0.0,0.0,0.0,0.0,0.0,0.0,0.0,0.0,0.0,0.0,0.0,0.0,0.0,0.0,0.0,0.0,0.0,0.0,0.0,0.0,0.0,0.0,0.0,0.0,0.0,0.0,0.0,0.0,0.0,0.0,0.0,0.0,0.0,0.0,0.0,0.0,0.0,0.0,0.0,0.0,0.0,0.0,0.0,0.0,0.0,0.0,0.0,0.0,0.0,0.0,0.0,0.0,0.0,0.0,0.0,0.0,0.0,0.0,0.0,0.0,0.0,0.0,0.0,0.0,0.0,0.0,0.0,0.0,-2.197,-2.4443,-2.6427,-2.7645,-2.8333,-2.8344,-2.7392,-2.6376,-2.4546,-2.1543,0.0,0.0,0.0,0.0,0.0,0.0,0.0,0.0,0.0,0.0,0.0,0.0,0.0,0.0,0.0,0.0,0.0,0.0,0.0,0.0,0.0,0.0,0.0,0.0,0.0,0.0,0.0,0.0,0.0,0.0,0.0,0.0,0.0,0.0,0.0,0.0,0.0,0.0,0.0,0.0,0.0,0.0,0.0,0.0,0.0,0.0,0.0,0.0,0.0,0.0,0.0,0.0,0.0,0.0,0.0,0.0,0.0,0.0,0.0,0.0,0.0,0.0,0.0,0.0,0.0,0.0,0.0,0.0,0.0,0.0,0.0,0.0,0.0,0.0,0.0,0.0,0.0,0.0,0.0,0.0,0.0,0.0,0.0,0.0,0.0,0.0,0.0,0.0,0.0,0.0,0.0,0.0,0.0,0.0,0.0,0.0,0.0,0.0,0.0,0.0,0.0,0.0,-2.0421,-2.3535,-2.5946,-2.6942,-2.7841,-2.8015,-2.7116,-2.6119,-2.4133,-2.084,0.0,0.0,0.0,0.0,0.0,0.0,0.0,0.0,0.0,0.0,0.0,0.0,0.0,0.0,0.0,0.0,0.0,0.0,0.0,0.0,0.0,0.0,0.0,0.0,0.0,0.0,0.0,0.0,0.0,0.0,0.0,0.0,0.0,0.0,0.0,0.0,0.0,0.0,0.0,0.0,0.0,0.0,0.0,0.0,0.0,0.0,0.0,0.0,0.0,0.0,0.0,0.0,0.0,0.0,0.0,0.0,0.0,0.0,0.0,0.0,-2.0521,0.0,0.0,0.0,0.0,0.0,0.0,0.0,0.0,0.0,0.0,0.0,0.0,0.0,0.0,0.0,0.0,0.0,0.0,0.0,0.0,0.0,0.0,0.0,0.0,0.0,0.0,0.0,0.0,0.0,0.0,0.0,0.0,0.0,0.0,0.0,0.0,0.0,0.0,0.0,0.0,0.0,-1.9958,-2.2311,-2.4085,-2.4947,-2.5518,-2.5628,-2.5087,-2.4191,-2.2675,-2.0288,-1.8377,0.0,0.0,0.0,0.0,0.0,0.0,0.0,0.0,0.0,0.0,0.0,0.0,0.0,0.0,0.0,0.0,0.0,0.0,0.0,0.0,0.0,0.0,0.0,0.0,0.0,0.0,0.0,0.0,0.0,0.0,0.0,0.0,0.0,0.0,0.0,0.0,0.0,0.0,0.0,0.0,0.0,0.0,0.0,0.0,0.0,0.0,0.0,0.0,0.0,0.0,0.0,0.0,0.0,0.0,0.0,0.0,0.0,0.0,0.0,0.0,-2.0947,0.0,0.0,0.0,0.0,0.0,0.0,0.0,0.0,0.0,0.0,0.0,0.0,0.0,0.0,0.0,0.0,0.0,0.0,0.0,0.0,0.0,0.0,0.0,0.0,0.0,0.0,0.0,0.0,0.0,0.0,0.0,0.0,0.0,0.0,0.0,0.0,0.0,0.0,0.0,0.0,-1.9464,-2.1569,-2.3174,-2.4023,-2.4502,-2.458,-2.415,-2.3525,-2.2343,-2.0397,-1.8636,0.0,0.0,0.0,0.0,0.0,0.0,0.0,0.0,0.0,0.0,0.0,0.0,0.0,0.0,0.0,0.0,0.0,0.0,0.0,0.0,0.0,0.0,0.0,0.0,0.0,0.0,0.0,0.0,0.0,0.0,0.0,0.0,0.0,0.0,0.0,0.0,0.0,0.0,0.0,0.0,0.0,0.0,0.0,0.0,0.0,0.0,0.0,0.0,0.0,0.0,0.0,0.0,0.0,-2.5117,-2.5391,-2.5342,-2.6074,-2.624,-2.5938,-2.4473,-2.3711,-2.3379,0.0,0.0,0.0,0.0,0.0,0.0,0.0,0.0,0.0,0.0,0.0,0.0,0.0,0.0,0.0,0.0,0.0,0.0,0.0,0.0,0.0,0.0,0.0,0.0,0.0,-2.0703,-2.0699,0.0,0.0,0.0,0.0,0.0,0.0,0.0,0.0,0.0,0.0,0.0,0.0,-1.9301,-2.1338,-2.293,-2.3711,-2.4102,-2.417,-2.3818,-2.3398,-2.2523,-2.0938,-1.9316,-1.7705,0.0,0.0,0.0,0.0,0.0,0.0,0.0,0.0,0.0,0.0,0.0,0.0,0.0,0.0,0.0,0.0,0.0,0.0,0.0,0.0,0.0,0.0,0.0,0.0,0.0,0.0,0.0,0.0,0.0,0.0,0.0,0.0,-2.1878,-2.2501,0.0,0.0,0.0,0.0,0.0,0.0,0.0,0.0,0.0,0.0,0.0,0.0,0.0,-2.4261,-2.4773,-2.6682,-2.7506,-2.7229,-2.8701,-2.9248,-2.8896,-2.9014,-2.9228,-2.9512,-2.9287,0.0,-2.4736,-2.3828,0.0,0.0,0.0,0.0,0.0,0.0,0.0,0.0,0.0,0.0,0.0,0.0,0.0,0.0,0.0,0.0,0.0,0.0,0.0,0.0,0.0,0.0,-2.2438,-2.2227,-2.25,-2.2767,0.0,-1.9807,-1.713,-1.6127,0.0,0.0,0.0,0.0,0.0,0.0,0.0,0.0,-2.0155,-2.2004,-2.3306,-2.374,-2.3838,-2.3857,-2.3799,-2.3389,-2.2734,-2.1768,-2.082,-1.9619,-1.8237,-1.6611,0.0,0.0,0.0,0.0,0.0,0.0,0.0,0.0,0.0,0.0,0.0,0.0,0.0,0.0,0.0,0.0,0.0,0.0,0.0,0.0,0.0,0.0,0.0,0.0,0.0,0.0,0.0,0.0,0.0,-2.0331,-2.1855,-2.2146,-2.2074,-2.1752,0.0,0.0,0.0,0.0,0.0,0.0,0.0,0.0,0.0,-2.5379,-2.6202,-2.7031,-2.7939,-2.8887,-2.9521,-2.9834,-3.0586,-3.0976,-3.1035,-3.1035,-3.1133,-3.1299,-3.1299,-3.0312,-2.8555,-2.6719,-2.5322,-2.4153,0.0,0.0,0.0,0.0,-2.2344,-2.2409,-2.3383,-2.3588,0.0,0.0,0.0,0.0,0.0,0.0,0.0,0.0,0.0,0.0,0.0,0.0,0.0,-2.456,-2.4648,-2.4609,-2.4553,-2.2695,-2.0546,0.0,-1.8096,-1.7012,-1.4932,0.0,0.0,0.0,0.0,-1.8691,-2.039,-2.1875,-2.2959,-2.3379,-2.3428,-2.3428,-2.3428,-2.3208,-2.2838,-2.2275,-2.1426,-2.0576,-1.9756,-1.8066,-1.6572,0.0,0.0,0.0,0.0,0.0,0.0,0.0,0.0,0.0,0.0,0.0,0.0,0.0,0.0,0.0,0.0,0.0,0.0,0.0,0.0,0.0,0.0,0.0,0.0,0.0,0.0,0.0,0.0,-2.0668,-2.2084,-2.2219,-2.2559,-2.249,0.0,0.0,0.0,0.0,0.0,0.0,-2.4248,-2.5518,-2.6768,-2.7969,-2.873,-2.9629,-3.0693,-3.081,-3.1191,-3.1846,-3.1953,-3.2178,-3.249,-3.249,-3.249,-3.249,-3.249,-3.2246,-3.166,-2.9287,-2.7617,-2.6386,-2.5244,-2.4326,-2.374,-2.4385,-2.4473,-2.4436,-2.5781,-2.623,-2.6094,-2.5225,0.0,-2.3906,-2.1855,0.0,0.0,0.0,0.0,-2.1973,-2.3809,-2.4609,-2.5195,-2.6289,-2.6299,-2.5986,-2.5879,-2.5049,-2.3682,0.0,-2.0791,-1.9639,-1.7158,0.0,0.0,0.0,0.0,-1.9727,-2.0908,-2.2002,-2.275,-2.3062,-2.3091,-2.3091,-2.3091,-2.3091,-2.2964,-2.2652,-2.1834,-2.125,-2.0957,-1.9355,-1.8047,-1.7048,0.0,0.0,0.0,0.0,0.0,0.0,0.0,0.0,0.0,0.0,0.0,0.0,0.0,0.0,0.0,0.0,0.0,0.0,0.0,0.0,0.0,0.0,0.0,0.0,0.0,0.0,0.0,0.0,0.0,-2.4206,-2.4881,0.0,0.0,0.0,0.0,-2.4131,-2.5039,-2.6094,-2.7425,-2.8706,-2.9756,-3.0664,-3.1123,-3.1582,-3.206,-3.2461,-3.2685,-3.2734,-3.3135,-3.334,-3.3359,-3.3359,-3.3359,-3.3359,-3.3359,-3.3115,-3.2598,-3.0801,-2.9551,-2.8672,-2.7803,-2.7187,-2.6797,-2.6836,-2.71,-2.7503,-2.7591,-2.762,-2.7679,-2.7959,-2.6963,-2.5537,-2.4971,-2.399,0.0,0.0,-2.3916,-2.4443,-2.5343,-2.5967,-2.6406,-2.6875,-2.6973,-2.6846,-2.6445,-2.5977,-2.5079,0.0,-2.2396,-2.1475,-2.0517,0.0,-1.9853,-2.0282,-2.0762,-2.1385,-2.2295,-2.2779,-2.3071,-2.3091,-2.3091,-2.3091,-2.3091,-2.3091,-2.3081,-2.3062,-2.2314,-2.1846,-2.1826,-2.0527,-1.9228,-1.7969,-1.6652,0.0,0.0,0.0,0.0,0.0,0.0,0.0,0.0,0.0,0.0,0.0,0.0,0.0,0.0,0.0,0.0,0.0,0.0,0.0,0.0,0.0,0.0,0.0,0.0,0.0,0.0,0.0,0.0,-2.5986,-2.731,0.0,-2.6006,-2.6094,-2.6309,-2.6494,-2.7559,-2.8652,-2.9687,-3.0693,-3.1631,-3.249,-3.2939,-3.3369,-3.3789,-3.3945,-3.4014,-3.4023,-3.417,-3.4101,-3.3838,-3.3838,-3.3691,-3.3418,-3.3418,-3.334,-3.3135,-3.2236,-3.1211,-3.0127,-2.9531,-2.8857,-2.8271,-2.8555,-2.8584,-2.8516,-2.8799,-2.8941,-2.8828,-2.8428,-2.751,-2.6475,-2.6045,-2.54,-2.4912,-2.5342,-2.5576,-2.5889,-2.6748,-2.709,-2.7314,-2.7734,-2.7627,-2.7393,-2.7297,-2.665,-2.5977,-2.5361,-2.4082,-2.2754,-2.1611,-2.1289,-2.1143,-2.1016,-2.1377,-2.206,-2.3184,-2.3467,-2.3555,-2.3555,-2.3555,-2.3447,-2.312,-2.3091,-2.2984,-2.2711,-2.2197,-2.1758,-2.1475,-2.0469,-1.957,-1.8848,-1.7602,-1.5938,0.0,0.0,0.0,0.0,0.0,0.0,0.0,0.0,0.0,0.0,0.0,0.0,0.0,0.0,0.0,0.0,0.0,0.0,0.0,0.0,0.0,0.0,0.0,0.0,0.0,0.0,-2.6631,-2.7353,-2.8965,-2.9453,-2.8018,-2.8516,-2.8945,-2.8965,-3.0019,-3.0976,-3.1709,-3.2559,-3.3281,-3.3838,-3.4131,-3.4424,-3.4697,-3.4697,-3.4697,-3.4697,-3.4697,-3.4551,-3.4277,-3.4131,-3.3916,-3.3633,-3.3486,-3.3418,-3.3398,-3.3115,-3.2422,-3.1475,-3.0879,-3.0293,-2.9814,-2.9961,-2.9834,-2.9629,-2.9912,-2.9912,-2.9687,-2.9121,-2.8457,-2.7822,-2.7549,-2.7256,-2.709,-2.7383,-2.7363,-2.7373,-2.7939,-2.7988,-2.7949,-2.8223,-2.8086,-2.7894,-2.7748,-2.7109,-2.6562,-2.6416,-2.5215,-2.3955,-2.3149,-2.2842,-2.2588,-2.2116,-2.2344,-2.2783,-2.3477,-2.3574,-2.3623,-2.3769,-2.3789,-2.3672,-2.3379,-2.3179,-2.2916,-2.2539,-2.1836,-2.1309,-2.1025,-2.0166,-1.9502,-1.9072,-1.7666,-1.6261,-1.4775,0.0,0.0,0.0,0.0,0.0,0.0,0.0,0.0,0.0,0.0,0.0,0.0,0.0,0.0,0.0,0.0,0.0,0.0,0.0,0.0,0.0,0.0,0.0,-2.3828,-2.6113,-2.792,-2.8379,-2.9941,-3.0654,-2.9795,-3.0088,-3.0684,-3.1533,-3.2383,-3.3027,-3.3437,-3.4248,-3.4707,-3.4717,-3.4717,-3.4726,-3.4736,-3.4736,-3.4736,-3.4736,-3.4736,-3.4726,-3.4687,-3.4277,-3.4072,-3.4033,-3.3603,-3.3418,-3.3418,-3.3418,-3.3184,-3.2734,-3.1885,-3.1543,-3.1484,-3.1074,-3.0918,-3.0908,-3.0898,-3.0596,-3.0215,-3.0205,-2.9922,-2.9646,-2.957,-2.9626,-2.9626,-2.9626,-2.9268,-2.8935,-2.8935,-2.8633,-2.831,-2.831,-2.8301,-2.8174,-2.7826,-2.7344,-2.6914,-2.6494,-2.5703,-2.5145,-2.5116,-2.4717,-2.4297,-2.3896,-2.3818,0.0,-2.3227,-2.3169,-2.3315,-2.3779,-2.3828,-2.3818,-2.3789,-2.3389,-2.2906,-2.25,-2.1279,-2.0595,-2.0586,-1.9774,-1.9082,-1.8607,-1.6963,-1.5713,-1.4852,0.0,0.0,0.0,0.0,0.0,0.0,0.0,0.0,0.0,0.0,0.0,0.0,0.0,0.0,0.0,0.0,0.0,0.0,0.0,0.0,0.0,-2.4082,-2.5644,-2.6074,-2.8076,-3.001,-3.1396,-3.2529,-3.3105,-3.2861,-3.3213,-3.3437,-3.3379,-3.3867,-3.4228,-3.4336,-3.457,-3.4853,-3.5195,-3.5205,-3.5351,-3.5654,-3.5654,-3.5654,-3.5654,-3.5654,-3.5322,-3.4697,-3.458,-3.4189,-3.3594,-3.3476,-3.3418,-3.3418,-3.3418,-3.335,-3.3193,-3.2656,-3.2256,-3.1973,-3.1855,-3.1621,-3.1299,-3.0996,-3.081,-3.0644,-3.0303,-3.0117,-2.9971,-2.9658,-2.9626,-2.9626,-2.9626,-2.9482,-2.9394,-2.9394,-2.9072,-2.875,-2.875,-2.8516,-2.8262,-2.8144,-2.7783,-2.7363,-2.6924,-2.6396,-2.582,-2.5223,-2.4971,-2.4853,-2.4783,-2.4443,0.0,-2.4914,-2.4736,-2.458,-2.4754,-2.4717,-2.4509,-2.3838,-2.3389,-2.2652,-2.1609,-2.0947,-2.0458,-2.0107,-1.957,-1.9082,-1.8607,-1.7578,-1.6623,0.0,0.0,0.0,0.0,0.0,0.0,0.0,0.0,0.0,0.0,0.0,0.0,0.0,0.0,0.0,0.0,0.0,0.0,0.0,0.0,0.0,0.0,-2.6435,-2.8125,-2.9277,-3.0498,-3.1728,-3.292,-3.3809,-3.4336,-3.4336,-3.456,-3.46,-3.4355,-3.4746,-3.499,-3.499,-3.5156,-3.5381,-3.5644,-3.5654,-3.5771,-3.6016,-3.6016,-3.6016,-3.6016,-3.6016,-3.5664,-3.498,-3.4785,-3.4326,0.0,-3.3496,-3.3418,-3.3418,-3.3418,-3.3418,0.0,0.0,0.0,0.0,0.0,-3.1894,-3.1484,-3.124,-3.1035,-3.085,-3.0576,-3.0488,-3.0439,-3.0195,-3.0117,-3.0117,-3.0117,-2.998,-2.9834,-2.9834,-2.9375,-2.8916,-2.8916,-2.8603,-2.8291,-2.8291,-2.7959,-2.7539,-2.71,0.0,0.0,-2.5469,-2.5352,-2.5283,-2.5145,-2.4853,-2.4805,-2.5146,-2.4961,-2.4863,-2.5096,-2.5116,-2.491,-2.4411,-2.376,0.0,0.0,0.0,-2.0331,-1.9678,-1.9414,0.0,0.0,0.0,0.0,0.0,0.0,0.0,0.0,-1.6045,-1.5937,0.0,0.0,0.0,0.0,0.0,0.0,0.0,0.0,0.0,0.0,0.0,0.0,0.0,0.0,0.0,0.0,-2.8672,-3.0508,-3.2578,-3.2949,-3.3174,-3.3594,-3.4316,-3.4795,-3.4844,-3.4853,-3.4853,-3.4853,-3.5234,-3.5459,-3.5459,0.0,0.0,0.0,0.0,-3.6016,-3.6016,-3.6016,-3.5996,-3.5947,-3.5947,-3.5703,-3.5234,-3.4814,-3.4394,-3.3975,-3.3584,-3.3418,-3.3418,-3.3418,-3.3418,-3.3379,-3.3008,-3.2861,-3.2812,-3.2393,-3.1992,-3.1641,-3.1553,0.0,0.0,-3.0908,-3.0889,-3.0889,-3.0889,-3.0889,-3.0889,-3.0889,-3.0596,-3.0273,-3.0273,-2.9678,-2.9053,-2.9004,-2.8672,-2.835,-2.8301,-2.7998,-2.7607,-2.7178,-2.6748,-2.6318,-2.584,-2.5723,-2.5605,-2.5205,-2.5194,-2.5,-2.4609,-2.457,-2.4717,-2.5107,0.0,0.0,-2.5116,-2.4326,-2.3652,-2.312,-2.1611,-2.039,-1.9541,-1.9551,-1.9561,-1.9512,-1.9922,-2.0107,-2.0068,-2.0498,-2.0781,-2.0762,-1.7924,-1.7393,0.0,0.0,0.0,0.0,0.0,0.0,0.0,0.0,0.0,0.0,0.0,0.0,0.0,0.0,0.0,-2.8232,-3.001,-3.165,-3.3096,-3.3896,-3.4502,-3.4961,-3.5156,-3.5391,-3.5732,-3.5771,-3.5771,-3.5771,-3.585,-3.5898,-3.5898,-3.5976,-3.6016,-3.6016,-3.6016,-3.6016,-3.6016,-3.6016,-3.585,-3.5517,0.0,0.0,-3.4326,-3.4238,-3.3955,-3.3545,-3.3457,-3.3418,-3.3418,-3.3418,-3.3418,-3.3418,-3.333,-3.3301,-3.3252,-3.2832,-3.2627,-3.2451,-3.1758,-3.1465,-3.1338,-3.0996,-3.0889,-3.0889,-3.0889,-3.0889,0.0,-3.0889,-3.083,-3.0752,-3.0752,-3.0351,-2.9863,-2.9521,-2.9111,-2.8701,-2.8369,-2.8232,-2.8047,-2.7679,-2.7187,-2.6758,-2.6338,-2.5967,-2.5664,-2.5625,-2.5557,-2.5528,-2.544,-2.544,-2.5469,-2.5547,-2.5557,-2.5459,-2.5145,-2.459,-2.3965,-2.314,-2.2197,-2.1396,-2.0839,-2.1191,-2.1221,-2.082,-2.1289,-2.1328,-2.0947,-2.1416,-2.1807,-2.209,-2.0498,-1.9911,0.0,0.0,0.0,0.0,0.0,0.0,0.0,0.0,0.0,0.0,0.0,-2.3682,-2.541,0.0,-2.8291,-3.0234,-3.1631,-3.2842,-3.3906,-3.4629,-3.5137,-3.5361,-3.5586,-3.5791,-3.5996,-3.6016,-3.6016,-3.6016,-3.6016,-3.6016,-3.6016,-3.6016,-3.6016,-3.6016,-3.6016,-3.6016,-3.6016,-3.581,-3.5596,-3.5391,-3.5156,-3.4707,-3.4072,-3.4072,-3.3838,-3.3418,-3.3418,-3.3418,-3.3418,-3.3418,-3.3418,-3.3418,-3.3418,-3.3418,-3.3398,-3.3184,-3.2978,-3.2734,-3.2305,-3.2021,-3.1777,-3.1348,-3.1201,-3.1162,-3.0957,-3.0889,-3.0889,-3.0889,-3.0889,-3.0889,-3.0889,-3.0547,-3.0146,-2.9932,-2.9394,-2.8857,-2.8652,-2.8437,-2.8164,-2.7796,-2.749,-2.7207,-2.6777,-2.6348,-2.5986,-2.5723,-2.5693,-2.5693,-2.5693,-2.5693,-2.5693,-2.5693,-2.5693,-2.5596,-2.542,-2.5,-2.4375,-2.3516,-2.3066,-2.2646,-2.2165,-2.2412,-2.2422,-2.2207,-2.2627,-2.2734,-2.251,-2.2939,-2.3262,-2.3447,-2.2793,-2.2383,0.0,0.0,0.0,0.0,0.0,0.0,0.0,-2.2073,-2.25,-2.3922,-2.4834,-2.5977,-2.7822,-2.8926,-3.0156,-3.1992,-3.2998,-3.3818,-3.459,-3.5019,-3.5293,-3.5381,-3.5693,-3.5898,-3.5898,-3.5898,-3.5937,-3.6016,-3.6016,-3.6016,-3.6016,-3.6016,-3.6016,-3.6016,-3.6016,-3.5976,-3.5898,-3.5566,-3.5312,-3.5137,-3.4756,-3.4355,-3.3945,-3.3945,-3.375,-3.3418,-3.3418,-3.3418,-3.3418,-3.3418,-3.3418,-3.3418,-3.3418,-3.3418,-3.3418,-3.3418,-3.3203,-3.29,-3.2822,-3.2578,-3.2207,-3.1689,-3.1514,-3.1435,-3.1016,-3.0889,-3.0889,-3.0889,-3.0889,-3.0889,-3.0889,-3.0615,-3.0303,-3.0215,-2.9668,-2.9121,-2.8955,-2.8652,-2.8291,-2.7871,-2.7777,-2.7559,-2.7207,-2.6787,-2.6357,-2.5879,-2.5742,-2.5693,-2.5693,-2.5693,-2.5693,-2.5693,-2.5693,-2.5693,-2.5693,-2.541,-2.4863,-2.4082,-2.4043,-2.3848,-2.3364,-2.3398,-2.3452,-2.3452,-2.3818,-2.4043,-2.4043,-2.4463,-2.4717,-2.4795,-2.4795,-2.4482,-2.2845,-2.1223,-2.0541,-2.1809,-2.176,-2.2454,0.0,-2.6212,-2.5654,-2.7373,-2.8398,-2.918,-2.9805,-3.0947,-3.2012,-3.2627,-3.3437,-3.416,-3.4629,-3.4746,-3.4932,-3.5342,-3.543,-3.5459,-3.5459,-3.5459,-3.5615,-3.5986,-3.6016,-3.6016,-3.6016,-3.6016,-3.6016,-3.6016,-3.6016,-3.584,-3.5469,-3.542,-3.5,-3.4219,-3.417,-3.3916,-3.3496,-3.3496,-3.3467,-3.3418,-3.3418,-3.3418,-3.3418,-3.3418,-3.3418,-3.3418,-3.3418,-3.3418,-3.3418,-3.3418,-3.3389,-3.3301,-3.292,-3.2764,-3.2598,-3.1777,-3.1514,-3.1435,-3.1016,-3.0889,-3.0889,-3.0889,-3.0889,-3.0889,-3.0889,-3.085,-3.0713,-3.0293,-3.0127,-2.9844,-2.9082,-2.8887,-2.8721,-2.8301,-2.792,-2.7699,-2.765,-2.7236,-2.6807,-2.6377,-2.5986,-2.5693,-2.5693,-2.5693,-2.5693,-2.5693,-2.5693,-2.5693,-2.5693,-2.5645,-2.5449,-2.4998,-2.4969,-2.4727,-2.4287,-2.4277,-2.4277,-2.4277,-2.4707,-2.4969,-2.4979,-2.5371,-2.5791,-2.6172,-2.6172,-2.5508,-2.4378,-2.3533,-2.3333,-2.4257,-2.4887,-2.5769,-2.768,-2.7784,-2.7828,-2.9061,-2.981,-3.0519,-3.1456,-3.2077,-3.2617,-3.3047,-3.4079,-3.4684,-3.441,-3.4962,-3.5136,-3.4316,-3.4248,-3.4443,-3.4941,-3.499,-3.5059,-3.5234,-3.5254,-3.5254,-3.5254,-3.5254,-3.5254,-3.5254,-3.5254,-3.5166,-3.499,-3.4746,-3.4443,-3.4072,-3.3809,-3.3603,-3.3418,-3.3418,-3.3418,-3.3418,-3.3418,-3.3418,-3.3418,-3.3418,-3.3418,-3.3418,-3.3418,-3.3418,-3.3418,-3.3418,-3.3418,-3.3398,-3.3223,-3.3164,-3.3057,-3.2461,-3.21,-3.1816,-3.1387,-3.1084,-3.0889,-3.0889,-3.0889,-3.0889,-3.0889,-3.0889,-3.084,-3.0644,-3.0391,-3.0029,-2.9434,-2.9092,-2.8789,-2.8369,-2.8144,-2.8027,-2.8027,-2.7676,-2.7334,-2.7158,-2.6758,-2.6396,-2.6152,-2.6113,-2.6016,-2.5713,-2.5693,-2.5693,-2.5693,-2.5693,-2.5615,-2.5469,-2.5459,-2.5371,-2.5148,-2.5138,-2.5138,-2.5138,-2.5361,-2.5459,-2.5459,-2.5596,-2.5781,-2.6006,-2.6006,-2.585,-2.4866,-2.506,-2.5731,-2.6263,-2.7479,-2.8683,-2.9169,-2.9419,-2.9814,-3.0525,-3.0933,-3.1441,-3.2386,-3.2764,-3.3071,-3.3457,-3.4487,-3.5017,-3.4433,-3.4957,-3.4927,-3.3662,-3.3178,-3.3184,-3.3926,-3.4209,-3.4443,-3.4678,-3.4697,-3.4697,-3.4697,-3.4697,-3.4697,-3.4697,-3.4697,-3.4639,-3.4531,-3.4228,-3.4014,-3.3887,-3.3574,-3.3418,-3.3418,-3.3418,-3.3418,-3.3418,-3.3418,-3.3418,-3.3418,-3.3418,-3.3418,-3.3418,-3.3418,-3.3418,-3.3418,-3.3418,-3.3418,-3.3418,-3.3418,-3.3418,-3.335,-3.293,-3.2588,-3.2266,-3.1826,-3.1406,-3.1064,-3.1064,-3.0986,-3.0889,-3.0889,-3.0889,-3.0889,-3.0889,-3.0635,-3.0264,-2.9834,-2.9492,-2.9111,-2.8574,-2.8467,-2.8428,-2.831,-2.8047,-2.7894,-2.7894,-2.7568,-2.7178,-2.6631,-2.6562,-2.6445,-2.6074,-2.6044,-2.5996,-2.5879,-2.5869,-2.582,-2.5693,-2.5693,-2.5693,-2.5693,-2.5693,-2.5693,-2.5693,-2.5693,-2.5693,-2.5693,-2.581,-2.5927,-2.6044,-2.6161,-2.6435,-2.4038,-2.506,-2.6718,-2.7444,-2.8901,-3.0503,-3.184,-3.1927,-3.1838,-3.23,-3.2401,-3.2342,-3.2392,-3.3166,-3.3769,-3.3789,-3.4534,-3.5107,-3.5097,-3.4419,-3.3971,-3.3869,-3.2507,-3.1758,0.0,-3.2978,-3.3809,-3.4639,-3.4697,-3.4697,-3.4697,-3.4697,-3.4697,-3.4697,-3.4697,-3.4502,-3.4092,-3.4082,-3.3857,-3.3437,-3.3428,-3.3418,-3.3418,-3.3418,-3.3418,-3.3418,-3.3418,-3.3418,-3.3418,-3.3418,-3.3418,-3.3418,-3.3418,-3.3418,-3.3418,-3.3418,-3.3418,-3.3418,-3.3418,-3.3418,-3.335,-3.293,-3.2783,-3.2695,-3.2275,-3.1846,-3.1504,-3.1504,-3.1201,-3.0889,-3.0889,-3.0889,-3.0889,-3.0889,-3.0879,-3.0742,-3.0273,-3.0166,-2.9912,-2.9062,-2.8896,-2.8769,-2.8359,-2.8281,-2.8271,-2.8271,-2.8262,-2.7949,-2.71,-2.6992,-2.6992,-2.6982,-2.6973,-2.6807,-2.6406,-2.6367,-2.6182,-2.5713,-2.5693,-2.5693,-2.5693,-2.5693,-2.5693,-2.5693,-2.5693,-2.5693,-2.5693,-2.6162,-2.6572,-2.6982,-2.7412,-2.7669,-2.5943,-2.6946,-2.8297,-2.9724,-3.0959,-3.1994,-3.2571,-3.2628,-3.253,-3.2387,-3.2123,-3.1944,-3.219,-3.2563,-3.2899,-3.3296,-3.4256,-3.4896,-3.4644,-3.4838,-3.4544,-3.324,-3.2632,0.0,0.0,0.0,0.0,-3.3369,-3.3627,-3.3808,-3.3838,-3.3848,-3.3848,-3.3848,-3.3848,-3.3779,-3.3643,-3.3643,-3.3574,-3.3418,-3.3418,-3.3418,-3.3418,-3.3418,-3.3418,-3.3418,-3.3418,-3.3418,-3.3418,-3.3418,-3.3418,-3.3418,-3.3418,-3.3418,-3.3418,-3.3418,-3.3418,-3.3418,-3.3418,-3.3418,-3.3398,-3.3252,-3.3027,-3.2764,-3.2627,-3.208,-3.1514,-3.1514,-3.1211,-3.0889,-3.0889,-3.0889,-3.0889,-3.0889,-3.0889,-3.0762,-3.0293,-3.0195,-3.0029,-2.9463,-2.9111,-2.8877,-2.873,-2.8476,-2.8291,-2.8291,-2.8057,-2.7826,-2.748,-2.7197,-2.7012,-2.7012,-2.7012,-2.6963,-2.6816,-2.6807,-2.6738,-2.6541,-2.6582,-2.6582,-2.6582,-2.6582,-2.6582,-2.6582,-2.6582,-2.6582,-2.6582,-2.6728,-2.6875,-2.7021,-2.7168,-2.7393,-2.7624,-2.8783,-2.9994,-3.1661,-3.2768,-3.3424,-3.3361,-3.3333,-3.3107,-3.2348,-3.1702,-3.1261,-3.1175,-3.1175,-3.1518,-3.256,-3.3493,-3.4258,-3.4706,-3.4839,-3.4441,-3.3166,-3.2665,-3.2306,0.0,0.0,0.0,-3.29,-3.3426,-3.3634,-3.3408,-3.3481,-3.3544,-3.3418,-3.3418,-3.3418,-3.3418,-3.3418,-3.3418,-3.3418,-3.3418,-3.3418,-3.3418,-3.3418,-3.3418,-3.3418,-3.3418,-3.3418,-3.3418,-3.3418,-3.3418,-3.3418,-3.3418,-3.3418,-3.3418,-3.3418,-3.3418,-3.3418,-3.3418,-3.3418,-3.3418,-3.3418,-3.3242,-3.3018,-3.3018,-3.2529,-3.1973,-3.1973,-3.167,-3.1318,-3.1152,-3.1113,-3.1074,-3.0928,-3.0889,-3.081,-3.0508,-3.0449,-3.0312,-2.9883,-2.957,-2.9326,-2.918,-2.8799,-2.8467,-2.831,-2.8066,-2.7891,-2.7891,-2.7646,-2.7471,-2.7471,-2.7471,-2.7412,-2.7266,-2.7246,-2.7178,-2.7021,-2.7012,-2.7012,-2.7012,-2.7012,-2.7012,-2.7012,-2.7012,-2.7012,-2.7012,-2.7168,-2.7246,-2.7246,-2.7402,-2.7627,-2.9063,-3.0439,-3.1795,-3.312,-3.4093,-3.466,-3.4194,-3.4059,-3.3575,-3.2219,-3.1195,-3.0274,-2.9373,-2.9239,-2.9849,-3.1585,-3.2339,-3.3379,-3.5138,-3.442,-3.3706,-3.3626,-3.2636,-3.2107,-3.252,0.0,0.0,-3.3311,0.0,-3.406,-3.3481,-3.3733,-3.3733,-3.3418,-3.3418,-3.3418,-3.3418,-3.3418,-3.3418,-3.3418,-3.3418,-3.3418,-3.3418,-3.3418,-3.3418,-3.3418,-3.3418,-3.3418,-3.3418,-3.3418,-3.3418,-3.3418,-3.3418,-3.3418,-3.3418,-3.3418,-3.3418,-3.3418,-3.3418,-3.3418,-3.3418,-3.3418,-3.3418,-3.3418,-3.3418,-3.3125,-3.2793,-3.2793,-3.249,-3.207,-3.166,-3.1533,-3.1416,-3.1016,-3.0908,-3.0889,-3.0889,-3.0889,-3.0762,-3.0322,-3.0215,-3.0068,-2.9648,-2.9228,-2.8809,-2.8389,-2.833,-2.831,-2.8291,-2.8291,-2.8291,-2.8291,-2.8291,-2.8135,-2.7787,-2.7748,-2.7519,-2.7109,-2.708,-2.708,-2.708,-2.708,-2.708,-2.708,-2.708,-2.708,-2.708,-2.75,-2.7748,-2.7757,-2.8105,-2.8291,-3.0874,-3.2085,-3.312,-3.4204,-3.438,-3.4183,-3.3658,-3.3037,-3.2168,-3.0801,-2.9508,-2.8452,-2.7931,-2.8338,-2.9166,-3.0325,-3.2033,-3.3617,-3.4766,-3.4953,-3.4769,-3.4197,-3.3831,-3.3546,-3.3323,-3.3626,0.0,0.0,-3.3872,-3.379,-3.3766,-3.3859,-3.3733,-3.3418,-3.367,-3.367,-3.3418,-3.3418,-3.3418,-3.3418,-3.3418,-3.3418,-3.3418,-3.3418,-3.3418,-3.3418,-3.3418,-3.3418,-3.3418,-3.3418,-3.3418,-3.3418,-3.3418,-3.3418,-3.3418,-3.3418,-3.3418,-3.3418,-3.3418,-3.3418,-3.3418,-3.3418,-3.3418,-3.3418,-3.3418,-3.3125,-3.2793,-3.2793,-3.249,-3.2148,-3.2031,-3.1758,-3.1484,-3.1377,-3.1123,-3.0889,-3.0889,-3.0889,-3.0859,-3.0732,-3.043,-3.0068,-2.9648,-2.9473,-2.9258,-2.8828,-2.876,-2.8643,-2.833,-2.8291,-2.8291,-2.8291,-2.8291,-2.8252,-2.8144,-2.8135,-2.8086,-2.7978,-2.7969,-2.7969,-2.7969,-2.7969,-2.7969,-2.7969,-2.7969,-2.7969,-2.7969,-2.8076,-2.8135,-2.8135,-2.8242,-2.8291,-3.224,-3.3285,-3.4155,-3.4869,-3.4703,-3.41,-3.2789,-3.195,-3.077,-2.839,-2.7127,-2.6185,-2.5326,-2.6072,-2.7324,-2.8835,-3.1008,-3.3084,-3.4608,-3.4973,-3.4973,-3.4543,-3.4512,-3.4409,-3.4152,-3.4358,-3.4594,0.0,-3.4564,-3.433,-3.4143,-3.4235,-3.4173,-3.3859,-3.4047,-3.3985,-3.3607,-3.3481,-3.3418,-3.3418,-3.3418,-3.3418,-3.3418,-3.3418,-3.3418,-3.3418,0.0,-3.3418,-3.3418,-3.3418,-3.3418,-3.3418,-3.3418,-3.3418,-3.3418,-3.3418,-3.3418,-3.3418,-3.3418,-3.3418,-3.3418,-3.3418,-3.3418,-3.3418,-3.3418,-3.3252,-3.3066,-3.3066,-3.29,-3.2676,-3.249,-3.2129,-3.1758,-3.1562,-3.1201,-3.0889,-3.0889,-3.0889,-3.0889,-3.0889,-3.0684,-3.0361,-2.9922,-2.9844,-2.9697,-2.9268,-2.9209,-2.9053,-2.8623,-2.8408,-2.8291,-2.8291,-2.8291,-2.8291,-2.8291,-2.8291,-2.8291,-2.8291,-2.8291,-2.8291,-2.8291,-2.8291,-2.8291,-2.8291,-2.8291,-2.8291,-2.8291,-2.8291,-2.8389,-2.8564,-2.8564,-2.8672,-3.3596,-3.4365,-3.4982,-3.5436,-3.5063,-3.4038,-3.1868,-3.0795,-2.93,-2.5896,-2.4624,-2.3774,-2.2625,-2.3525,-2.5148,-2.7469,-2.9777,-3.2075,-3.4411,-3.4785,-3.4847,-3.4899,-3.4909,-3.4909,-3.4909,-3.4909,-3.5004,-3.5387,-3.5418,-3.5108,-3.4485,-3.4735,-3.4797,-3.4485,-3.436,-3.4235,-3.3985,-3.3607,-3.3418,-3.3418,-3.3418,-3.3418,-3.3418,-3.3418,-3.3418,-3.3418,0.0,0.0,-3.3418,-3.3418,-3.3418,-3.3418,-3.3418,-3.3418,-3.3418,-3.3418,-3.3418,-3.3418,-3.3418,-3.3418,-3.3418,-3.3418,-3.3418,-3.3418,-3.3418,-3.3418,-3.3418,-3.3418,-3.3418,-3.334,-3.2969,-3.2568,-3.2158,-3.1777,-3.1318,-3.0976,-3.0976,-3.0928,-3.0889,-3.0889,-3.0889,-3.0762,-3.0361,-3.0293,-3.0146,-2.9717,-2.9658,-2.9492,-2.9062,-2.8633,-2.8359,-2.8301,-2.8291,-2.8291,-2.8291,-2.8291,-2.8291,-2.8291,-2.8291,-2.8291,-2.8291,-2.8291,-2.8291,-2.8291,-2.8291,-2.832,-2.8379,-2.8379,-2.8594,-2.9004,-2.9004,-2.9209,-3.5756,-3.5667,-3.5467,-3.623,-3.499,-3.3179,-3.154,-2.9474,-2.7364,-2.5423,-2.3543,-2.2211,-2.1963,-2.306,-2.4736,-2.705,-2.9352,-3.1598,-3.3924,-3.4577,-3.49,-3.5262,-3.5304,-3.5304,-3.5304,-3.5304,0.0,0.0,0.0,-3.5232,-3.4859,-3.4859,-3.4859,-3.4797,-3.4298,-3.411,-3.4298,-3.3733,-3.3418,-3.3418,-3.3418,-3.3418,-3.3418,-3.3418,-3.3418,-3.3418,-3.3418,0.0,-3.3418,-3.3418,-3.3418,-3.3418,-3.3418,-3.3418,-3.3418,-3.3418,-3.3418,-3.3418,-3.3418,-3.3418,-3.3418,-3.3418,-3.3418,-3.3418,-3.3418,-3.3418,-3.3418,-3.3418,-3.3418,-3.3408,-3.333,-3.2998,-3.2666,-3.2588,-3.1973,-3.1406,-3.1406,-3.1133,-3.0889,-3.0889,-3.0889,-3.0869,-3.0781,-3.0771,-3.0615,-3.0156,-3.0088,-2.9932,-2.9512,-2.9082,-2.8682,-2.833,-2.8291,-2.8291,-2.8291,-2.8291,-2.8291,-2.8291,-2.8291,-2.8291,-2.8291,-2.8291,-2.8291,-2.8291,-2.8291,-2.8467,-2.8809,-2.8809,-2.9033,-2.9453,-2.9453,-2.9502,-3.5994,-3.5777,-3.5427,-3.5636,-3.4347,-3.2527,-3.0531,-2.8063,-2.5557,-2.3346,-2.1728,-2.0596,-2.011,-2.1745,-2.367,-2.5288,-2.7455,-2.9787,-3.2369,-3.3058,-3.3772,-3.4941,-3.5283,-3.5418,-3.5418,-3.5418,-3.5418,-3.5418,0.0,-3.5356,-3.517,-3.517,-3.517,-3.517,-3.4673,-3.4485,-3.4673,-3.4173,-3.3922,-3.3922,-3.3733,-3.367,-3.367,-3.3481,-3.3418,-3.3418,-3.3418,0.0,-3.3418,-3.3418,-3.3418,-3.3418,-3.3418,-3.3418,-3.3418,-3.3418,-3.3418,-3.3418,-3.3418,-3.3418,-3.3418,-3.3418,-3.3418,-3.3418,-3.3418,-3.3418,-3.3418,-3.3418,-3.3418,-3.3418,-3.3418,-3.3105,-3.2793,-3.2793,-3.2139,-3.1514,-3.1514,-3.1182,-3.0889,-3.0889,-3.0889,-3.0889,-3.0889,-3.0889,-3.081,-3.0596,-3.0557,-3.04,-2.9951,-2.9717,-2.9424,-2.9004,-2.8955,-2.8955,-2.8955,-2.8955,-2.8955,-2.8955,-2.8955,-2.8955,-2.8955,-2.8955,-2.8955,-2.8955,-2.8955,-2.9053,-2.9258,-2.9258,-2.9482,-2.9893,-2.9893,-3.0029,-3.6491,-3.6318,-3.5764,-3.5498,-3.4281,-3.2369,-2.9678,-2.699,-2.4345,-2.1664,-2.0362,-1.9504,-1.8808,-2.0524,-2.2527,-2.3907,-2.5657,-2.7907,-3.0924,-3.174,-3.2675,-3.4463,-3.5086,-3.5418,-3.5418,-3.5418,0.0,-3.5418,0.0,0.0,-3.5418,-3.5418,-3.5418,-3.5418,-3.5046,-3.4922,-3.4922,-3.4548,-3.4423,-3.4423,-3.4047,-3.3922,-3.3859,-3.3544,-3.3418,-3.3418,-3.3418,0.0,0.0,-3.3418,-3.3418,-3.3418,-3.3418,-3.3418,-3.3418,-3.3418,-3.3418,-3.3418,-3.3418,-3.3418,-3.3418,-3.3418,-3.3418,-3.3418,-3.3418,-3.3418,-3.3418,-3.3418,-3.3418,-3.3418,-3.3418,-3.3174,-3.291,-3.2822,-3.2275,-3.1768,-3.168,-3.1396,-3.1133,-3.1045,-3.1025,-3.0996,-3.0908,-3.0889,-3.0889,-3.0889,-3.0889,-3.0762,-3.0391,-3.0342,-3.0225,-2.9883,-2.9687,-2.9626,-2.9626,-2.9626,-2.9626,-2.9626,-2.9626,-2.9626,-2.9626,-2.9626,-2.9626,-2.9626,-2.9626,-2.9619,-2.9707,-2.9707,-2.9922,-3.0342,-3.0342,-3.0547,-3.9143,-3.8547,-3.7199,-3.7427,-3.5971,-3.3463,-2.9669,-2.6724,-2.4191,-2.2207,-2.0495,-1.9415,-1.9625,-2.0172,-2.1533,-2.4427,-2.5189,-2.6727,-3.0576,-3.1629,-3.2561,-3.3969,-3.489,-3.5418,-3.5418,-3.5418,-3.5418,-3.5418,0.0,0.0,-3.5418,-3.5418,-3.5418,-3.5418,-3.5046,-3.4922,-3.4922,-3.4548,-3.4423,-3.4423,-3.4047,-3.3922,-3.3859,-3.3544,-3.3418,-3.3418,-3.3418,0.0,0.0,-3.3418,-3.3418,-3.3418,-3.3418,-3.3418,-3.3418,-3.3418,-3.3418,-3.3418,-3.3418,-3.3418,-3.3418,-3.3418,-3.3418,-3.3418,-3.3418,-3.3418,-3.3418,-3.3418,-3.3418,-3.3418,-3.3418,-3.3389,-3.3271,-3.2891,-3.2734,-3.2568,-3.2187,-3.208,-3.1934,-3.1533,-3.1455,-3.1338,-3.0957,-3.0889,-3.0889,-3.0889,-3.0889,-3.0869,-3.083,-3.083,-3.081,-3.0771,-3.0049,-2.9626,-2.9626,-2.9626,-2.9626,-2.9626,-2.9626,-2.9626,-2.9626,-2.9626,-2.9626,-2.9626,-2.9626,-2.9756,-3.0137,-3.0137,-3.0371,-3.083,-3.083,-3.085,-3.8598,-3.8418,-3.7273,-3.6407,-3.4737,-3.2512,-2.9495,-2.6543,-2.3969,-2.2446,-2.0867,-1.9845,-2.0125,-2.0421,-2.1358,-2.3605,-2.3607,-2.4484,-2.7804,-2.8564,-2.9663,-3.2157,-3.3482,-3.4517,0.0,0.0,-3.5418,-3.5418,0.0,0.0,-3.5418,-3.5418,-3.5418,-3.5418,-3.5294,-3.517,-3.517,-3.5046,-3.4984,-3.4984,-3.4673,-3.4423,-3.4173,-3.3859,-3.3607,-3.3418,-3.3418,0.0,0.0,-3.3418,-3.3418,-3.3418,-3.3418,-3.3418,-3.3418,-3.3418,-3.3418,-3.3418,-3.3418,-3.3418,-3.3418,-3.3418,-3.3418,-3.3418,-3.3418,-3.3418,-3.3418,-3.3418,-3.3418,-3.3418,-3.3418,-3.3418,-3.3379,-3.3213,-3.2978,-3.2754,-3.2588,-3.2344,-3.2119,-3.1943,-3.1699,-3.1465,-3.1299,-3.1055,-3.0976,-3.123,-3.1055,-3.0986,-3.124,-3.1045,-3.0889,-3.0889,-3.0576,-3.0361,-3.0361,-3.0361,-3.0361,-3.0361,-3.0361,-3.0361,-3.0361,-3.0361,-3.0361,-3.0361,-3.0361,-3.0449,-3.0615,-3.0615,-3.0713,-3.0889,-3.0889,-3.0889,-3.8182,-3.8654,-3.8053,-3.6556,-3.4683,-3.2443,-2.9454,-2.6165,-2.3418,-2.2204,-2.0725,-1.9786,-2.0223,-2.0302,-2.0915,-2.2799,-2.2577,-2.3107,-2.5793,-2.6604,-2.784,-3.0295,-3.1754,-3.312,-3.4486,-3.5107,-3.5418,0.0,0.0,0.0,-3.5418,-3.5293,-3.5221,-3.5221,-3.5221,-3.5159,-3.5024,-3.5024,-3.5024,-3.5024,-3.4646,-3.441,-3.4232,-3.3858,-3.3615,-3.3418,0.0,0.0,0.0,-3.3418,-3.3418,-3.3418,-3.3418,-3.3418,-3.3418,-3.3418,-3.3418,-3.3418,-3.3418,-3.3418,-3.3418,-3.3418,-3.3418,-3.3418,-3.3418,-3.3418,-3.3418,-3.3418,-3.3418,-3.3418,-3.3418,-3.3418,-3.3418,-3.3418,-3.3193,-3.2978,-3.2978,-3.2744,-3.25,-3.2383,-3.2109,-3.1855,-3.1728,-3.1357,-3.1172,-3.1475,-3.1162,-3.0996,-3.1299,-3.1074,-3.0889,-3.0889,-3.0889,-3.0889,-3.0889,-3.0889,-3.0889,-3.0889,-3.0889,-3.0889,-3.0889,-3.0889,-3.0889,-3.0889,-3.0889,-3.0889,-3.0889,-3.0889,-3.0889,-3.0889,-3.0889,-3.0889,-3.8576,-3.9942,-4.0042,-3.8984,-3.6926,-3.3977,-2.9749,-2.5644,-2.2419,-2.1321,-1.9767,-1.8929,-1.9921,-1.9551,-1.9892,-2.2241,-2.2425,-2.311,-2.5389,-2.6866,-2.79,-2.8572,-2.987,-3.1247,-3.2623,-3.4372,-3.5418,0.0,0.0,0.0,-3.5418,-3.5004,-3.4826,-3.4826,-3.4826,-3.4608,-3.4142,-3.4142,-3.4142,-3.4082,-3.3784,-3.3659,-3.3779,-3.3472,-3.3339,0.0,0.0,0.0,0.0,-3.3418,-3.3418,-3.3418,-3.3418,-3.3418,-3.3418,-3.3418,-3.3418,-3.3418,-3.3418,-3.3418,-3.3418,-3.3418,-3.3418,-3.3418,-3.3418,-3.3418,-3.3418,-3.3418,-3.3418,-3.3418,-3.3418,-3.3418,-3.3418,-3.3418,-3.3418,-3.3418,-3.3418,-3.3408,-3.3281,-3.2871,-3.2783,-3.2656,-3.2226,-3.1797,-3.1514,-3.1514,-3.1162,-3.0889,-3.0898,-3.0889,-3.0889,-3.0889,-3.0889,-3.0889,-3.0889,-3.0889,-3.0889,-3.0889,-3.0889,-3.0889,-3.0889,-3.0889,-3.0889,-3.0889,-3.0889,-3.0889,-3.0889,-3.0889,-3.0889,-3.0889,-3.0889,-3.0889,-3.4522,-3.5538,-3.5534,-3.4042,-3.2229,-3.0171,-2.7738,-2.4935,-2.2717,-2.206,-2.078,-2.0137,-2.1373,-2.0976,-2.1511,-2.4745,-2.4765,-2.4802,-2.6075,-2.7225,-2.8075,-2.8541,-3.1485,-3.3762,0.0,0.0,0.0,0.0,0.0,0.0,-3.4983,-3.4899,-3.4816,-3.4816,-3.4515,-3.4277,-3.4132,-3.4132,-3.4132,-3.4132,-3.4002,-3.401,-3.4146,-3.4024,0.0,0.0,0.0,0.0,0.0,-3.3418,-3.3418,-3.3418,-3.3418,-3.3418,-3.3418,-3.3418,-3.3418,-3.3418,-3.3418,-3.3418,-3.3418,-3.3418,-3.3418,-3.3418,-3.3418,-3.3418,-3.3418,-3.3418,-3.3418,-3.3418,-3.3418,-3.3418,-3.3418,-3.3418,-3.3418,-3.3418,-3.3418,-3.3418,-3.3379,-3.3252,-3.2988,-3.2754,-3.2617,-3.2246,-3.206,-3.2353,-3.2031,-3.1875,-3.2158,-3.1943,-3.1768,-3.1768,-3.1768,-3.1533,-3.0947,-3.0889,-3.0889,-3.0889,-3.0889,-3.0889,-3.0889,-3.0889,-3.0889,-3.0889,-3.0889,-3.0889,-3.0889,-3.0889,-3.0889,-3.0889,-3.0889,-3.0889,-3.1712,-3.3156,-3.3539,-3.1934,-3.0048,-2.8203,-2.665,-2.3998,-2.1866,-2.1927,-2.0564,-1.9849,-2.134,-2.0828,-2.1184,-2.4296,-2.4582,-2.4708,-2.5503,-2.6894,-2.8128,-2.9038,-3.1857,0.0,0.0,-3.5117,0.0,0.0,0.0,0.0,-3.4847,-3.465,-3.4474,-3.4308,-3.4017,-3.3731,-3.3565,-3.3565,-3.3648,-3.3862,-3.3862,-3.4015,-3.4329,-3.4329,0.0,0.0,0.0,0.0,0.0,-3.3195,-3.3099,-3.3184,-3.3184,-3.3281,-3.3418,-3.3418,-3.3418,-3.3418,-3.3418,-3.3418,-3.3418,-3.3418,-3.3418,-3.3418,-3.3418,-3.3418,-3.3418,-3.3418,-3.3418,-3.3418,-3.3418,-3.3418,-3.3418,-3.3418,-3.3418,-3.3418,-3.3418,-3.3418,-3.3418,-3.3418,-3.3213,-3.3037,-3.3037,-3.2685,-3.249,-3.2754,-3.2441,-3.2266,-3.2529,-3.2324,-3.2229,-3.2229,-3.2229,-3.1953,-3.1416,-3.1377,-3.1377,-3.1377,-3.1377,-3.1377,-3.1377,-3.1211,-3.1211,-3.1367,-3.1211,-3.1211,-3.1377,-3.1377,-3.1377,-3.1377,-3.1377,-3.1377,0.0,-3.2026,-3.2996,-3.1705,-2.9648,-2.7549,-2.6248,-2.288,0.0,-2.1128,-1.9516,-1.8534,-2.0361,-1.96,-1.9518,-2.198,-2.2886,-2.3599,-2.4393,-2.6385,-2.8407,-3.0161,-3.1467,0.0,-3.3605,0.0,0.0,0.0,0.0,0.0,-3.4795,-3.4329,-3.3813,-3.3348,-3.3327,-3.3141,-3.268,-3.27,-3.2975,-3.3379,-3.341,-3.3778,-3.4329,-3.4329,0.0,0.0,0.0,0.0,0.0,-3.2802,-3.2688,-3.2806,-3.2806,-3.307,-3.3442,-3.3442,-3.3461,-3.3481,-3.3481,-3.3481,-3.3481,-3.3418,-3.3418,-3.3418,-3.3428,-3.3418,-3.3418,-3.3418,-3.3418,-3.3418,-3.3418,-3.3418,-3.3418,-3.3418,-3.3418,-3.3418,-3.3418,-3.3418,-3.3418,-3.3418,-3.3418,-3.3418,-3.3418,-3.3096,-3.2842,-3.2842,-3.251,-3.2256,-3.2256,-3.2256,-3.2256,-3.2256,-3.2256,-3.2256,-3.2256,-3.2207,-3.2229,-3.2229,-3.2229,-3.2229,-3.2229,-3.1777,-3.1758,-3.2158,-3.1768,-3.1768,-3.2229,-3.2229,-3.2229,-3.2229,-3.2229,-3.2229,-2.4763,0.0,-2.7383,-2.6634,-2.517,-2.405,0.0,-2.221,-2.0327,-2.1256,-1.9918,-1.9385,-2.2002,-2.1116,-2.1303,-2.5385,-2.6208,-2.6574,-2.7384,-2.9218,-3.1367,-3.3767,-3.4123,-3.4739,-3.6226,0.0,0.0,0.0,0.0,-3.4714,-3.4318,-3.3793,-3.3337,-3.2903,-3.2882,-3.283,-3.2669,-3.3058,-3.3275,-3.3379,-3.3731,-3.4207,-3.4694,-3.4694,0.0,0.0,0.0,0.0,-3.3678,-3.3165,-3.2985,-3.3024,-3.3024,-3.3294,-3.3683,-3.3683,-3.3893,-3.4173,-3.4173,-3.4173,-3.411,-3.3859,-3.3796,-3.3733,-3.3481,-3.3418,-3.3418,-3.3418,-3.3418,-3.3418,-3.3418,-3.3418,-3.3418,-3.3418,-3.3418,-3.3418,-3.3418,-3.3418,-3.3418,-3.3418,-3.3418,-3.3418,-3.3418,-3.334,-3.3271,-3.3271,-3.3193,-3.3125,-3.3125,-3.3125,-3.3125,-3.3125,-3.3125,-3.3125,-3.3125,-3.2539,-3.2229,-3.2229,-3.2229,-3.2229,-3.2229,-3.207,-3.206,-3.2229,-3.207,-3.207,-3.2229,-3.2229,-3.2229,-3.2229,-3.2229,-3.2229,-2.2732,-2.3966,-2.4995,-2.3983,-2.3257,-2.2798,-2.2919,-2.1178,-1.982,-2.0906,-1.9713,-1.9193,-2.1542,-2.0889,-2.1256,-2.5149,-2.5742,-2.6663,-2.9468,-3.1652,-3.3612,-3.5312,-3.5596,-3.6099,0.0,0.0,0.0,0.0,0.0,-3.5913,-3.4641,-3.4307,-3.3738,-3.2747,-3.2669,-3.2669,-3.2669,-3.3161,-3.3379,-3.3389,-3.4062,-3.4577,-3.4826,-3.4973,-3.5025,0.0,0.0,0.0,-3.3366,-3.292,-3.2741,-3.2803,-3.2803,-3.3196,-3.3779,-3.3779,-3.4051,-3.4423,-3.4423,-3.4423,-3.436,-3.3985,-3.3922,-3.3859,-3.3481,-3.3418,-3.3418,-3.3418,-3.3418,-3.3418,-3.3418,-3.3418,-3.3418,-3.3418,-3.3418,-3.3418,-3.3418,-3.3418,-3.3418,-3.3418,-3.3418,-3.3418,-3.3418,-3.3418,-3.3418,-3.3418,-3.3418,-3.3418,-3.3418,-3.3418,-3.3418,-3.3418,-3.3418,-3.3418,-3.3418,-3.3008,-3.2744,-3.2744,-3.2744,-3.2744,-3.2744,-3.2559,-3.2451,-3.2451,-3.2646,-3.2744,-3.2744,-3.2744,-3.2744,-3.2744,-3.2744,-3.2744,-2.2397,-2.354,-2.431,-2.2706,-2.2669,-2.2779,-2.1964,-2.0419,-1.9479,-2.0575,-1.9576,-1.8995,-2.0674,-2.0527,-2.1153,-2.408,-2.4791,-2.6594,-3.1296,-3.3524,-3.5063,-3.5969,-3.6439,0.0,0.0,0.0,0.0,0.0,0.0,-3.7291,-3.5223,-3.5046,-3.4282,-3.2737,-3.2669,-3.2669,-3.2669,-3.3161,-3.342,-3.3492,-3.4411,-3.4857,-3.4869,-3.518,-3.5117,0.0,0.0,0.0,-3.2929,-3.2547,-3.2415,-3.2458,-3.2458,-3.2963,-3.3761,-3.3831,-3.4135,-3.4457,-3.4528,-3.4548,-3.4485,-3.411,-3.3985,-3.3922,-3.3544,-3.3418,-3.3418,-3.3418,-3.3418,-3.3418,-3.3418,-3.3418,-3.3418,-3.3418,-3.3418,-3.3418,-3.3418,-3.3418,-3.3418,-3.3418,-3.3418,-3.3418,-3.3418,-3.3418,-3.3418,-3.3418,-3.3418,-3.3418,-3.3418,-3.3418,-3.3418,-3.3418,-3.3418,-3.3418,-3.3418,-3.3418,-3.3418,-3.3418,-3.3418,-3.3418,-3.3418,-3.3076,-3.2891,-3.2891,-3.3242,-3.3418,-3.3418,-3.3418,-3.3418,-3.3418,-3.3418,-3.3418,-2.2732,-2.3521,-2.3704,-2.1921,-2.2255,-2.2843,-2.2185,-2.1451,-2.0961,-2.1167,-2.0675,-2.0646,-2.2054,-2.279,-2.4104,-2.6797,-2.8853,-3.1098,-3.3755,0.0,-3.5091,-3.7167,0.0,0.0,0.0,0.0,0.0,0.0,0.0,-3.6556,-3.5179,-3.4797,-3.4006,-3.2737,-3.2669,-3.2669,-3.2669,-3.3161,-3.3575,-3.4028,-3.4557,-3.4962,-3.5304,-3.5004,-3.4888,0.0,0.0,-3.3441,-3.3279,-3.2845,-3.2653,-3.2658,-3.2658,-3.2967,-3.352,-3.3912,-3.4345,-3.4788,-3.5108,-3.5232,-3.517,-3.4548,-3.4298,-3.4235,-3.3607,-3.3418,-3.3418,-3.3418,-3.3418,-3.3418,-3.3418,-3.3418,-3.3418,-3.3418,-3.3418,-3.3418,-3.3418,-3.3418,-3.3418,-3.3418,-3.3418,-3.3418,-3.3418,-3.3418,-3.3418,-3.3418,-3.3418,-3.3418,-3.3418,-3.3418,-3.3418,-3.3418,-3.3418,-3.3418,-3.3418,-3.3418,-3.3418,-3.3418,-3.3418,-3.3418,-3.3418,-3.3359,-3.333,-3.333,-3.3389,-3.3418,-3.3418,-3.3418,-3.3418,-3.3418,-3.3418,-3.3418,-2.1744,-2.2435,-2.2875,-2.1952,-2.3323,-2.462,-2.3631,-2.2657,-2.2246,-2.3039,-2.2383,-2.2066,-2.331,-2.4143,-2.5559,-2.8387,-3.0697,-3.2992,-3.5363,-3.5668,-3.6162,0.0,0.0,0.0,0.0,0.0,0.0,0.0,0.0,0.0,-3.578,-3.4913,-3.3931,-3.2727,-3.2669,-3.2669,-3.2669,-3.2934,-3.313,-3.3358,-3.4051,-3.4362,-3.432,-3.4362,-3.4308,-3.4049,0.0,-3.3244,-3.3016,-3.282,-3.2669,-3.2669,-3.2669,-3.2996,-3.3461,-3.4235,-3.4724,-3.5148,-3.5355,-3.5418,-3.5294,-3.4859,-3.4548,-3.4298,-3.3796,-3.3544,-3.3418,-3.3418,-3.3418,-3.3418,-3.3418,-3.3418,-3.3418,-3.3418,-3.3418,-3.3418,-3.3418,-3.3418,-3.3418,-3.3418,-3.3418,-3.3418,-3.3418,-3.3418,-3.3418,-3.3418,-3.3418,-3.3418,-3.3418,-3.3418,-3.3418,-3.3418,-3.3418,-3.3418,-3.3418,-3.3418,-3.3418,-3.3418,-3.3418,-3.3418,-3.3418,-3.3418,-3.3418,-3.3418,-3.3418,-3.3418,-3.3418,-3.3418,-3.3418,-3.3418,-3.3418,-3.3418,-2.1521,-2.1958,-2.2568,-2.2849,-2.4513,-2.5918,-2.5257,-2.4397,-2.4077,-2.5422,-2.4826,-2.4284,-2.4933,-2.5923,-2.7504,-3.0208,-3.202,-3.3839,-3.6014,-3.6283,-3.6601,-3.7497,0.0,0.0,0.0,0.0,0.0,0.0,0.0,0.0,-3.6317,-3.5388,-3.4201,-3.2727,-3.2669,-3.2669,-3.2669,-3.2669,-3.2789,-3.2892,-3.3575,-3.3841,-3.3544,-3.3793,-3.371,-3.3379,-3.3379,-3.313,-3.2737,-3.284,-3.282,-3.2669,-3.2669,-3.2996,-3.3472,-3.4349,-3.4879,-3.5283,-3.5387,-3.5418,-3.5356,-3.4984,-3.4673,-3.436,-3.3985,-3.367,-3.3418,-3.3418,-3.3418,-3.3418,-3.3418,-3.3418,-3.3418,-3.3418,-3.3418,-3.3418,-3.3418,-3.3418,-3.3418,-3.3418,-3.3418,-3.3418,-3.3418,-3.3418,-3.3418,-3.3418,-3.3418,-3.3418,-3.3418,-3.3418,-3.3418,-3.3418,-3.3418,-3.3418,-3.3418,-3.3418,-3.3418,-3.3418,-3.3418,-3.3418,-3.3418,-3.3418,-3.3418,-3.3418,-3.3418,-3.3418,-3.3418,-3.3418,-3.3418,-3.3418,-3.3418,-3.3418,-2.3489,-2.3396,-2.3421,-2.4956,-2.5139,-2.5261,-2.659,-2.693,-2.7232,-2.8238,-2.842,-2.821,-2.7497,-2.9112,-3.1205,-3.3173,-3.3509,-3.4029,-3.5317,0.0,-3.5168,0.0,0.0,0.0,0.0,0.0,0.0,0.0,0.0,0.0,-3.6306,-3.6131,-3.5057,-3.2784,-3.2669,-3.2669,-3.2669,-3.2669,-3.2934,-3.3327,-3.3399,-3.3637,-3.4069,-3.3606,-3.341,-3.3379,-3.3379,-3.313,-3.27,-3.3161,-3.3089,-3.2669,-3.2669,-3.2996,-3.3441,-3.3938,-3.4414,-3.493,-3.5273,-3.5418,-3.5356,-3.4984,-3.4673,-3.436,-3.3985,-3.367,-3.3418,-3.3418,-3.3418,-3.3418,-3.3418,-3.3418,-3.3418,-3.3418,-3.3418,-3.3418,-3.3418,-3.3418,-3.3418,-3.3418,-3.3418,-3.3418,-3.3418,-3.3418,-3.3418,-3.3418,-3.3418,-3.3418,-3.3418,-3.3418,-3.3418,-3.3418,-3.3418,-3.3418,-3.3418,-3.3418,-3.3418,-3.3418,-3.3418,-3.3418,-3.3418,-3.3418,-3.3418,-3.3418,-3.3418,-3.3418,-3.3418,-3.3418,-3.3418,-3.3418,-3.3418,-3.3418,-2.241,-2.3037,-2.3904,-2.487,-2.6251,-2.7698,-2.8984,-2.9404,-3.0069,-3.2054,-3.2044,-3.1558,-3.1085,-3.0732,-3.1236,-3.3514,-3.4325,-3.512,-3.618,-3.5639,0.0,0.0,0.0,0.0,0.0,0.0,0.0,0.0,0.0,0.0,0.0,-3.5925,-3.4747,-3.3818,-3.3115,-3.2669,-3.2669,-3.2669,-3.282,-3.2975,-3.2975,-3.3068,-3.3223,-3.3058,-3.2975,-3.2975,-3.2975,-3.2882,-3.269,-3.2903,-3.2882,-3.2669,-3.2669,-3.2996,-3.343,-3.3955,-3.4422,-3.4888,-3.5262,-3.5418,-3.5356,-3.4984,-3.4673,-3.436,-3.3985,-3.367,-3.3418,-3.3418,-3.3418,-3.3418,-3.3418,-3.3418,-3.3418,-3.3418,-3.3418,-3.3418,-3.3418,-3.3418,-3.3418,-3.3418,-3.3418,-3.3418,-3.3418,-3.3418,-3.3418,-3.3418,-3.3418,-3.3418,-3.3418,-3.3418,-3.3418,-3.3418,-3.3418,-3.3418,-3.3418,-3.3418,-3.3418,-3.3418,-3.3418,-3.3418,-3.3418,-3.3418,-3.3418,-3.3418,-3.3418,-3.3418,-3.3418,-3.3418,-3.3418,-3.3418,-3.3418,-3.3418,-2.2209,-2.2849,-2.3941,-2.4845,-2.6844,-2.9151,-3.1198,-3.1739,-3.2597,-3.5203,-3.4991,-3.4159,-3.3499,-3.2541,-3.2176,-3.3163,-3.466,-3.564,-3.558,-3.5593,0.0,0.0,0.0,0.0,0.0,0.0,0.0,0.0,0.0,0.0,0.0,-3.61,-3.4858,0.0,-3.3332,-3.2669,-3.2669,-3.2669,-3.2669,-3.2669,-3.2669,-3.2669,-3.2669,-3.2669,-3.2669,-3.2747,-3.3027,-3.3068,-3.2954,-3.3254,-3.3203,-3.2923,-3.2789,-3.2913,-3.3244,-3.3844,-3.4329,-3.4681,-3.5211,-3.5418,-3.5356,-3.5108,-3.4859,-3.4548,-3.4298,-3.3922,-3.3544,-3.3544,-3.3481,-3.3418,-3.3418,-3.3418,-3.3418,-3.3418,-3.3418,-3.3418,-3.3418,-3.3418,-3.3418,-3.3418,-3.3418,-3.3418,-3.3418,-3.3418,-3.3418,-3.3418,-3.3418,-3.3418,-3.3418,-3.3418,-3.3418,-3.3418,-3.3418,-3.3418,-3.3418,-3.3418,-3.3418,-3.3418,-3.3418,-3.3418,-3.3418,-3.3418,-3.3418,-3.3418,-3.3418,-3.3418,-3.3418,-3.3418,-3.3418,-3.3418,-3.3418,-3.3418,-2.3396,-2.3108,-2.3521,-2.5197,-2.6892,-2.9164,-3.3043,-3.3922,-3.4713,-3.7462,-3.7149,-3.5911,-3.4304,-3.4823,-3.4757,-3.2504,-3.4401,-3.5377,-3.3058,0.0,0.0,0.0,0.0,0.0,0.0,0.0,0.0,0.0,0.0,0.0,0.0,-3.6846,-3.5706,0.0,-3.3332,-3.2737,-3.2737,-3.2737,-3.2669,-3.2669,-3.2669,-3.2669,-3.2669,-3.2669,-3.2669,-3.2721,-3.3668,-3.3793,-3.3441,-3.4422,-3.4256,-3.3327,-3.2903,-3.2669,-3.284,-3.3731,-3.4121,-3.4196,-3.5097,-3.5418,-3.5418,-3.5418,-3.517,-3.4922,-3.4922,-3.4423,-3.3922,-3.3922,-3.367,-3.3418,-3.3418,-3.3418,-3.3418,-3.3418,-3.3418,-3.3418,-3.3418,-3.3418,-3.3418,-3.3418,-3.3418,-3.3418,-3.3418,-3.3418,-3.3418,-3.3418,-3.3418,-3.3418,-3.3418,-3.3418,-3.3418,-3.3418,-3.3418,-3.3418,-3.3418,-3.3418,-3.3418,-3.3418,-3.3418,-3.3418,-3.3418,-3.3418,-3.3418,-3.3418,-3.3418,-3.3418,-3.3418,-3.3418,-3.3418,-3.3418,-3.3418,-3.3418,-2.2719,-2.3396,-2.4687,-2.6377,-2.8913,-3.18,-3.4926,-3.5931,-3.6885,-3.9283,-3.8051,-3.6368,-3.5739,-3.5679,-3.5038,-3.2955,-3.5666,-3.6938,0.0,0.0,0.0,0.0,0.0,0.0,0.0,0.0,0.0,0.0,0.0,0.0,0.0,-3.7566,-3.6846,0.0,-3.458,-3.3987,-3.3987,-3.3105,-3.2669,-3.2669,-3.2669,-3.2669,-3.2669,-3.2669,-3.2669,-3.2747,-3.3006,-3.3047,-3.2944,-3.3223,-3.3348,-3.3327,-3.2903,-3.2669,-3.2742,-3.3368,-3.3841,-3.4155,-3.4745,-3.5159,-3.5356,-3.5108,-3.4984,-3.4859,-3.461,-3.4423,-3.4235,-3.4235,-3.3985,-3.3733,-3.3733,-3.3607,-3.3418,-3.3418,-3.3418,-3.3418,-3.3418,-3.3418,-3.3418,-3.3418,-3.3418,-3.3418,-3.3418,-3.3418,-3.3418,-3.3418,-3.3418,-3.3418,-3.3418,-3.3418,-3.3418,-3.3418,-3.3418,-3.3418,-3.3418,-3.3418,-3.3418,-3.3418,-3.3418,-3.3418,-3.3418,-3.3418,-3.3418,-3.3418,-3.3418,-3.3418,-3.3418,-3.3418,-3.3418,-3.3418,-3.3418,-3.3418,-2.3653,-2.4682,-2.6251,-2.8134,-3.0595,-3.3458,-3.6897,-3.7939,-3.863,-4.0187,-3.8896,-3.7209,-3.6149,-3.6575,0.0,-3.2998,-3.5893,0.0,0.0,0.0,0.0,0.0,0.0,0.0,0.0,0.0,0.0,0.0,0.0,0.0,0.0,-3.8161,-3.7619,0.0,-3.5344,-3.448,-3.448,-3.3275,-3.2669,-3.2669,-3.2669,-3.2669,-3.2669,-3.2669,-3.2669,-3.2737,-3.2913,-3.3089,-3.3244,-3.3058,-3.3141,-3.3327,-3.2903,-3.2669,-3.2789,-3.3213,-3.3555,-3.3945,-3.4588,-3.4931,-3.5128,-3.5119,-3.5108,-3.5046,-3.4859,-3.4673,-3.4548,-3.4423,-3.4173,-3.3859,-3.3733,-3.3544,-3.3418,-3.3418,-3.3418,-3.3418,-3.3418,-3.3418,-3.3418,-3.3418,-3.3418,-3.3418,-3.3418,-3.3418,-3.3418,-3.3418,-3.3418,-3.3418,-3.3418,-3.3418,-3.3418,-3.3418,-3.3418,-3.3418,-3.3418,-3.3418,-3.3418,-3.3418,-3.3418,-3.3418,-3.3418,-3.3418,-3.3418,-3.3418,-3.3418,-3.3418,-3.3418,-3.3418,-3.3418,-3.3418,-3.3418,-3.3418,-2.5385,-2.6427,-2.7921,-3.0256,-3.224,-3.4675,-3.8768,-3.9697,-3.9848,-4.04,-3.9685,-3.8296,-3.6133,-3.7488,-3.75,-3.2955,-3.5423,0.0,0.0,0.0,0.0,0.0,0.0,0.0,0.0,0.0,0.0,0.0,0.0,0.0,0.0,-3.8594,-3.8003,-3.7897,-3.5893,-3.4747,-3.4636,-3.3434,-3.2784,0.0,-3.2669,-3.2669,-3.2669,-3.2669,-3.2669,-3.269,-3.3141,-3.3575,-3.4028,-3.3503,-3.3337,-3.3327,-3.2903,-3.2669,-3.2778,-3.3172,-3.3348,-3.3503,-3.4453,-3.4785,-3.4888,-3.5273,-3.5418,-3.5418,-3.5418,-3.517,-3.4859,-3.4548,-3.4173,-3.3859,-3.3544,-3.3418,-3.3418,-3.3418,-3.3418,-3.3418,-3.3418,-3.3418,-3.3418,-3.3418,-3.3418,-3.3418,-3.3418,-3.3418,-3.3418,-3.3418,-3.3418,-3.3418,-3.3418,-3.3418,-3.3418,-3.3418,-3.3418,-3.3418,-3.3418,-3.3418,-3.3418,-3.3418,-3.3418,-3.3418,-3.3418,-3.3418,-3.3418,-3.3418,-3.3418,-3.3418,-3.3418,-3.3418,-3.3418,-3.3418,-3.3418,-3.3447,-2.4845,-2.6427,-2.8674,-3.1775,-3.5102,-3.799,-3.9383,-3.9697,-3.9848,-4.04,-3.9986,-3.9084,-3.7664,-3.854,-3.8331,-3.4593,0.0,0.0,0.0,0.0,0.0,0.0,0.0,0.0,0.0,0.0,0.0,0.0,0.0,0.0,-3.8332,-3.8933,-3.8868,-3.795,-3.7406,-3.675,-3.587,-3.4681,-3.366,0.0,-3.2669,-3.2669,-3.2669,-3.2669,-3.2669,-3.2737,-3.283,-3.312,-3.3492,-3.3047,-3.3068,-3.3327,-3.2903,-3.2669,-3.269,-3.283,-3.3089,-3.3461,-3.402,-3.4515,-3.4888,-3.5273,-3.5418,-3.5418,-3.5418,-3.5356,-3.5232,-3.4859,-3.4548,-3.4235,-3.3859,-3.3607,-3.3418,-3.3418,-3.3418,-3.3418,-3.3418,-3.3418,-3.3418,-3.3418,-3.3418,-3.3418,-3.3418,-3.3418,-3.3418,-3.3418,-3.3418,-3.3418,-3.3418,-3.3418,-3.3418,-3.3418,-3.3418,-3.3418,-3.3418,-3.3418,-3.3418,-3.3418,-3.3418,-3.3418,-3.3418,-3.3418,-3.3418,-3.3418,-3.3418,-3.3418,-3.3418,-3.3418,-3.3418,-3.3418,-3.3418,-3.3603,-2.5172,-2.7231,-2.9829,-3.3684,-3.6571,-3.8605,-3.917,-3.9509,-3.9772,-4.0061,-3.9885,-3.931,-3.8108,-3.8881,-3.8554,0.0,0.0,0.0,0.0,0.0,0.0,0.0,0.0,0.0,0.0,0.0,0.0,0.0,0.0,-3.9426,-3.8816,-3.9362,-3.9413,-3.8764,-3.8214,-3.7607,-3.7007,-3.5344,-3.4201,-3.3547,-3.3001,-3.2669,-3.2669,-3.2669,-3.2669,-3.2669,-3.2669,-3.2861,-3.3047,-3.282,-3.2861,-3.3047,-3.282,-3.2669,-3.2669,-3.2669,-3.2871,-3.3161,-3.3834,-3.4287,-3.4598,-3.5211,-3.5418,-3.5418,-3.5418,-3.5418,-3.5356,-3.4984,-3.4673,-3.4298,-3.3985,-3.367,-3.3418,-3.3418,-3.3418,-3.3418,-3.3418,-3.3418,-3.3418,-3.3418,-3.3418,-3.3418,-3.3418,-3.3418,-3.3418,-3.3418,-3.3418,-3.3418,-3.3418,-3.3418,-3.3418,-3.3418,-3.3418,-3.3418,-3.3418,-3.3418,-3.3418,-3.3418,-3.3418,-3.3418,-3.3418,-3.3418,-3.3418,-3.3418,-3.3418,-3.3418,-3.3418,-3.3418,-3.3418,-3.3428,-3.3633,-3.3857,-2.5393,-2.8121,-3.1198,-3.5387,-3.7199,-3.8165,-3.8743,-3.922,-3.9584,-3.9672,-3.9697,-3.9362,-3.8384,-3.9037,-3.8712,0.0,0.0,0.0,0.0,0.0,0.0,0.0,0.0,0.0,0.0,0.0,0.0,0.0,0.0,-3.9193,-3.9362,-3.9362,-3.9428,-3.9559,-3.8577,-3.7858,-3.7476,-3.5593,-3.4504,-3.4201,-3.3172,-3.2669,-3.2669,-3.2669,-3.2669,-3.2669,-3.2669,-3.2669,-3.2669,-3.2669,-3.2669,-3.2669,-3.2669,-3.2669,-3.2669,-3.2669,-3.2669,-3.2861,-3.3751,-3.4132,-3.4217,-3.5128,-3.5418,-3.5418,-3.5418,-3.5418,-3.5294,-3.4922,-3.461,-3.4298,-3.3922,-3.3607,-3.3418,-3.3418,-3.3418,-3.3418,-3.3418,-3.3418,-3.3418,-3.3418,-3.3418,-3.3418,-3.3418,-3.3418,-3.3418,-3.3418,-3.3418,-3.3418,-3.3418,-3.3418,-3.3418,-3.3418,-3.3418,-3.3418,-3.3418,-3.3418,-3.3418,-3.3418,-3.3418,-3.3418,-3.3418,-3.3418,-3.3418,-3.3418,-3.3418,-3.3418,-3.3418,-3.3418,-3.3418,-3.3428,-3.3867,-3.4111,-2.3954,-2.8021,-3.2616,-3.5642,-3.7211,-3.8165,-3.8743,-3.8982,-3.912,-3.9597,-3.9697,-3.9645,-3.9478,-3.9581,0.0,0.0,0.0,0.0,0.0,0.0,0.0,0.0,0.0,0.0,0.0,0.0,0.0,0.0,-3.6684,-3.7115,-3.8108,-3.8161,-3.8387,-3.8994,-3.8867,-3.7795,-3.5756,-3.5436,-3.4482,-3.2955,-3.2784,-3.2669,-3.2669,-3.2669,-3.2669,-3.2669,-3.2669,-3.2669,-3.2669,-3.2669,-3.2669,-3.2669,-3.2669,-3.2669,-3.2669,-3.2669,-3.2669,-3.2861,-3.3751,-3.4132,-3.4217,-3.5128,-3.5418,-3.5418,-3.5418,-3.5418,-3.5294,-3.4673,-3.4423,-3.4235,-3.3607,-3.3418,-3.3418,-3.3418,-3.3418,-3.3418,-3.3418,-3.3418,-3.3418,-3.3418,-3.3418,-3.3418,-3.3418,-3.3418,-3.3418,-3.3418,-3.3418,-3.3418,-3.3418,-3.3418,-3.3418,-3.3418,-3.3418,-3.3418,-3.3418,-3.3418,-3.3418,-3.3418,-3.3418,-3.3418,-3.3418,-3.3418,-3.3418,-3.3418,-3.3418,-3.3418,-3.3418,-3.3418,-3.3418,-3.3428,-3.3867,-3.4267,-2.541,-2.8762,-3.2064,-3.5107,-3.6508,-3.7224,-3.7801,-3.8165,-3.8454,-3.8705,-3.9007,-3.932,-3.9634,-3.9697,0.0,0.0,0.0,0.0,0.0,0.0,0.0,0.0,0.0,0.0,0.0,0.0,0.0,0.0,-3.597,-3.6517,-3.7048,-3.7639,-3.8101,-3.8391,-3.8391,-3.7601,-3.5966,-3.5329,-3.4103,-3.2287,-3.2545,-3.2669,-3.2669,-3.2669,-3.2669,-3.2669,-3.2669,-3.2669,-3.2669,-3.2669,-3.2669,-3.2669,-3.2669,-3.2669,-3.2669,-3.2669,-3.2669,-3.282,-3.3461,-3.3903,-3.4235,-3.4838,-3.5221,-3.5418,-3.5418,-3.5418,-3.5294,-3.4797,-3.4548,-3.4298,-3.3796,-3.3544,-3.3418,-3.3418,-3.3418,-3.3418,-3.3418,-3.3418,-3.3418,-3.3418,-3.3418,-3.3418,-3.3418,-3.3623,-3.3701,-3.3457,-3.3633,-3.3701,-3.3447,-3.3418,-3.3418,-3.3418,-3.3418,-3.3418,-3.3418,-3.3418,-3.3418,-3.3418,-3.3418,-3.3418,-3.3418,-3.3418,-3.3418,-3.3418,-3.3418,-3.3418,-3.3418,-3.3418,-3.3418,-3.3437,-3.4111,-3.4521,-2.5473,-2.7858,-2.9903,-3.3213,-3.4914,-3.5965,-3.6609,-3.7299,-3.7839,0.0,-3.8354,-3.8781,-3.9182,0.0,0.0,0.0,0.0,0.0,0.0,0.0,0.0,0.0,0.0,0.0,0.0,0.0,0.0,0.0,-3.4838,-3.5263,-3.5573,-3.63,-3.6795,-3.6985,-3.7233,-3.6723,-3.5384,-3.4364,-3.3203,-3.1988,-3.2328,-3.2556,-3.2669,-3.2669,-3.2669,-3.2669,-3.2669,-3.2669,-3.2669,-3.2669,-3.2669,-3.2669,-3.2669,-3.2669,-3.2669,-3.2669,-3.2669,-3.2809,-3.3358,-3.3841,-3.4165,-3.4745,-3.5148,-3.5418,-3.5418,-3.5418,-3.5294,-3.4859,-3.461,-3.4298,-3.3859,-3.3607,-3.3418,-3.3418,-3.3418,-3.3418,-3.3418,-3.3418,-3.3418,-3.3418,-3.3418,-3.3418,-3.3418,-3.3779,-3.3965,-3.3633,-3.3867,-3.3955,-3.3633,-3.3486,-3.3418,-3.3418,-3.3418,-3.3418,-3.3418,-3.3418,-3.3467,-3.3584,-3.3584,-3.3633,-3.374,-3.375,-3.375,-3.375,-3.3643,-3.3535,-3.3418,-3.3418,-3.3418,-3.3447,-3.4297,-3.4697,-2.1942,-2.3841,-2.5925,-2.9264,-3.2077,-3.4311,-3.5345,-3.6458,-3.7374,-3.7902,-3.8027,-3.8065,-3.809,0.0,0.0,0.0,0.0,0.0,0.0,0.0,0.0,0.0,0.0,0.0,0.0,0.0,0.0,0.0,-3.2254,-3.2156,-3.323,-3.3336,-3.3642,-3.4208,-3.5206,-3.4692,-3.2548,-3.1879,-3.1698,-3.1988,-3.2008,-3.2246,-3.2669,-3.2669,-3.2669,-3.2669,-3.2669,-3.2669,-3.2669,-3.2669,-3.2669,-3.2669,-3.2669,-3.2669,-3.2669,-3.2669,-3.2669,-3.2861,-3.3731,-3.4111,-3.4217,-3.5097,-3.5407,-3.5418,-3.5418,-3.5418,-3.5232,-3.461,-3.4423,-3.4235,-3.3607,-3.3418,-3.3418,-3.3418,-3.3418,-3.3418,-3.3418,-3.3418,-3.3418,-3.3418,-3.3418,-3.3418,-3.3418,-3.3779,-3.4062,-3.4043,-3.4062,-3.4062,-3.4043,-3.3682,-3.3418,-3.3418,-3.3418,-3.3418,-3.3418,-3.3418,-3.3603,-3.4014,-3.4033,-3.4219,-3.4619,-3.4639,-3.4639,-3.4639,-3.4238,-3.3838,-3.3418,-3.3418,-3.3418,-3.3447,-3.4297,-3.4697,-2.1481,-2.3276,-2.5415,-2.8059,-3.0269,-3.2177,-3.3633,-3.509,-3.6135,-3.6335,-3.6985,-3.7475,0.0,0.0,0.0,0.0,0.0,0.0,0.0,0.0,0.0,0.0,0.0,0.0,0.0,0.0,0.0,0.0,0.0,-3.1693,-3.2099,-3.2811,-3.3243,-3.3476,-3.3865,-3.3353,-3.1888,-3.1264,-3.1019,-3.1174,-3.1709,-3.207,-3.2246,-3.2535,-3.2669,-3.2669,-3.2669,-3.2669,-3.2669,-3.2669,-3.2669,-3.2669,-3.2669,-3.2669,-3.2669,-3.2669,-3.2669,-3.282,-3.342,-3.3872,-3.4176,-3.4797,-3.519,-3.5418,-3.5418,-3.5232,-3.4984,-3.4548,-3.4235,-3.3985,-3.3544,-3.3418,-3.3418,-3.3418,-3.3418,-3.3418,-3.3418,-3.3643,-3.3838,-3.3838,-3.4062,-3.4238,-3.4238,-3.4619,-3.4726,-3.416,-3.456,-3.4717,-3.415,-3.3935,-3.3838,-3.3838,-3.3584,-3.3418,-3.3418,-3.3682,-3.3906,-3.4062,-3.4326,-3.4541,-3.4687,-3.4697,-3.4697,-3.4697,-3.4551,-3.4267,-3.3838,-3.3555,-3.3418,-3.3447,-3.4297,-3.4697,-2.0338,-2.2008,-2.428,-2.6666,-2.8247,-2.9892,-3.2533,-3.3771,-3.4593,-3.5345,-3.6072,-3.6684,0.0,0.0,0.0,0.0,0.0,0.0,0.0,0.0,0.0,0.0,0.0,0.0,0.0,0.0,0.0,0.0,0.0,0.0,-3.1084,-3.175,-3.2297,-3.265,-3.2297,-3.1942,-3.1575,-3.0853,-3.0532,-3.0698,-3.1298,-3.1671,-3.1836,-3.2235,-3.2442,-3.2452,-3.2607,-3.2669,-3.2669,-3.2669,-3.2669,-3.2669,-3.2669,-3.2669,-3.2669,-3.2669,-3.2669,-3.282,-3.341,-3.3813,-3.4225,-3.4786,-3.518,-3.5356,-3.5294,-3.5108,-3.4797,-3.436,-3.4173,-3.3985,-3.3544,-3.3418,-3.3418,-3.3418,-3.3535,-3.3643,-3.3643,-3.3867,-3.4072,-3.4072,-3.4414,-3.4697,-3.4697,-3.5088,-3.5195,-3.4609,-3.5019,-3.5185,-3.459,-3.4258,-3.4072,-3.4072,-3.3682,-3.3476,-3.3633,-3.3906,-3.4199,-3.4502,-3.4775,-3.499,-3.5137,-3.5146,-3.5146,-3.5146,-3.5,-3.4717,-3.4287,-3.3848,-3.3643,-3.3652,-3.4365,-3.4863,0.0,0.0,0.0,-2.4808,-2.5946,-2.7542,-3.1905,-3.2441,-3.2704,-3.4931,-3.5395,-3.5583,0.0,0.0,0.0,0.0,0.0,0.0,0.0,0.0,0.0,0.0,0.0,0.0,0.0,0.0,0.0,0.0,-2.9994,-2.9994,-2.9994,-2.9994,-3.0495,-3.1524,-3.0536,-3.0495,-3.1524,-3.0536,-3.0222,-3.0667,-3.0677,-3.0915,-3.1371,-3.1816,-3.1977,-3.2008,-3.2463,-3.2659,-3.2669,-3.2669,-3.2669,-3.2669,-3.2669,-3.2669,-3.2669,-3.2669,-3.2669,-3.2861,-3.3751,-3.4132,-3.4217,-3.5128,-3.5418,-3.5356,-3.4984,-3.4922,-3.4735,-3.411,-3.4173,-3.4235,-3.3544,-3.3418,-3.3418,-3.3418,-3.375,-3.4072,-3.4072,-3.4092,-3.4111,-3.4111,-3.4453,-3.4736,-3.4736,-3.5117,-3.541,-3.5391,-3.5391,-3.5391,-3.5391,-3.4629,-3.4092,-3.4111,-3.3721,-3.3633,-3.4053,-3.4101,-3.4482,-3.5342,-3.54,-3.5596,-3.6006,-3.6016,-3.6016,-3.6016,-3.5625,-3.5185,-3.4717,-3.4287,-3.4072,-3.4082,-3.4521,-3.5185,-1.9033,0.0,0.0,0.0,0.0,0.0,0.0,0.0,-2.9503,-3.2516,-3.3088,-3.3627,0.0,0.0,0.0,0.0,0.0,0.0,0.0,0.0,0.0,0.0,0.0,0.0,0.0,0.0,0.0,0.0,-2.9994,-2.9994,-2.9994,-2.9994,-3.0151,-3.0443,-3.0141,-3.0141,-3.0443,-3.0141,-3.0056,-3.0191,-3.0532,-3.076,-3.0895,-3.135,-3.1733,-3.1988,-3.2122,-3.237,-3.2669,-3.2669,-3.2669,-3.2669,-3.2669,-3.2669,-3.2669,-3.2669,-3.2669,-3.2861,-3.3751,-3.4132,-3.4217,-3.5128,-3.5418,-3.5356,-3.5294,-3.5108,-3.4797,-3.436,-3.4173,-3.3922,-3.3481,-3.3418,-3.3418,-3.3418,-3.375,-3.4072,-3.4072,-3.458,-3.5029,-3.5029,-3.5371,-3.5654,-3.5654,-3.5762,-3.5742,-3.5439,-3.5391,-3.5391,-3.5391,-3.4883,-3.4658,-3.499,-3.4619,-3.4394,-3.4512,-3.4834,-3.5137,-3.5371,-3.5674,-3.5898,-3.6016,-3.6016,-3.6016,-3.6016,-3.5908,-3.5635,-3.5205,-3.4443,-3.4072,-3.4092,-3.4844,-3.5498,-2.0288,-2.0928,-2.2058,-2.2975,0.0,0.0,-2.6289,-2.6779,-2.7582,0.0,-3.1863,0.0,0.0,0.0,0.0,0.0,0.0,0.0,0.0,0.0,0.0,0.0,0.0,0.0,0.0,-3.0836,-3.0692,-3.0047,-2.9994,-2.9994,-2.9994,-2.9994,-2.9994,-2.9994,-2.9994,-2.9994,-2.9994,-2.9994,-2.9994,-3.0005,-3.0274,-3.0398,-3.0419,-3.0874,-3.1329,-3.1774,-3.1905,-3.2246,-3.2669,-3.2669,-3.2669,-3.2669,-3.2669,-3.2669,-3.2669,-3.2669,-3.284,-3.3099,-3.3824,-3.4256,-3.4476,-3.519,-3.5418,-3.5356,-3.5232,-3.5046,-3.4797,-3.436,-3.3922,-3.3733,-3.3796,-3.3607,-3.3418,-3.3418,-3.3887,-3.4336,-3.4336,-3.5029,-3.5605,-3.543,-3.5732,-3.6016,-3.6016,-3.6016,-3.5937,-3.5693,-3.5654,-3.5654,-3.5654,-3.5264,-3.5019,-3.5098,-3.4863,-3.4697,-3.4697,-3.5127,-3.5469,-3.5644,-3.5879,-3.6016,-3.6016,-3.6016,-3.6016,-3.6016,-3.6016,-3.581,-3.5391,-3.4873,-3.4619,-3.4639,-3.5332,-3.5791,-2.1907,-2.2133,-2.2949,-2.4858,-2.3527,0.0,-2.713,-2.6666,-2.6352,0.0,0.0,0.0,0.0,0.0,0.0,0.0,0.0,0.0,0.0,0.0,0.0,0.0,0.0,0.0,-3.1728,-3.0836,-3.0245,-2.9994,-2.9994,-2.9994,-2.9994,-2.9994,-2.9994,-2.9994,-2.9994,-2.9994,-2.9994,-2.9994,-2.9994,-2.9994,-2.9994,-2.9994,-3.0015,-3.047,-3.0936,-3.1402,-3.1847,-3.2246,-3.2669,-3.2669,-3.2669,-3.2669,-3.2669,-3.2669,-3.2669,-3.2669,-3.3006,-3.3451,-3.3966,-3.4432,-3.4888,-3.5273,-3.5418,-3.5356,-3.5046,-3.4984,-3.4797,-3.4173,-3.3733,-3.3607,-3.4173,-3.3859,-3.3418,-3.3418,-3.4082,-3.4697,-3.4697,-3.5391,-3.5908,-3.5537,-3.5762,-3.6016,-3.6016,-3.6016,-3.6016,-3.6016,-3.5937,-3.5908,-3.6006,-3.5566,-3.5127,-3.4805,-3.4775,-3.4775,-3.4775,-3.5195,-3.5625,-3.5996,-3.6016,-3.6016,-3.6016,-3.6016,-3.6016,-3.6016,-3.6016,-3.584,-3.5459,-3.542,-3.5391,-3.54,-3.583,-3.6016,-2.354,-2.359,-2.3665,-2.3597,0.0,0.0,-2.3025,-2.3288,-2.4173,0.0,-2.6728,0.0,0.0,0.0,0.0,0.0,0.0,0.0,0.0,0.0,0.0,0.0,0.0,0.0,-3.1779,-3.2196,-3.1852,-3.0151,-2.9994,-2.9994,-2.9994,-2.9994,-2.9994,-2.9994,-2.9994,-2.9994,-2.9994,-2.9994,-2.9994,-2.9994,-2.9994,-2.9994,-3.0015,-3.047,-3.0936,-3.1402,-3.1847,-3.2246,-3.2669,-3.2669,-3.2669,-3.2669,-3.2669,-3.2669,-3.2669,-3.2669,-3.3006,-3.3451,-3.3966,-3.4432,-3.4888,-3.5273,-3.5418,-3.5366,-3.5294,-3.5294,-3.517,-3.4485,-3.4047,-3.3796,-3.3607,-3.3481,-3.3418,-3.3418,-3.4082,-3.4697,-3.4697,-3.5391,-3.5996,-3.5908,-3.5967,-3.6016,-3.6016,-3.6016,-3.6016,-3.6016,-3.541,-3.5215,-3.5928,-3.5029,-3.457,-3.5195,-3.5264,-3.5264,-3.5264,-3.5644,-3.5937,-3.6016,-3.6016,-3.6016,-3.6016,-3.6016,-3.6016,-3.6016,-3.6016,-3.5976,-3.5898,-3.5557,-3.5391,-3.54,-3.583,-3.6016,-2.487,-2.4607,-2.4469,-2.4732,0.0,0.0,0.0,0.0,-2.3351,-2.5607,-2.5372,0.0,0.0,0.0,0.0,0.0,0.0,0.0,0.0,0.0,0.0,0.0,0.0,0.0,-3.2874,-3.2316,-3.1436,-3.0078,-2.9994,-2.9994,-2.9994,-2.9994,-2.9994,-2.9994,-2.9994,-2.9994,-2.9994,-2.9994,-2.9994,-2.9994,-2.9994,-3.0118,-3.0346,-3.0584,-3.106,-3.1723,-3.1884,-3.2246,-3.2669,-3.2669,-3.2669,-3.2669,-3.2669,-3.2669,-3.2669,-3.2669,-3.3151,-3.3751,-3.4049,-3.4517,-3.5128,-3.5345,-3.5418,-3.5418,-3.5418,-3.5294,-3.5108,-3.4735,-3.4298,-3.3859,-3.367,-3.3544,-3.3418,-3.3418,-3.3916,-3.4385,-3.4385,-3.4902,-3.543,-3.5664,-3.5703,-3.5771,-3.5986,-3.6016,-3.6016,-3.6016,-3.5469,-3.5205,-3.5644,-3.4932,-3.4473,-3.4707,-3.4922,-3.5049,-3.5049,-3.5449,-3.5801,-3.6006,-3.6016,-3.6016,-3.6016,-3.6016,-3.6016,-3.6016,-3.6016,-3.6016,-3.6016,-3.581,-3.5703,-3.5713,-3.5928,-3.6016,0.0,0.0,0.0,0.0,0.0,-2.4211,0.0,0.0,0.0,0.0,0.0,0.0,0.0,0.0,0.0,0.0,0.0,0.0,0.0,0.0,0.0,0.0,0.0,0.0,0.0,-3.1334,-2.9917,-2.9725,-2.9487,-2.9487,-2.9849,-2.986,-2.9901,-2.9994,-2.9994,-2.9994,-2.9994,-2.9994,-2.9994,-2.9994,-2.9994,-3.0243,-3.0688,-3.0781,-3.1267,-3.1988,-3.2081,-3.2328,-3.2669,-3.2669,-3.2669,-3.2669,-3.2669,-3.2669,-3.2669,-3.2669,-3.3244,-3.4007,-3.41,-3.46,-3.5304,-3.5387,-3.5418,-3.5366,-3.5294,-3.5108,-3.4859,-3.4735,-3.4298,-3.3859,-3.3796,-3.3607,-3.3418,-3.3418,-3.375,-3.4072,-3.4072,-3.4404,-3.4805,-3.5185,-3.5332,-3.5527,-3.5947,-3.6016,-3.5986,-3.5908,-3.5537,-3.5264,-3.5264,-3.4785,-3.4355,-3.4101,-3.4375,-3.4609,-3.4687,-3.5127,-3.5566,-3.5986,-3.6016,-3.6016,-3.6016,-3.6016,-3.6016,-3.6016,-3.6016,-3.6016,-3.6016,-3.6016,-3.6016,-3.6016,-3.6016,-3.6016,0.0,0.0,0.0,0.0,-2.6489,0.0,0.0,0.0,0.0,0.0,0.0,0.0,0.0,0.0,0.0,0.0,0.0,0.0,0.0,0.0,0.0,0.0,0.0,0.0,0.0,-2.8682,-2.754,-2.8669,-2.7645,-2.7665,-2.9301,-2.9384,-2.957,-2.9984,-2.9994,-2.9994,-2.9994,-2.9994,-2.9994,-2.9994,-2.9994,-3.0243,-3.0698,-3.1112,-3.1567,-3.2008,-3.2421,-3.2628,-3.2669,-3.2669,-3.2669,-3.2669,-3.2669,-3.2669,-3.2669,-3.2669,-3.3037,-3.3513,-3.3986,-3.4463,-3.4961,-3.5293,-3.5418,-3.5356,-3.5046,-3.4922,-3.4797,-3.4173,-3.3985,-3.3859,-3.3544,-3.3418,-3.3418,-3.3418,-3.375,-3.4072,-3.4072,-3.4404,-3.4717,-3.4766,-3.5107,-3.5527,-3.5947,-3.6016,-3.5898,-3.5517,-3.5078,-3.4775,-3.4775,-3.4072,-3.3701,-3.4033,-3.4111,-3.4297,-3.4668,-3.5127,-3.5566,-3.5986,-3.6016,-3.6016,-3.6016,-3.6016,-3.6016,-3.6016,-3.6016,-3.6016,-3.6016,-3.6016,-3.6016,-3.6016,-3.6016,-3.6016,0.0,0.0,0.0,0.0,0.0,0.0,-2.428,0.0,-2.3351,0.0,0.0,0.0,0.0,0.0,0.0,0.0,0.0,0.0,0.0,0.0,0.0,0.0,0.0,0.0,0.0,0.0,0.0,0.0,-2.7044,-2.7127,-2.8431,-2.9011,-2.9394,-2.9591,-2.986,-2.9994,-2.9994,-2.9994,-2.9994,-2.9994,-2.9994,-3.0243,-3.0698,-3.0884,-3.1226,-3.1681,-3.2137,-3.2277,-3.2287,-3.2566,-3.2669,-3.2669,-3.2669,-3.2669,-3.2669,-3.2669,-3.3006,-3.3451,-3.3966,-3.4432,-3.4888,-3.5273,-3.5294,-3.5108,-3.4922,-3.4735,-3.4485,-3.4047,-3.3922,-3.3796,-3.3481,-3.3418,-3.3418,-3.3418,-3.3564,-3.3691,-3.3691,-3.3828,-3.4111,-3.46,-3.4853,-3.5215,-3.5898,-3.582,-3.5596,-3.542,-3.4785,-3.4336,-3.4336,-3.3799,-3.3496,-3.3672,-3.3691,-3.3965,-3.4639,-3.4883,-3.5283,-3.5976,-3.6016,-3.6016,-3.6016,-3.6016,-3.6016,-3.6016,-3.6016,-3.6016,-3.6016,-3.6016,-3.6016,-3.6016,-3.6016,-3.6016,-2.8787,0.0,0.0,0.0,0.0,0.0,0.0,0.0,0.0,0.0,0.0,0.0,0.0,0.0,0.0,0.0,0.0,0.0,0.0,0.0,0.0,0.0,0.0,0.0,0.0,0.0,0.0,0.0,0.0,-2.6123,-2.7655,-2.838,-2.8918,-2.929,-2.9632,-2.987,-2.9994,-2.9994,-2.9994,-2.9994,-2.9994,-3.0243,-3.0688,-3.0688,-3.0936,-3.1402,-3.1847,-3.1988,-3.2019,-3.2483,-3.2669,-3.2669,-3.2669,-3.2669,-3.2669,-3.2669,-3.2934,-3.3285,-3.3865,-3.4455,-3.4993,-3.5191,-3.5108,-3.4859,-3.4673,-3.4485,-3.4173,-3.3859,-3.3733,-3.3733,-3.3481,-3.3418,-3.3418,-3.3418,-3.3418,-3.3457,-3.3574,-3.3603,-3.3818,-3.456,-3.4805,-3.5088,-3.5742,-3.5693,-3.5478,-3.5234,-3.4658,-3.416,-3.3926,-3.3613,-3.3418,-3.3418,-3.3418,-3.3769,-3.4629,-3.4697,-3.5078,-3.5957,-3.6016,-3.6016,-3.6016,-3.6016,-3.6016,-3.6016,-3.6016,-3.6016,-3.6016,-3.6016,-3.6016,-3.6016,-3.6016,-3.6016,0.0,0.0,0.0,-2.7348,0.0,0.0,0.0,0.0,-2.5209,0.0,0.0,0.0,0.0,0.0,0.0,0.0,0.0,0.0,0.0,0.0,0.0,0.0,0.0,0.0,0.0,0.0,0.0,0.0,0.0,0.0,-2.7164,-2.7361,-2.7983,-2.9259,-2.9321,-2.9539,-2.9994,-2.9994,-2.9994,-2.9994,-2.9994,-3.0243,-3.0688,-3.0688,-3.0936,-3.1402,-3.1847,-3.1988,-3.2019,-3.2483,-3.2669,-3.2669,-3.2669,-3.2669,-3.2669,-3.2669,-3.2737,-3.2871,-3.3762,-3.4652,-3.5335,-3.5046,-3.4922,-3.4797,-3.411,-3.3922,-3.3859,-3.3481,-3.3418,-3.3418,-3.3418,-3.3418,-3.3418,-3.3418,-3.3418,-3.3535,-3.3965,-3.4053,-3.418,-3.4609,-3.5068,-3.5381,-3.541,-3.5742,-3.5713,-3.4853,-3.4697,-3.4385,-3.3545,-3.3428,-3.3418,-3.3418,-3.3418,-3.3769,-3.4629,-3.4697,-3.5078,-3.5957,-3.6016,-3.6016,-3.6016,-3.6016,-3.6016,-3.6016,-3.6016,-3.6016,-3.6016,-3.6016,-3.6016,-3.6016,-3.6016,-3.6016,0.0,0.0,-3.2125,-2.8724,0.0,0.0,0.0,0.0,0.0,0.0,0.0,0.0,0.0,0.0,0.0,0.0,0.0,0.0,0.0,0.0,0.0,0.0,0.0,0.0,0.0,0.0,0.0,0.0,-2.2956,0.0,0.0,-2.6646,-2.7614,-2.8369,-2.899,-2.9528,-2.9994,-2.9994,-2.9994,-2.9994,-2.9994,-3.0077,-3.0232,-3.0232,-3.0315,-3.0501,-3.1267,-3.1598,-3.1661,-3.2416,-3.2669,-3.2669,-3.2669,-3.2669,-3.2669,-3.2669,-3.2669,-3.2861,-3.3751,-3.4541,-3.5046,-3.4922,-3.461,-3.4173,-3.3985,-3.3733,-3.3544,-3.3418,-3.3418,-3.3418,-3.3418,-3.3418,-3.3418,-3.3418,-3.3418,-3.3457,-3.3613,-3.3867,-3.4199,-3.4619,-3.5078,-3.5478,-3.5762,-3.5928,-3.583,-3.5244,-3.4892,-3.459,-3.4307,-3.4267,-3.4267,-3.4267,-3.4014,-3.4209,-3.5078,-3.541,-3.5703,-3.6006,-3.6016,-3.6016,-3.6016,-3.6016,-3.6016,-3.6016,-3.6016,-3.6016,-3.6016,-3.6016,-3.6016,-3.6016,-3.6016,-3.6016,-3.0859,-3.2079,0.0,-2.9307,-2.8774,0.0,-2.4777,0.0,0.0,0.0,0.0,0.0,0.0,0.0,0.0,0.0,0.0,0.0,0.0,0.0,0.0,0.0,0.0,0.0,0.0,0.0,-2.0928,-2.1745,-2.1911,0.0,0.0,0.0,-2.6962,-2.7893,-2.8659,-2.9363,-2.9984,-2.9994,-2.9994,-2.9994,-2.9994,-2.9994,-2.9994,-2.9994,-2.9994,-3.0046,-3.0977,-3.1381,-3.1443,-3.2354,-3.2669,-3.2669,-3.2669,-3.2669,-3.2669,-3.2669,-3.2934,-3.3285,-3.3865,-3.4541,-3.5046,-3.4922,-3.461,-3.4235,-3.411,-3.3922,-3.3733,-3.3607,-3.3607,-3.3544,-3.3418,-3.3418,-3.3418,-3.3418,-3.3545,-3.3691,-3.3848,-3.4228,-3.4668,-3.5088,-3.541,-3.5703,-3.5976,-3.6016,-3.5879,-3.5459,-3.5137,-3.4883,-3.4717,-3.4697,-3.4697,-3.4697,-3.4453,-3.459,-3.5332,-3.5781,-3.6016,-3.6016,-3.6016,-3.6016,-3.6016,-3.6016,-3.6016,-3.6016,-3.6016,-3.6016,-3.6016,-3.6016,-3.6016,-3.6016,-3.6016,-3.6016]},{"header":{"parameterUnit":"m.s-1","parameterCategory":1,"la1":30.6,"la2":29.2853,"lo1":-89.7004,"lo2":-87.6739,"dy":0.0162,"dx":0.0183,"nx":112,"ny":82,"refTime":"2026-03-02T12:00:00:Z","depth":0,"parameterNumber":3,"parameterNumberName":"V-component_of_WINDS"},"data":[0.0,0.0,0.0,0.0,0.0,0.0,0.0,0.0,0.0,0.0,0.0,0.0,0.0,0.0,0.0,0.0,0.0,0.0,0.0,0.0,0.0,0.0,0.0,0.0,0.0,0.0,0.0,0.0,0.0,0.0,0.0,0.0,0.0,0.0,0.0,0.0,0.0,0.0,0.0,0.0,0.0,0.0,0.0,0.0,0.0,0.0,0.0,0.0,0.0,0.0,0.0,0.0,0.0,0.0,0.0,0.0,0.0,0.0,0.0,0.0,0.0,0.0,0.0,0.0,0.0,0.0,0.0,0.0,0.0,0.0,0.0,0.0,0.0,0.0,0.0,0.0,0.0,0.0,0.0,0.0,0.0,0.0,0.0,0.0,0.0,0.0,0.0,0.0,0.0,0.0,2.7926,3.048,3.4277,3.6542,3.6387,3.6312,3.4145,2.9239,0.0,0.0,0.0,0.0,0.0,0.0,0.0,0.0,0.0,0.0,0.0,0.0,0.0,0.0,0.0,0.0,0.0,0.0,0.0,0.0,0.0,0.0,0.0,0.0,0.0,0.0,0.0,0.0,0.0,0.0,0.0,0.0,0.0,0.0,0.0,0.0,0.0,0.0,0.0,0.0,0.0,0.0,0.0,0.0,0.0,0.0,0.0,0.0,0.0,0.0,0.0,0.0,0.0,0.0,0.0,0.0,0.0,0.0,0.0,0.0,0.0,0.0,0.0,0.0,0.0,0.0,0.0,0.0,0.0,0.0,0.0,0.0,0.0,0.0,0.0,0.0,0.0,0.0,0.0,0.0,0.0,0.0,0.0,0.0,0.0,0.0,0.0,0.0,0.0,0.0,0.0,0.0,0.0,0.0,0.0,0.0,0.0,0.0,0.0,0.0,0.0,0.0,0.0,0.0,2.855,3.4795,3.7525,3.843,3.7302,3.6756,3.448,2.9754,0.0,0.0,0.0,0.0,0.0,0.0,0.0,0.0,0.0,0.0,0.0,0.0,0.0,0.0,0.0,0.0,0.0,0.0,0.0,0.0,0.0,0.0,0.0,0.0,0.0,0.0,0.0,0.0,0.0,0.0,0.0,0.0,0.0,0.0,0.0,0.0,0.0,0.0,0.0,0.0,0.0,0.0,0.0,0.0,0.0,0.0,0.0,0.0,0.0,0.0,0.0,0.0,0.0,0.0,0.0,0.0,0.0,0.0,0.0,0.0,0.0,0.0,0.0,0.0,0.0,0.0,0.0,0.0,0.0,0.0,0.0,0.0,0.0,0.0,0.0,0.0,0.0,0.0,0.0,0.0,0.0,0.0,0.0,0.0,0.0,0.0,0.0,0.0,0.0,0.0,0.0,0.0,0.0,0.0,0.0,0.0,0.0,0.0,0.0,0.0,0.0,0.0,0.0,2.883,3.1574,3.6971,3.8661,3.8871,3.7524,3.6851,3.4548,2.9906,2.7824,0.0,0.0,0.0,0.0,0.0,0.0,0.0,0.0,0.0,0.0,0.0,0.0,0.0,0.0,0.0,0.0,0.0,0.0,0.0,0.0,0.0,0.0,0.0,0.0,0.0,0.0,0.0,0.0,0.0,0.0,0.0,0.0,0.0,0.0,0.0,0.0,0.0,0.0,0.0,0.0,0.0,0.0,0.0,0.0,0.0,0.0,0.0,0.0,0.0,0.0,0.0,0.0,0.0,0.0,0.0,0.0,0.0,0.0,0.0,0.0,0.0,0.0,0.0,0.0,0.0,0.0,0.0,0.0,0.0,0.0,0.0,0.0,0.0,0.0,0.0,0.0,0.0,0.0,0.0,0.0,0.0,0.0,0.0,0.0,0.0,0.0,0.0,0.0,0.0,0.0,0.0,0.0,0.0,0.0,0.0,0.0,0.0,0.0,0.0,0.0,0.0,0.0,3.2647,3.4547,3.8018,3.9005,3.8871,3.7524,3.6585,3.4204,2.9876,2.7435,0.0,0.0,0.0,0.0,0.0,0.0,0.0,0.0,0.0,0.0,0.0,0.0,0.0,0.0,0.0,0.0,0.0,0.0,0.0,0.0,0.0,0.0,0.0,0.0,0.0,0.0,0.0,0.0,0.0,0.0,0.0,0.0,0.0,0.0,0.0,0.0,0.0,0.0,0.0,0.0,0.0,0.0,0.0,0.0,0.0,0.0,0.0,0.0,0.0,0.0,0.0,0.0,0.0,0.0,0.0,0.0,0.0,0.0,0.0,0.0,0.0,0.0,0.0,0.0,0.0,0.0,0.0,0.0,0.0,0.0,0.0,0.0,0.0,0.0,0.0,0.0,0.0,0.0,0.0,0.0,0.0,0.0,0.0,0.0,0.0,0.0,0.0,0.0,0.0,0.0,0.0,0.0,0.0,0.0,0.0,0.0,0.0,0.0,0.0,0.0,0.0,0.0,3.3006,3.6088,3.8167,3.9005,3.8871,3.7524,3.5829,3.3337,2.9816,2.6654,0.0,0.0,0.0,0.0,0.0,0.0,0.0,0.0,0.0,0.0,0.0,0.0,0.0,0.0,0.0,0.0,0.0,0.0,0.0,0.0,0.0,0.0,0.0,0.0,0.0,0.0,0.0,0.0,0.0,0.0,0.0,0.0,0.0,0.0,0.0,0.0,0.0,0.0,0.0,0.0,0.0,0.0,0.0,0.0,0.0,0.0,0.0,0.0,0.0,0.0,0.0,0.0,0.0,0.0,0.0,0.0,0.0,0.0,0.0,0.0,0.0,0.0,0.0,0.0,0.0,0.0,0.0,0.0,0.0,0.0,0.0,0.0,0.0,0.0,0.0,0.0,0.0,0.0,0.0,0.0,0.0,0.0,0.0,0.0,0.0,0.0,0.0,0.0,0.0,0.0,0.0,0.0,0.0,0.0,0.0,0.0,0.0,0.0,0.0,0.0,0.0,0.0,3.3006,3.5716,0.0,3.9632,3.9239,3.7896,3.6766,3.4318,2.9997,0.0,0.0,0.0,0.0,0.0,0.0,0.0,0.0,0.0,0.0,0.0,0.0,0.0,0.0,0.0,0.0,0.0,0.0,0.0,0.0,0.0,0.0,0.0,0.0,0.0,0.0,0.0,0.0,0.0,0.0,0.0,0.0,0.0,0.0,0.0,0.0,0.0,0.0,0.0,0.0,0.0,0.0,0.0,0.0,0.0,0.0,0.0,0.0,0.0,0.0,0.0,0.0,0.0,0.0,0.0,0.0,0.0,0.0,0.0,0.0,0.0,0.0,0.0,0.0,0.0,0.0,0.0,0.0,0.0,0.0,0.0,0.0,0.0,0.0,0.0,0.0,0.0,0.0,0.0,0.0,0.0,0.0,0.0,0.0,0.0,0.0,0.0,0.0,0.0,0.0,0.0,0.0,0.0,0.0,0.0,0.0,0.0,0.0,0.0,0.0,0.0,0.0,3.0525,3.3109,3.5832,0.0,3.9874,3.9464,3.8129,3.6841,3.4228,2.9826,0.0,0.0,0.0,0.0,0.0,0.0,0.0,0.0,0.0,0.0,0.0,0.0,0.0,0.0,0.0,0.0,0.0,0.0,0.0,0.0,0.0,0.0,0.0,0.0,0.0,0.0,0.0,0.0,0.0,0.0,0.0,0.0,0.0,0.0,0.0,0.0,0.0,0.0,0.0,0.0,0.0,0.0,0.0,0.0,0.0,0.0,0.0,0.0,0.0,0.0,0.0,0.0,0.0,0.0,0.0,0.0,0.0,0.0,0.0,0.0,0.0,0.0,0.0,0.0,0.0,0.0,0.0,0.0,0.0,0.0,0.0,0.0,0.0,0.0,0.0,0.0,0.0,0.0,0.0,0.0,0.0,0.0,0.0,0.0,0.0,0.0,0.0,0.0,0.0,0.0,0.0,0.0,0.0,0.0,0.0,0.0,0.0,0.0,0.0,0.0,0.0,0.0,2.9496,3.3469,3.6795,3.8816,3.9636,3.9484,3.8162,3.572,3.2732,0.0,0.0,0.0,0.0,0.0,0.0,0.0,0.0,0.0,0.0,0.0,0.0,0.0,0.0,0.0,0.0,0.0,0.0,0.0,0.0,0.0,0.0,0.0,0.0,0.0,0.0,0.0,0.0,0.0,0.0,0.0,0.0,0.0,0.0,0.0,0.0,0.0,0.0,0.0,0.0,0.0,0.0,0.0,0.0,0.0,0.0,0.0,0.0,0.0,0.0,0.0,0.0,0.0,0.0,0.0,0.0,0.0,0.0,0.0,0.0,0.0,0.0,0.0,0.0,0.0,0.0,0.0,0.0,0.0,0.0,0.0,0.0,0.0,0.0,0.0,0.0,0.0,0.0,0.0,0.0,0.0,0.0,0.0,0.0,0.0,0.0,0.0,0.0,0.0,0.0,0.0,0.0,0.0,0.0,0.0,0.0,0.0,0.0,0.0,0.0,0.0,0.0,0.0,3.0941,3.5011,3.8326,4.0452,4.1325,4.1199,3.9815,3.8093,3.4979,3.0094,0.0,0.0,0.0,0.0,0.0,0.0,0.0,0.0,0.0,0.0,0.0,0.0,0.0,0.0,0.0,0.0,0.0,0.0,0.0,0.0,0.0,0.0,0.0,0.0,0.0,0.0,0.0,0.0,0.0,0.0,0.0,0.0,0.0,0.0,0.0,0.0,0.0,0.0,0.0,0.0,0.0,0.0,0.0,0.0,0.0,0.0,0.0,0.0,0.0,0.0,0.0,0.0,0.0,0.0,0.0,0.0,0.0,0.0,0.0,0.0,0.0,0.0,0.0,0.0,0.0,0.0,0.0,0.0,0.0,0.0,0.0,0.0,0.0,0.0,0.0,0.0,0.0,0.0,0.0,0.0,0.0,0.0,0.0,0.0,0.0,0.0,0.0,0.0,0.0,0.0,0.0,0.0,0.0,0.0,0.0,0.0,0.0,0.0,0.0,0.0,0.0,0.0,3.1087,3.5482,3.8904,4.0792,4.1907,4.1923,4.0515,3.9104,3.605,3.0766,0.0,0.0,0.0,0.0,0.0,0.0,0.0,0.0,0.0,0.0,0.0,0.0,0.0,0.0,0.0,0.0,0.0,0.0,0.0,0.0,0.0,0.0,0.0,0.0,0.0,0.0,0.0,0.0,0.0,0.0,0.0,0.0,0.0,0.0,0.0,0.0,0.0,0.0,0.0,0.0,0.0,0.0,0.0,0.0,0.0,0.0,0.0,0.0,0.0,0.0,0.0,0.0,0.0,0.0,0.0,0.0,0.0,0.0,0.0,0.0,0.0,0.0,0.0,0.0,0.0,0.0,0.0,0.0,0.0,0.0,0.0,0.0,0.0,0.0,0.0,0.0,0.0,0.0,0.0,0.0,0.0,0.0,0.0,0.0,0.0,0.0,0.0,0.0,0.0,0.0,0.0,0.0,0.0,0.0,0.0,0.0,0.0,0.0,0.0,0.0,0.0,0.0,3.0563,3.5389,3.9016,4.0417,4.1766,4.2026,4.0677,3.9276,3.6375,3.1411,0.0,0.0,0.0,0.0,0.0,0.0,0.0,0.0,0.0,0.0,0.0,0.0,0.0,0.0,0.0,0.0,0.0,0.0,0.0,0.0,0.0,0.0,0.0,0.0,0.0,0.0,0.0,0.0,0.0,0.0,0.0,0.0,0.0,0.0,0.0,0.0,0.0,0.0,0.0,0.0,0.0,0.0,0.0,0.0,0.0,0.0,0.0,0.0,0.0,0.0,0.0,0.0,0.0,0.0,0.0,0.0,0.0,0.0,0.0,0.0,3.4153,0.0,0.0,0.0,0.0,0.0,0.0,0.0,0.0,0.0,0.0,0.0,0.0,0.0,0.0,0.0,0.0,0.0,0.0,0.0,0.0,0.0,0.0,0.0,0.0,0.0,0.0,0.0,0.0,0.0,0.0,0.0,0.0,0.0,0.0,0.0,0.0,0.0,0.0,0.0,0.0,0.0,3.1863,3.6677,4.0282,4.1724,4.268,4.2864,4.1959,4.056,3.7644,3.2785,3.0359,0.0,0.0,0.0,0.0,0.0,0.0,0.0,0.0,0.0,0.0,0.0,0.0,0.0,0.0,0.0,0.0,0.0,0.0,0.0,0.0,0.0,0.0,0.0,0.0,0.0,0.0,0.0,0.0,0.0,0.0,0.0,0.0,0.0,0.0,0.0,0.0,0.0,0.0,0.0,0.0,0.0,0.0,0.0,0.0,0.0,0.0,0.0,0.0,0.0,0.0,0.0,0.0,0.0,0.0,0.0,0.0,0.0,0.0,0.0,0.0,3.6282,0.0,0.0,0.0,0.0,0.0,0.0,0.0,0.0,0.0,0.0,0.0,0.0,0.0,0.0,0.0,0.0,0.0,0.0,0.0,0.0,0.0,0.0,0.0,0.0,0.0,0.0,0.0,0.0,0.0,0.0,0.0,0.0,0.0,0.0,0.0,0.0,0.0,0.0,0.0,0.0,3.2555,3.6892,4.0138,4.161,4.2439,4.2574,4.183,4.0747,3.8408,3.4454,3.1955,0.0,0.0,0.0,0.0,0.0,0.0,0.0,0.0,0.0,0.0,0.0,0.0,0.0,0.0,0.0,0.0,0.0,0.0,0.0,0.0,0.0,0.0,0.0,0.0,0.0,0.0,0.0,0.0,0.0,0.0,0.0,0.0,0.0,0.0,0.0,0.0,0.0,0.0,0.0,0.0,0.0,0.0,0.0,0.0,0.0,0.0,0.0,0.0,0.0,0.0,0.0,0.0,0.0,4.3504,4.3978,4.3893,4.5162,4.5449,4.4812,4.2388,4.1068,4.0493,0.0,0.0,0.0,0.0,0.0,0.0,0.0,0.0,0.0,0.0,0.0,0.0,0.0,0.0,0.0,0.0,0.0,0.0,0.0,0.0,0.0,0.0,0.0,0.0,0.0,3.5859,3.5228,0.0,0.0,0.0,0.0,0.0,0.0,0.0,0.0,0.0,0.0,0.0,0.0,3.3263,3.6958,3.9715,4.1068,4.1745,4.1863,4.1255,4.0527,3.8913,3.6174,3.3457,3.0666,0.0,0.0,0.0,0.0,0.0,0.0,0.0,0.0,0.0,0.0,0.0,0.0,0.0,0.0,0.0,0.0,0.0,0.0,0.0,0.0,0.0,0.0,0.0,0.0,0.0,0.0,0.0,0.0,0.0,0.0,0.0,0.0,3.139,3.3047,0.0,0.0,0.0,0.0,0.0,0.0,0.0,0.0,0.0,0.0,0.0,0.0,0.0,4.1811,4.2801,4.5983,4.7402,4.7043,4.9712,5.0659,5.005,5.0253,5.0625,5.1116,5.0727,0.0,4.2844,4.1271,0.0,0.0,0.0,0.0,0.0,0.0,0.0,0.0,0.0,0.0,0.0,0.0,0.0,0.0,0.0,0.0,0.0,0.0,0.0,0.0,0.0,0.0,3.8962,3.8497,3.8971,3.9335,0.0,3.3963,2.9374,2.7653,0.0,0.0,0.0,0.0,0.0,0.0,0.0,0.0,3.4822,3.8017,4.0265,4.1119,4.1288,4.1322,4.1221,4.051,3.9377,3.7702,3.5971,3.3981,3.1667,2.8772,0.0,0.0,0.0,0.0,0.0,0.0,0.0,0.0,0.0,0.0,0.0,0.0,0.0,0.0,0.0,0.0,0.0,0.0,0.0,0.0,0.0,0.0,0.0,0.0,0.0,0.0,0.0,0.0,0.0,3.2067,3.4638,3.5355,3.5239,3.498,0.0,0.0,0.0,0.0,0.0,0.0,0.0,0.0,0.0,4.3736,4.5269,4.6819,4.8392,5.0033,5.1133,5.1674,5.2976,5.3653,5.3754,5.3754,5.3923,5.4211,5.4211,5.2503,4.9458,4.6278,4.3859,4.1941,0.0,0.0,0.0,0.0,3.87,3.8911,4.0603,4.0959,0.0,0.0,0.0,0.0,0.0,0.0,0.0,0.0,0.0,0.0,0.0,0.0,0.0,4.254,4.2692,4.2625,4.2634,3.9309,3.5498,0.0,3.1343,2.9465,2.5862,0.0,0.0,0.0,0.0,3.2374,3.5228,3.7889,3.9766,4.0493,4.0578,4.0578,4.0578,4.0299,3.9656,3.8582,3.711,3.5639,3.4218,3.1292,2.8704,0.0,0.0,0.0,0.0,0.0,0.0,0.0,0.0,0.0,0.0,0.0,0.0,0.0,0.0,0.0,0.0,0.0,0.0,0.0,0.0,0.0,0.0,0.0,0.0,0.0,0.0,0.0,0.0,3.5088,3.7586,3.8005,3.8779,3.8661,0.0,0.0,0.0,0.0,0.0,0.0,4.1999,4.4198,4.6363,4.8443,4.9763,5.1319,5.3162,5.3365,5.4025,5.5158,5.5344,5.5733,5.6275,5.6275,5.6275,5.6275,5.6275,5.5852,5.4837,5.0727,4.7834,4.5816,4.3724,4.2134,4.1119,4.2236,4.2388,4.2431,4.4654,4.5432,4.5196,4.369,0.0,4.1407,3.7855,0.0,0.0,0.0,0.0,3.8058,4.1238,4.2625,4.3639,4.5534,4.5551,4.5122,4.4936,4.3386,4.1018,0.0,3.6011,3.4015,2.9719,0.0,0.0,0.0,0.0,3.4167,3.6214,3.8108,3.9503,4.0045,4.0096,4.0096,4.0096,4.0096,3.9876,3.9334,3.7912,3.6806,3.6208,3.3525,3.1258,2.9602,0.0,0.0,0.0,0.0,0.0,0.0,0.0,0.0,0.0,0.0,0.0,0.0,0.0,0.0,0.0,0.0,0.0,0.0,0.0,0.0,0.0,0.0,0.0,0.0,0.0,0.0,0.0,0.0,0.0,4.182,4.2557,0.0,0.0,0.0,0.0,4.1796,4.3369,4.5196,4.7382,4.9596,5.1539,5.3112,5.3907,5.4702,5.553,5.6224,5.6613,5.6697,5.7391,5.7746,5.778,5.778,5.778,5.778,5.778,5.7357,5.6461,5.3348,5.1183,4.9661,4.8156,4.709,4.6413,4.6481,4.6938,4.7517,4.7669,4.772,4.7821,4.8426,4.6701,4.4231,4.325,4.1448,0.0,0.0,4.1424,4.2337,4.4005,4.4976,4.5737,4.6549,4.6718,4.6498,4.5805,4.4993,4.3548,0.0,3.8693,3.7195,3.5447,0.0,3.4387,3.5042,3.596,3.7134,3.8616,3.9554,4.0062,4.0096,4.0096,4.0096,4.0096,4.0096,4.0079,4.0045,3.865,3.7838,3.7804,3.5554,3.3305,3.1123,2.877,0.0,0.0,0.0,0.0,0.0,0.0,0.0,0.0,0.0,0.0,0.0,0.0,0.0,0.0,0.0,0.0,0.0,0.0,0.0,0.0,0.0,0.0,0.0,0.0,0.0,0.0,0.0,0.0,4.501,4.7064,0.0,4.5043,4.5196,4.5568,4.5889,4.7733,4.9627,5.142,5.3162,5.4786,5.6275,5.7053,5.7797,5.8524,5.8795,5.8913,5.893,5.9184,5.9066,5.8609,5.8609,5.8355,5.7881,5.7881,5.7746,5.7391,5.5835,5.4059,5.2181,5.115,4.9982,4.8968,4.9458,4.9509,4.939,4.9881,5.0002,4.9932,4.9238,4.7648,4.5855,4.5111,4.3995,4.3149,4.3893,4.4299,4.484,4.6329,4.6921,4.731,4.8037,4.7851,4.7445,4.7162,4.616,4.4993,4.3927,4.1711,3.9411,3.7432,3.6874,3.662,3.64,3.7026,3.821,4.0155,4.0646,4.0798,4.0798,4.0798,4.0612,4.0146,4.0096,3.991,3.9436,3.8447,3.7686,3.7195,3.5453,3.3897,3.2645,3.041,2.7536,0.0,0.0,0.0,0.0,0.0,0.0,0.0,0.0,0.0,0.0,0.0,0.0,0.0,0.0,0.0,0.0,0.0,0.0,0.0,0.0,0.0,0.0,0.0,0.0,0.0,0.0,4.6126,4.7378,5.0168,5.1014,4.8528,4.939,5.0135,5.0168,5.1995,5.3653,5.4921,5.6393,5.7645,5.8609,5.9116,5.9624,6.0097,6.0097,6.0097,6.0097,6.0097,5.9844,5.937,5.9116,5.8744,5.8254,5.8,5.7881,5.7848,5.7357,5.6156,5.4515,5.3484,5.2469,5.164,5.1894,5.1674,5.1319,5.1809,5.1809,5.142,5.0439,4.9289,4.8189,4.7716,4.7208,4.6921,4.7428,4.7394,4.7411,4.8392,4.8477,4.8409,4.8883,4.8646,4.8193,4.7939,4.6955,4.6007,4.5754,4.3673,4.1491,3.9995,3.9563,3.9123,3.8403,3.87,3.9462,4.0663,4.0832,4.0916,4.117,4.1204,4.1001,4.0493,4.0248,3.9791,3.9039,3.7821,3.6907,3.6417,3.4928,3.3778,3.3034,3.0598,2.8094,2.5592,0.0,0.0,0.0,0.0,0.0,0.0,0.0,0.0,0.0,0.0,0.0,0.0,0.0,0.0,0.0,0.0,0.0,0.0,0.0,0.0,0.0,0.0,0.0,4.1271,4.5229,4.8359,4.9154,5.186,5.3095,5.1606,5.2114,5.3145,5.4617,5.6089,5.7205,5.7915,5.9319,6.0114,6.0131,6.0131,6.0148,6.0165,6.0165,6.0165,6.0165,6.0165,6.0148,6.008,5.937,5.9015,5.8947,5.8203,5.7881,5.7881,5.7881,5.7476,5.6697,5.5226,5.4634,5.4532,5.3822,5.3551,5.3534,5.3518,5.2993,5.2334,5.2317,5.1826,5.1219,5.1217,5.1185,5.1185,5.1185,5.0693,5.0118,5.0118,4.9593,4.9035,4.9035,4.9018,4.8798,4.8075,4.7361,4.6616,4.5889,4.4519,4.3443,4.3392,4.2811,4.2083,4.139,4.1255,0.0,4.0333,4.0231,4.0485,4.1187,4.1271,4.1255,4.1204,4.051,3.9774,3.8971,3.6857,3.5583,3.5566,3.4163,3.3051,3.231,2.9381,2.7148,2.566,0.0,0.0,0.0,0.0,0.0,0.0,0.0,0.0,0.0,0.0,0.0,0.0,0.0,0.0,0.0,0.0,0.0,0.0,0.0,0.0,0.0,4.1711,4.4418,4.5162,4.8629,5.1978,5.438,5.6342,5.734,5.6917,5.7526,5.7915,5.7814,5.866,5.9285,5.9471,5.9877,6.0368,6.096,6.0977,6.1231,6.1755,6.1755,6.1755,6.1755,6.1755,6.118,6.0097,5.9894,5.9218,5.8186,5.7983,5.7881,5.7881,5.7881,5.7763,5.7492,5.6562,5.5869,5.5378,5.5175,5.4769,5.4211,5.3687,5.3365,5.3078,5.2486,5.2164,5.1911,5.1369,5.1185,5.1185,5.1185,5.1065,5.0913,5.0913,5.0355,4.9796,4.9796,4.939,4.8951,4.8748,4.8122,4.7394,4.6633,4.572,4.4722,4.3578,4.325,4.3047,4.2817,4.2337,0.0,4.3261,4.2844,4.2574,4.2767,4.2811,4.2344,4.1288,4.051,3.9334,3.7523,3.6282,3.5346,3.4827,3.3897,3.3051,3.231,3.0446,2.872,0.0,0.0,0.0,0.0,0.0,0.0,0.0,0.0,0.0,0.0,0.0,0.0,0.0,0.0,0.0,0.0,0.0,0.0,0.0,0.0,0.0,0.0,4.5788,4.8714,5.071,5.2824,5.4955,5.7019,5.8558,5.9471,5.9471,5.986,5.9928,5.9505,6.0182,6.0605,6.0605,6.0892,6.1281,6.1738,6.1755,6.1958,6.2381,6.2381,6.2381,6.2381,6.2381,6.1772,6.0588,6.025,5.9455,0.0,5.8017,5.7881,5.7881,5.7881,5.7881,0.0,0.0,0.0,0.0,0.0,5.5243,5.4532,5.411,5.3754,5.3433,5.2959,5.2807,5.2723,5.23,5.2164,5.2164,5.2164,5.1928,5.1674,5.1674,5.0879,5.0084,5.0084,4.9543,4.9001,4.9001,4.8426,4.7699,4.6938,0.0,0.0,4.4113,4.391,4.3792,4.3443,4.3047,4.2963,4.3555,4.3234,4.3064,4.3358,4.3392,4.3037,4.2175,4.1153,0.0,0.0,0.0,3.5126,3.4083,3.3626,0.0,0.0,0.0,0.0,0.0,0.0,0.0,0.0,2.7791,2.7604,0.0,0.0,0.0,0.0,0.0,0.0,0.0,0.0,0.0,0.0,0.0,0.0,0.0,0.0,0.0,0.0,4.9661,5.2841,5.6427,5.707,5.7459,5.8186,5.9438,6.0266,6.0351,6.0368,6.0368,6.0368,6.1028,6.1417,6.1417,0.0,0.0,0.0,0.0,6.2381,6.2381,6.2381,6.2347,6.2262,6.2262,6.1839,6.1028,6.03,5.9573,5.8846,5.8169,5.7881,5.7881,5.7881,5.7881,5.7814,5.7171,5.6917,5.6833,5.6105,5.5412,5.4803,5.4651,0.0,0.0,5.3534,5.3501,5.3501,5.3501,5.3501,5.3501,5.3501,5.2993,5.2435,5.2435,5.1403,5.0321,5.0236,4.9661,4.9103,4.9018,4.8494,4.7817,4.7073,4.6329,4.5585,4.4869,4.4666,4.435,4.3656,4.3527,4.3301,4.2625,4.2557,4.2811,4.3487,0.0,0.0,4.3392,4.2134,4.0967,4.0146,3.7432,3.5228,3.3846,3.3863,3.388,3.3795,3.4506,3.4827,3.4759,3.5504,3.5904,3.587,3.0968,3.0125,0.0,0.0,0.0,0.0,0.0,0.0,0.0,0.0,0.0,0.0,0.0,0.0,0.0,0.0,0.0,4.89,5.1978,5.482,5.7323,5.871,5.9759,6.0554,6.0892,6.1298,6.189,6.1958,6.1958,6.1958,6.2093,6.2178,6.2178,6.2313,6.2381,6.2381,6.2381,6.2381,6.2381,6.2381,6.2093,6.1518,0.0,0.0,5.9455,5.9302,5.8812,5.8101,5.7949,5.7881,5.7881,5.7881,5.7881,5.7881,5.7729,5.7679,5.7594,5.6867,5.6511,5.6207,5.5006,5.4499,5.4279,5.3687,5.3501,5.3501,5.3501,5.3501,0.0,5.3501,5.3399,5.3264,5.3264,5.257,5.1725,5.1133,5.0422,4.9712,4.9137,4.89,4.8578,4.7821,4.709,4.6346,4.5618,4.4976,4.4564,4.4384,4.4378,4.4327,4.4175,4.4175,4.4225,4.4361,4.4378,4.4096,4.3443,4.2591,4.1508,4.018,3.8447,3.706,3.6186,3.6705,3.6755,3.6152,3.6874,3.6941,3.6372,3.7094,3.777,3.8261,3.5414,3.4399,0.0,0.0,0.0,0.0,0.0,0.0,0.0,0.0,0.0,0.0,0.0,4.1018,4.4012,0.0,4.9001,5.2367,5.4786,5.6884,5.8727,5.9979,6.0858,6.1247,6.1637,6.1992,6.2347,6.2381,6.2381,6.2381,6.2381,6.2381,6.2381,6.2381,6.2381,6.2381,6.2381,6.2381,6.2381,6.2026,6.1653,6.1298,6.0892,6.0114,5.9015,5.9015,5.8609,5.7881,5.7881,5.7881,5.7881,5.7881,5.7881,5.7881,5.7881,5.7881,5.7848,5.7476,5.712,5.6697,5.5953,5.5463,5.504,5.4296,5.4042,5.3974,5.3619,5.3501,5.3501,5.3501,5.3501,5.3501,5.3501,5.2909,5.2215,5.1843,5.0913,4.9982,4.9627,4.9255,4.8781,4.8024,4.7614,4.7124,4.638,4.5635,4.501,4.4666,4.4615,4.4615,4.4615,4.4615,4.4615,4.4615,4.4615,4.4445,4.4028,4.3301,4.2219,4.073,3.9952,3.9225,3.8488,3.8819,3.8836,3.8464,3.9191,3.9377,3.8988,3.9732,4.029,4.0612,3.9478,3.8768,0.0,0.0,0.0,0.0,0.0,0.0,0.0,3.8135,3.8971,4.133,4.3014,4.4993,4.8189,5.0101,5.2232,5.5412,5.7154,5.8575,5.9911,6.0655,6.1129,6.1281,6.1823,6.2178,6.2178,6.2178,6.2245,6.2381,6.2381,6.2381,6.2381,6.2381,6.2381,6.2381,6.2381,6.2313,6.2178,6.1603,6.1163,6.0858,6.0199,5.9505,5.8795,5.8795,5.8457,5.7881,5.7881,5.7881,5.7881,5.7881,5.7881,5.7881,5.7881,5.7881,5.7881,5.7881,5.7509,5.6985,5.685,5.6427,5.5784,5.4888,5.4583,5.4448,5.3721,5.3501,5.3501,5.3501,5.3501,5.3501,5.3501,5.3027,5.2486,5.2334,5.1386,5.0439,5.0152,4.9627,4.9001,4.8274,4.799,4.7733,4.7124,4.6397,4.5652,4.4936,4.4699,4.4615,4.4615,4.4615,4.4615,4.4615,4.4615,4.4615,4.4615,4.4012,4.3064,4.1711,4.1644,4.1305,4.057,4.0527,4.0519,4.0519,4.1255,4.1644,4.1644,4.2371,4.2811,4.2946,4.2946,4.2405,3.6738,3.4296,3.3684,3.6386,3.6666,3.8025,0.0,4.4946,4.4547,4.7411,4.9187,5.0541,5.1623,5.3602,5.5446,5.6511,5.7915,5.9167,5.9979,6.0182,6.0503,6.1214,6.1366,6.1417,6.1417,6.1417,6.1687,6.233,6.2381,6.2381,6.2381,6.2381,6.2381,6.2381,6.2381,6.2076,6.1434,6.1349,6.0622,5.9268,5.9184,5.8744,5.8017,5.8017,5.7966,5.7881,5.7881,5.7881,5.7881,5.7881,5.7881,5.7881,5.7881,5.7881,5.7881,5.7881,5.7831,5.7679,5.7019,5.6748,5.6461,5.504,5.4583,5.4448,5.3721,5.3501,5.3501,5.3501,5.3501,5.3501,5.3501,5.3433,5.3196,5.2469,5.2181,5.1691,5.0371,5.0033,4.9746,4.9018,4.8359,4.7855,4.777,4.7175,4.643,4.5686,4.501,4.4615,4.4615,4.4615,4.4615,4.4615,4.4615,4.4615,4.4615,4.453,4.4079,4.3189,4.3139,4.2828,4.2066,4.2049,4.2049,4.2049,4.2794,4.3139,4.3156,4.3944,4.4671,4.5331,4.5331,4.4181,3.9395,3.8402,3.8547,4.027,4.1418,4.3099,4.6757,4.7285,4.7599,4.9706,5.0988,5.2202,5.3803,5.4866,5.593,5.7239,5.8582,5.9473,5.9451,6.0102,6.0249,5.9438,5.9319,5.9658,6.052,6.0605,6.0723,6.1028,6.1061,6.1061,6.1061,6.1061,6.1061,6.1061,6.1061,6.0909,6.0605,6.0182,5.9658,5.9015,5.8558,5.8203,5.7881,5.7881,5.7881,5.7881,5.7881,5.7881,5.7881,5.7881,5.7881,5.7881,5.7881,5.7881,5.7881,5.7881,5.7881,5.7848,5.7543,5.7442,5.7256,5.6224,5.5598,5.5108,5.4363,5.3839,5.3501,5.3501,5.3501,5.3501,5.3501,5.3501,5.3416,5.3078,5.2638,5.2012,5.098,5.0388,4.9864,4.9137,4.8748,4.8545,4.8545,4.7936,4.7344,4.7039,4.6346,4.572,4.5297,4.5229,4.506,4.4649,4.4615,4.4615,4.4615,4.4615,4.4479,4.4113,4.4096,4.3944,4.3667,4.365,4.365,4.365,4.3927,4.4096,4.4096,4.4445,4.4767,4.5043,4.5043,4.4773,4.038,4.0994,4.23,4.328,4.5284,4.7385,4.8666,4.9449,5.0237,5.1564,5.2253,5.311,5.4707,5.5345,5.6003,5.7226,5.8547,5.93,5.8895,5.9494,5.9443,5.8011,5.7321,5.7476,5.8761,5.9252,5.9658,6.0063,6.0097,6.0097,6.0097,6.0097,6.0097,6.0097,6.0097,5.9996,5.981,5.9285,5.8913,5.8693,5.8152,5.7881,5.7881,5.7881,5.7881,5.7881,5.7881,5.7881,5.7881,5.7881,5.7881,5.7881,5.7881,5.7881,5.7881,5.7881,5.7881,5.7881,5.7881,5.7881,5.7763,5.7036,5.6444,5.5886,5.5124,5.4397,5.3805,5.3805,5.367,5.3501,5.3501,5.3501,5.3501,5.3501,5.3061,5.2418,5.1674,5.1082,5.0422,4.9492,4.9306,4.9238,4.9035,4.8578,4.8193,4.8193,4.775,4.7073,4.6126,4.6007,4.5805,4.5275,4.5224,4.5139,4.4936,4.4919,4.4835,4.4615,4.4615,4.4615,4.4615,4.4615,4.4615,4.4615,4.4615,4.4615,4.4615,4.4818,4.5021,4.5224,4.5427,4.5788,3.894,4.0398,4.2862,4.4457,4.7047,4.9776,5.1958,5.2614,5.2987,5.3757,5.3924,5.396,5.4043,5.5197,5.6201,5.6235,5.7474,5.8428,5.8411,5.7997,5.7672,5.7641,5.5881,5.5006,0.0,5.712,5.8558,5.9996,6.0097,6.0097,6.0097,6.0097,6.0097,6.0097,6.0097,5.9759,5.9049,5.9032,5.8643,5.7915,5.7898,5.7881,5.7881,5.7881,5.7881,5.7881,5.7881,5.7881,5.7881,5.7881,5.7881,5.7881,5.7881,5.7881,5.7881,5.7881,5.7881,5.7881,5.7881,5.7881,5.7763,5.7036,5.6782,5.663,5.5902,5.5158,5.4566,5.4566,5.4042,5.3501,5.3501,5.3501,5.3501,5.3501,5.3484,5.3247,5.2435,5.2249,5.1809,5.0338,5.005,4.983,4.912,4.8984,4.8968,4.8968,4.8951,4.8409,4.6938,4.6752,4.6752,4.6735,4.6718,4.643,4.5737,4.5669,4.5348,4.4649,4.4615,4.4615,4.4615,4.4615,4.4615,4.4615,4.4615,4.4615,4.4615,4.5314,4.6024,4.6735,4.7479,4.7804,4.1619,4.3227,4.5284,4.7801,4.9908,5.1702,5.3021,5.3375,5.3344,5.3111,5.2677,5.2512,5.3048,5.353,5.4217,5.5278,5.6592,5.7506,5.7658,5.7837,5.749,5.6289,5.5537,0.0,0.0,0.0,0.0,5.7797,5.7806,5.7971,5.8609,5.8626,5.8626,5.8626,5.8626,5.8507,5.8271,5.8271,5.8152,5.7881,5.7881,5.7881,5.7881,5.7881,5.7881,5.7881,5.7881,5.7881,5.7881,5.7881,5.7881,5.7881,5.7881,5.7881,5.7881,5.7881,5.7881,5.7881,5.7881,5.7881,5.7848,5.7594,5.7205,5.6748,5.6511,5.5564,5.4583,5.4583,5.4059,5.3501,5.3501,5.3501,5.3501,5.3501,5.3501,5.3281,5.2469,5.23,5.2012,5.1031,5.0422,5.0016,4.9763,4.9323,4.9001,4.9001,4.8595,4.8075,4.7597,4.7107,4.6786,4.6786,4.6786,4.6701,4.6447,4.643,4.6312,4.6087,4.6041,4.6041,4.6041,4.6041,4.6041,4.6041,4.6041,4.6041,4.6041,4.6295,4.6549,4.6802,4.7056,4.7445,4.4208,4.6063,4.8001,5.0667,5.244,5.3619,5.3911,5.3997,5.3631,5.2402,5.1355,5.064,5.0624,5.0624,5.1307,5.3394,5.4655,5.5767,5.6913,5.6992,5.6479,5.5333,5.4768,5.4436,0.0,0.0,0.0,5.6556,5.6746,5.71,5.7865,5.7845,5.7808,5.7881,5.7881,5.7881,5.7881,5.7881,5.7881,5.7881,5.7881,5.7881,5.7881,5.7881,5.7881,5.7881,5.7881,5.7881,5.7881,5.7881,5.7881,5.7881,5.7881,5.7881,5.7881,5.7881,5.7881,5.7881,5.7881,5.7881,5.7881,5.7881,5.7577,5.7188,5.7188,5.6342,5.5378,5.5378,5.4854,5.4245,5.3957,5.389,5.3822,5.3568,5.3501,5.3365,5.2841,5.2739,5.2503,5.1758,5.1217,5.0794,5.0541,4.9881,4.9306,4.9035,4.8612,4.8308,4.8308,4.7885,4.7581,4.7581,4.7581,4.7479,4.7225,4.7192,4.7073,4.6802,4.6786,4.6786,4.6786,4.6786,4.6786,4.6786,4.6786,4.6786,4.6786,4.7056,4.7192,4.7192,4.7462,4.7851,4.651,4.8713,5.0883,5.3003,5.456,5.5334,5.4589,5.4374,5.3732,5.1562,4.9922,4.8448,4.7007,4.6792,4.7769,5.0669,5.1879,5.3417,5.6233,5.5622,5.4868,5.4872,5.3783,5.3303,5.3989,0.0,0.0,5.627,0.0,5.7392,5.7845,5.7698,5.7698,5.7881,5.7881,5.7881,5.7881,5.7881,5.7881,5.7881,5.7881,5.7881,5.7881,5.7881,5.7881,5.7881,5.7881,5.7881,5.7881,5.7881,5.7881,5.7881,5.7881,5.7881,5.7881,5.7881,5.7881,5.7881,5.7881,5.7881,5.7881,5.7881,5.7881,5.7881,5.7881,5.7374,5.6799,5.6799,5.6275,5.5547,5.4837,5.4617,5.4414,5.3721,5.3534,5.3501,5.3501,5.3501,5.3281,5.252,5.2334,5.208,5.1352,5.0625,4.9898,4.9171,4.9069,4.9035,4.9001,4.9001,4.9001,4.9001,4.9001,4.8731,4.8007,4.7939,4.7665,4.6955,4.6904,4.6904,4.6904,4.6904,4.6904,4.6904,4.6904,4.6904,4.6904,4.7631,4.7939,4.7956,4.868,4.9001,4.9409,5.1347,5.3003,5.4605,5.4887,5.4572,5.3864,5.287,5.1479,4.9293,4.7222,4.5533,4.4591,4.5351,4.6676,4.8531,5.1264,5.3798,5.5636,5.6072,5.6049,5.5667,5.5342,5.5012,5.4645,5.4872,0.0,0.0,5.5683,5.6097,5.7611,5.7625,5.7698,5.7881,5.7735,5.7735,5.7881,5.7881,5.7881,5.7881,5.7881,5.7881,5.7881,5.7881,5.7881,5.7881,5.7881,5.7881,5.7881,5.7881,5.7881,5.7881,5.7881,5.7881,5.7881,5.7881,5.7881,5.7881,5.7881,5.7881,5.7881,5.7881,5.7881,5.7881,5.7881,5.7374,5.6799,5.6799,5.6275,5.5683,5.548,5.5006,5.4532,5.4346,5.3907,5.3501,5.3501,5.3501,5.345,5.323,5.2706,5.208,5.1352,5.1048,5.0676,4.9932,4.9813,4.961,4.9069,4.9001,4.9001,4.9001,4.9001,4.8934,4.8748,4.8731,4.8646,4.846,4.8443,4.8443,4.8443,4.8443,4.8443,4.8443,4.8443,4.8443,4.8443,4.8629,4.8731,4.8731,4.8917,4.9001,5.1595,5.3268,5.4659,5.5802,5.5537,5.444,5.2473,5.1131,4.9243,4.5433,4.3413,4.1905,4.0531,4.1723,4.3727,4.6146,4.9624,5.2818,5.5251,5.5968,5.6105,5.5821,5.5771,5.5605,5.519,5.5522,5.5904,0.0,5.5854,5.6158,5.7389,5.7402,5.7439,5.7625,5.7514,5.7551,5.7772,5.7845,5.7881,5.7881,5.7881,5.7881,5.7881,5.7881,5.7881,5.7881,0.0,5.7881,5.7881,5.7881,5.7881,5.7881,5.7881,5.7881,5.7881,5.7881,5.7881,5.7881,5.7881,5.7881,5.7881,5.7881,5.7881,5.7881,5.7881,5.7594,5.7273,5.7273,5.6985,5.6596,5.6275,5.5649,5.5006,5.4668,5.4042,5.3501,5.3501,5.3501,5.3501,5.3501,5.3145,5.2587,5.1826,5.1691,5.1437,5.0693,5.0591,5.0321,4.9576,4.9204,4.9001,4.9001,4.9001,4.9001,4.9001,4.9001,4.9001,4.9001,4.9001,4.9001,4.9001,4.9001,4.9001,4.9001,4.9001,4.9001,4.9001,4.9001,4.9171,4.9475,4.9475,4.9661,5.3119,5.4597,5.5847,5.6299,5.5842,5.4341,5.063,4.9043,4.6776,4.1142,3.9311,3.8138,3.6208,3.7649,4.0343,4.3959,4.7653,5.133,5.4936,5.5532,5.5632,5.5714,5.5731,5.5731,5.5731,5.5731,5.6017,5.663,5.668,5.6872,5.7252,5.7101,5.7063,5.7252,5.7327,5.7402,5.7551,5.7772,5.7881,5.7881,5.7881,5.7881,5.7881,5.7881,5.7881,5.7881,0.0,0.0,5.7881,5.7881,5.7881,5.7881,5.7881,5.7881,5.7881,5.7881,5.7881,5.7881,5.7881,5.7881,5.7881,5.7881,5.7881,5.7881,5.7881,5.7881,5.7881,5.7881,5.7881,5.7746,5.7103,5.641,5.57,5.504,5.4245,5.3653,5.3653,5.3568,5.3501,5.3501,5.3501,5.3281,5.2587,5.2469,5.2215,5.1471,5.1369,5.1082,5.0338,4.9593,4.912,4.9018,4.9001,4.9001,4.9001,4.9001,4.9001,4.9001,4.9001,4.9001,4.9001,4.9001,4.9001,4.9001,4.9001,4.9052,4.9154,4.9154,4.9526,5.0236,5.0236,5.0591,5.3766,5.5318,5.6211,5.4998,5.4268,5.2712,4.8567,4.6042,4.3264,3.8776,3.669,3.5545,3.5148,3.6903,3.9587,4.3184,4.6859,5.0568,5.4158,5.5201,5.5852,5.6432,5.6498,5.6498,5.6498,5.6498,0.0,0.0,0.0,5.6796,5.7025,5.7025,5.7025,5.7063,5.7364,5.7476,5.7364,5.7698,5.7881,5.7881,5.7881,5.7881,5.7881,5.7881,5.7881,5.7881,5.7881,0.0,5.7881,5.7881,5.7881,5.7881,5.7881,5.7881,5.7881,5.7881,5.7881,5.7881,5.7881,5.7881,5.7881,5.7881,5.7881,5.7881,5.7881,5.7881,5.7881,5.7881,5.7881,5.7865,5.7729,5.7154,5.6579,5.6444,5.5378,5.4397,5.4397,5.3923,5.3501,5.3501,5.3501,5.3467,5.3315,5.3298,5.3027,5.2232,5.2114,5.1843,5.1116,5.0371,4.9678,4.9069,4.9001,4.9001,4.9001,4.9001,4.9001,4.9001,4.9001,4.9001,4.9001,4.9001,4.9001,4.9001,4.9001,4.9306,4.9898,4.9898,5.0287,5.1014,5.1014,5.1099,5.3489,5.5224,5.6421,5.5269,5.3914,5.1553,4.6567,4.3629,4.0408,3.5022,3.3538,3.2961,3.2183,3.48,3.788,4.0371,4.383,4.7669,5.1676,5.2904,5.4046,5.5918,5.6465,5.668,5.668,5.668,5.668,5.668,0.0,5.6719,5.6834,5.6834,5.6834,5.6834,5.7139,5.7252,5.7139,5.7439,5.7588,5.7588,5.7698,5.7735,5.7735,5.7845,5.7881,5.7881,5.7881,0.0,5.7881,5.7881,5.7881,5.7881,5.7881,5.7881,5.7881,5.7881,5.7881,5.7881,5.7881,5.7881,5.7881,5.7881,5.7881,5.7881,5.7881,5.7881,5.7881,5.7881,5.7881,5.7881,5.7881,5.734,5.6799,5.6799,5.5666,5.4583,5.4583,5.4008,5.3501,5.3501,5.3501,5.3501,5.3501,5.3501,5.3365,5.2993,5.2926,5.2655,5.1877,5.1471,5.0963,5.0236,5.0152,5.0152,5.0152,5.0152,5.0152,5.0152,5.0152,5.0152,5.0152,5.0152,5.0152,5.0152,5.0152,5.0321,5.0676,5.0676,5.1065,5.1775,5.1775,5.2012,5.2725,5.4612,5.6138,5.5056,5.3424,5.0566,4.4626,4.1462,3.8031,3.1892,3.0837,3.0764,3.0026,3.2845,3.5877,3.7708,4.0762,4.4445,4.8893,5.0549,5.2291,5.5019,5.615,5.668,5.668,5.668,0.0,5.668,0.0,0.0,5.668,5.668,5.668,5.668,5.6911,5.6987,5.6987,5.7214,5.7289,5.7289,5.7514,5.7588,5.7625,5.7808,5.7881,5.7881,5.7881,0.0,0.0,5.7881,5.7881,5.7881,5.7881,5.7881,5.7881,5.7881,5.7881,5.7881,5.7881,5.7881,5.7881,5.7881,5.7881,5.7881,5.7881,5.7881,5.7881,5.7881,5.7881,5.7881,5.7881,5.7459,5.7002,5.685,5.5902,5.5023,5.4871,5.438,5.3923,5.3771,5.3737,5.3687,5.3534,5.3501,5.3501,5.3501,5.3501,5.3281,5.2638,5.2553,5.235,5.1758,5.142,5.1185,5.1185,5.1185,5.1185,5.1185,5.1185,5.1185,5.1185,5.1185,5.1185,5.1185,5.1185,5.1302,5.1454,5.1454,5.1826,5.2553,5.2553,5.2909,5.1476,5.3545,5.4891,5.2713,5.1611,4.9378,4.2767,3.9434,3.6289,3.1133,2.9544,2.9543,3.1104,3.2282,3.3964,3.6906,3.9254,4.2257,4.6748,4.9648,5.2108,5.4361,5.5835,5.668,5.668,5.668,5.668,5.668,0.0,0.0,5.668,5.668,5.668,5.668,5.6911,5.6987,5.6987,5.7214,5.7289,5.7289,5.7514,5.7588,5.7625,5.7808,5.7881,5.7881,5.7881,0.0,0.0,5.7881,5.7881,5.7881,5.7881,5.7881,5.7881,5.7881,5.7881,5.7881,5.7881,5.7881,5.7881,5.7881,5.7881,5.7881,5.7881,5.7881,5.7881,5.7881,5.7881,5.7881,5.7881,5.7831,5.7628,5.6968,5.6697,5.641,5.575,5.5564,5.531,5.4617,5.4482,5.4279,5.3619,5.3501,5.3501,5.3501,5.3501,5.3467,5.3399,5.3399,5.3365,5.3298,5.2046,5.1185,5.1185,5.1185,5.1185,5.1185,5.1185,5.1185,5.1185,5.1185,5.1185,5.1185,5.1185,5.1539,5.2198,5.2198,5.2604,5.3399,5.3399,5.3433,4.985,5.18,5.3108,5.2236,5.0542,4.7639,4.2222,3.8801,3.5285,2.9991,2.9187,2.9421,2.9419,3.0634,3.2192,3.3947,3.5247,3.7523,4.1908,4.4514,4.7471,5.1462,5.3583,5.5239,0.0,0.0,5.668,5.668,0.0,0.0,5.668,5.668,5.668,5.668,5.6757,5.6834,5.6834,5.6911,5.6949,5.6949,5.7139,5.7289,5.7439,5.7625,5.7772,5.7881,5.7881,0.0,0.0,5.7881,5.7881,5.7881,5.7881,5.7881,5.7881,5.7881,5.7881,5.7881,5.7881,5.7881,5.7881,5.7881,5.7881,5.7881,5.7881,5.7881,5.7881,5.7881,5.7881,5.7881,5.7881,5.7881,5.7814,5.7526,5.712,5.6731,5.6444,5.6021,5.5632,5.5327,5.4905,5.4499,5.4211,5.3788,5.3653,5.4093,5.3788,5.367,5.411,5.3771,5.3501,5.3501,5.2959,5.2587,5.2587,5.2587,5.2587,5.2587,5.2587,5.2587,5.2587,5.2587,5.2587,5.2587,5.2587,5.2739,5.3027,5.3027,5.3196,5.3501,5.3501,5.3501,4.8217,5.0375,5.1779,5.1487,4.9533,4.6333,4.1198,3.7805,3.4313,2.9465,2.8856,2.906,2.8614,2.9748,3.1008,3.1743,3.2545,3.45,3.8602,4.0967,4.3911,4.8365,5.0817,5.3003,5.5189,5.6183,5.668,0.0,0.0,0.0,5.668,5.6481,5.6365,5.6365,5.6365,5.6266,5.6051,5.6051,5.6051,5.6051,5.6262,5.6567,5.6971,5.7194,5.7496,5.7881,0.0,0.0,0.0,5.7881,5.7881,5.7881,5.7881,5.7881,5.7881,5.7881,5.7881,5.7881,5.7881,5.7881,5.7881,5.7881,5.7881,5.7881,5.7881,5.7881,5.7881,5.7881,5.7881,5.7881,5.7881,5.7881,5.7881,5.7881,5.7492,5.712,5.712,5.6714,5.6292,5.6089,5.5615,5.5175,5.4955,5.4313,5.3991,5.4515,5.3974,5.3687,5.4211,5.3822,5.3501,5.3501,5.3501,5.3501,5.3501,5.3501,5.3501,5.3501,5.3501,5.3501,5.3501,5.3501,5.3501,5.3501,5.3501,5.3501,5.3501,5.3501,5.3501,5.3501,5.3501,5.3501,4.6692,4.9435,5.1251,4.9897,4.845,4.5708,3.9211,3.5951,3.3315,2.9822,2.8361,2.813,2.9534,3.0177,3.0631,3.1037,3.2175,3.4262,3.7908,4.0304,4.2757,4.5504,4.7802,5.0005,5.2208,5.5007,5.668,0.0,0.0,0.0,5.668,5.6017,5.5599,5.5599,5.5599,5.5251,5.4506,5.4506,5.4506,5.4543,5.4728,5.5332,5.6218,5.6401,5.7024,0.0,0.0,0.0,0.0,5.7881,5.7881,5.7881,5.7881,5.7881,5.7881,5.7881,5.7881,5.7881,5.7881,5.7881,5.7881,5.7881,5.7881,5.7881,5.7881,5.7881,5.7881,5.7881,5.7881,5.7881,5.7881,5.7881,5.7881,5.7881,5.7881,5.7881,5.7881,5.7865,5.7645,5.6934,5.6782,5.6562,5.5818,5.5074,5.4583,5.4583,5.3974,5.3501,5.3518,5.3501,5.3501,5.3501,5.3501,5.3501,5.3501,5.3501,5.3501,5.3501,5.3501,5.3501,5.3501,5.3501,5.3501,5.3501,5.3501,5.3501,5.3501,5.3501,5.3501,5.3501,5.3501,5.3501,4.1325,4.2919,4.3881,4.3571,4.2673,4.0774,3.6642,3.432,3.1922,2.8172,2.7701,2.7908,2.7667,2.8674,2.995,3.1178,3.2056,3.3594,3.6556,3.9613,4.2619,4.5454,5.0386,5.403,0.0,0.0,0.0,0.0,0.0,0.0,5.5984,5.5714,5.5582,5.5582,5.5102,5.4721,5.449,5.449,5.449,5.449,5.4547,5.5094,5.5996,5.607,0.0,0.0,0.0,0.0,0.0,5.7881,5.7881,5.7881,5.7881,5.7881,5.7881,5.7881,5.7881,5.7881,5.7881,5.7881,5.7881,5.7881,5.7881,5.7881,5.7881,5.7881,5.7881,5.7881,5.7881,5.7881,5.7881,5.7881,5.7881,5.7881,5.7881,5.7881,5.7881,5.7881,5.7814,5.7594,5.7137,5.6731,5.6494,5.5852,5.553,5.6038,5.548,5.5209,5.57,5.5327,5.5023,5.5023,5.5023,5.4617,5.3602,5.3501,5.3501,5.3501,5.3501,5.3501,5.3501,5.3501,5.3501,5.3501,5.3501,5.3501,5.3501,5.3501,5.3501,5.3501,5.3501,5.3501,3.7793,3.9514,4.0416,4.0508,3.9695,3.8027,3.4967,3.2804,3.0585,2.7505,2.7228,2.732,2.6649,2.764,2.8957,3.0137,3.0834,3.2419,3.5836,3.8678,4.1997,4.6134,5.0982,0.0,0.0,5.62,0.0,0.0,0.0,0.0,5.5632,5.5317,5.5036,5.4771,5.4307,5.398,5.3715,5.3715,5.3848,5.4059,5.4059,5.47,5.5884,5.5884,0.0,0.0,0.0,0.0,0.0,5.7063,5.7186,5.7476,5.7476,5.7645,5.7881,5.7881,5.7881,5.7881,5.7881,5.7881,5.7881,5.7881,5.7881,5.7881,5.7881,5.7881,5.7881,5.7881,5.7881,5.7881,5.7881,5.7881,5.7881,5.7881,5.7881,5.7881,5.7881,5.7881,5.7881,5.7881,5.7526,5.7222,5.7222,5.6613,5.6275,5.6731,5.619,5.5886,5.6342,5.5987,5.5681,5.5681,5.5681,5.5344,5.4414,5.4346,5.4346,5.4346,5.4346,5.4346,5.4346,5.4059,5.4059,5.4329,5.4059,5.4059,5.4346,5.4346,5.4346,5.4346,5.4346,5.4346,0.0,3.8167,3.9673,3.9592,3.8551,3.6809,3.3748,3.1347,0.0,2.7535,2.6862,2.6531,2.6475,2.7163,2.794,2.858,2.9162,3.1104,3.5658,3.8033,4.1526,4.7572,5.0236,0.0,5.339,0.0,0.0,0.0,0.0,0.0,5.5549,5.4804,5.4113,5.3367,5.3334,5.3036,5.2426,5.2459,5.2771,5.3417,5.3467,5.4319,5.5884,5.5884,0.0,0.0,0.0,0.0,0.0,5.5686,5.5911,5.6679,5.6679,5.7135,5.7777,5.7777,5.7811,5.7845,5.7845,5.7845,5.7845,5.7881,5.7881,5.7881,5.7898,5.7881,5.7881,5.7881,5.7881,5.7881,5.7881,5.7881,5.7881,5.7881,5.7881,5.7881,5.7881,5.7881,5.7881,5.7881,5.7881,5.7881,5.7881,5.7323,5.6884,5.6884,5.6308,5.5869,5.5869,5.5869,5.5869,5.5869,5.5869,5.5869,5.5869,5.5784,5.5681,5.5681,5.5681,5.5681,5.5681,5.504,5.5006,5.57,5.5023,5.5023,5.5681,5.5681,5.5681,5.5681,5.5681,5.5681,2.9577,0.0,3.2706,3.2237,3.2434,3.2207,0.0,2.9142,2.8107,2.6366,2.6075,2.6377,2.717,2.7643,2.8724,3.1139,3.1652,3.2816,3.593,4.1342,4.6504,5.0656,5.3177,5.4661,5.4861,0.0,0.0,0.0,0.0,5.5554,5.4787,5.408,5.3351,5.2655,5.2622,5.2539,5.2409,5.2904,5.3251,5.3417,5.398,5.4742,5.5658,5.5658,0.0,0.0,0.0,0.0,5.6188,5.547,5.5305,5.5509,5.5509,5.5962,5.6617,5.6617,5.6969,5.7439,5.7439,5.7439,5.7476,5.7625,5.7662,5.7698,5.7845,5.7881,5.7881,5.7881,5.7881,5.7881,5.7881,5.7881,5.7881,5.7881,5.7881,5.7881,5.7881,5.7881,5.7881,5.7881,5.7881,5.7881,5.7881,5.7746,5.7628,5.7628,5.7492,5.7374,5.7374,5.7374,5.7374,5.7374,5.7374,5.7374,5.7374,5.6359,5.5681,5.5681,5.5681,5.5681,5.5681,5.5547,5.553,5.5681,5.5547,5.5547,5.5681,5.5681,5.5681,5.5681,5.5681,5.5681,2.7151,2.8562,3.012,3.0287,3.0309,3.0117,2.9533,2.8232,2.6785,2.5417,2.5346,2.5644,2.6133,2.6979,2.8272,3.0373,3.1931,3.4514,3.9105,4.4069,4.8565,5.223,5.4036,5.5061,0.0,0.0,0.0,0.0,0.0,5.4131,5.347,5.3081,5.2704,5.2407,5.2409,5.2409,5.2409,5.3069,5.3417,5.3434,5.451,5.5201,5.5599,5.5968,5.6188,0.0,0.0,0.0,5.4985,5.425,5.4221,5.4594,5.4594,5.5247,5.6218,5.6218,5.667,5.7289,5.7289,5.7289,5.7327,5.7551,5.7588,5.7625,5.7845,5.7881,5.7881,5.7881,5.7881,5.7881,5.7881,5.7881,5.7881,5.7881,5.7881,5.7881,5.7881,5.7881,5.7881,5.7881,5.7881,5.7881,5.7881,5.7881,5.7881,5.7881,5.7881,5.7881,5.7881,5.7881,5.7881,5.7881,5.7881,5.7881,5.7881,5.7171,5.6714,5.6714,5.6714,5.6714,5.6714,5.6393,5.6207,5.6207,5.6545,5.6714,5.6714,5.6714,5.6714,5.6714,5.6714,5.6714,2.6692,2.8053,2.9622,3.0407,2.9946,2.9419,2.9887,2.804,2.5967,2.5183,2.5056,2.5207,2.553,2.6691,2.8007,2.9407,3.2381,3.6688,4.2976,4.6355,4.9385,5.2704,5.3896,0.0,0.0,0.0,0.0,0.0,0.0,5.2522,5.222,5.208,5.2165,5.239,5.2409,5.2409,5.2409,5.3069,5.3483,5.3599,5.4936,5.5648,5.5802,5.6299,5.62,0.0,0.0,0.0,5.3604,5.2853,5.3026,5.3753,5.3753,5.4589,5.5773,5.589,5.6391,5.7064,5.7181,5.7214,5.7252,5.7476,5.7551,5.7588,5.7808,5.7881,5.7881,5.7881,5.7881,5.7881,5.7881,5.7881,5.7881,5.7881,5.7881,5.7881,5.7881,5.7881,5.7881,5.7881,5.7881,5.7881,5.7881,5.7881,5.7881,5.7881,5.7881,5.7881,5.7881,5.7881,5.7881,5.7881,5.7881,5.7881,5.7881,5.7881,5.7881,5.7881,5.7881,5.7881,5.7881,5.7289,5.6968,5.6968,5.7577,5.7881,5.7881,5.7881,5.7881,5.7881,5.7881,5.7881,2.7151,2.8094,2.8628,2.8057,2.8614,2.9171,2.8718,2.7829,2.7072,2.6911,2.6403,2.6846,2.9602,2.9903,3.0714,3.3764,3.7264,4.0712,4.3991,0.0,5.1057,5.1986,0.0,0.0,0.0,0.0,0.0,0.0,0.0,5.1487,5.2155,5.1588,5.1622,5.239,5.2409,5.2409,5.2409,5.3069,5.3732,5.4324,5.5168,5.5951,5.6498,5.6017,5.5698,0.0,0.0,5.3516,5.3387,5.2691,5.2511,5.2646,5.2646,5.3144,5.3904,5.4535,5.5231,5.5944,5.6596,5.6796,5.6834,5.7214,5.7364,5.7402,5.7772,5.7881,5.7881,5.7881,5.7881,5.7881,5.7881,5.7881,5.7881,5.7881,5.7881,5.7881,5.7881,5.7881,5.7881,5.7881,5.7881,5.7881,5.7881,5.7881,5.7881,5.7881,5.7881,5.7881,5.7881,5.7881,5.7881,5.7881,5.7881,5.7881,5.7881,5.7881,5.7881,5.7881,5.7881,5.7881,5.7881,5.778,5.7729,5.7729,5.7831,5.7881,5.7881,5.7881,5.7881,5.7881,5.7881,5.7881,2.5914,2.6737,2.7565,2.7784,2.919,3.0403,3.0043,2.9661,2.9188,2.8642,2.8713,2.9349,3.1004,3.2259,3.4541,3.8982,4.1866,4.3981,4.5365,4.8756,5.1287,0.0,0.0,0.0,0.0,0.0,0.0,0.0,0.0,0.0,5.0863,5.1037,5.1508,5.2373,5.2409,5.2409,5.2409,5.2705,5.3019,5.3384,5.4494,5.499,5.4924,5.499,5.4771,5.4357,0.0,5.3202,5.2837,5.2523,5.2409,5.2409,5.2409,5.2804,5.3549,5.4655,5.557,5.6249,5.6581,5.668,5.6757,5.7025,5.7214,5.7364,5.7662,5.7808,5.7881,5.7881,5.7881,5.7881,5.7881,5.7881,5.7881,5.7881,5.7881,5.7881,5.7881,5.7881,5.7881,5.7881,5.7881,5.7881,5.7881,5.7881,5.7881,5.7881,5.7881,5.7881,5.7881,5.7881,5.7881,5.7881,5.7881,5.7881,5.7881,5.7881,5.7881,5.7881,5.7881,5.7881,5.7881,5.7881,5.7881,5.7881,5.7881,5.7881,5.7881,5.7881,5.7881,5.7881,5.7881,5.7881,2.5591,2.6168,2.7135,2.8469,2.9936,3.1232,3.1894,3.1723,3.1378,3.1185,3.1562,3.208,3.2715,3.5194,3.8559,4.2843,4.5413,4.6898,4.6935,4.971,5.179,5.1966,0.0,0.0,0.0,0.0,0.0,0.0,0.0,0.0,4.9757,5.0422,5.1306,5.2373,5.2409,5.2409,5.2409,5.2409,5.2473,5.2638,5.3732,5.4026,5.3682,5.408,5.3947,5.3417,5.3417,5.3019,5.239,5.2556,5.2523,5.2409,5.2409,5.2804,5.3566,5.4837,5.5819,5.6465,5.663,5.668,5.6719,5.6949,5.7139,5.7327,5.7551,5.7735,5.7881,5.7881,5.7881,5.7881,5.7881,5.7881,5.7881,5.7881,5.7881,5.7881,5.7881,5.7881,5.7881,5.7881,5.7881,5.7881,5.7881,5.7881,5.7881,5.7881,5.7881,5.7881,5.7881,5.7881,5.7881,5.7881,5.7881,5.7881,5.7881,5.7881,5.7881,5.7881,5.7881,5.7881,5.7881,5.7881,5.7881,5.7881,5.7881,5.7881,5.7881,5.7881,5.7881,5.7881,5.7881,5.7881,2.7993,2.7944,2.7974,2.9873,3.0026,3.0508,3.3354,3.3181,3.3035,3.5263,3.494,3.4759,3.6408,3.9613,4.2365,4.3428,4.7087,4.9512,4.8722,0.0,5.364,0.0,0.0,0.0,0.0,0.0,0.0,0.0,0.0,0.0,4.9742,4.9844,5.0653,5.2338,5.2409,5.2409,5.2409,5.2409,5.2705,5.3334,5.345,5.3831,5.439,5.3781,5.3467,5.3417,5.3417,5.3019,5.2459,5.3069,5.2953,5.2409,5.2409,5.2804,5.3516,5.4311,5.5073,5.5764,5.6448,5.668,5.6719,5.6949,5.7139,5.7327,5.7551,5.7735,5.7881,5.7881,5.7881,5.7881,5.7881,5.7881,5.7881,5.7881,5.7881,5.7881,5.7881,5.7881,5.7881,5.7881,5.7881,5.7881,5.7881,5.7881,5.7881,5.7881,5.7881,5.7881,5.7881,5.7881,5.7881,5.7881,5.7881,5.7881,5.7881,5.7881,5.7881,5.7881,5.7881,5.7881,5.7881,5.7881,5.7881,5.7881,5.7881,5.7881,5.7881,5.7881,5.7881,5.7881,5.7881,5.7881,2.6707,2.7455,2.8487,2.9639,3.1285,3.3156,3.516,3.623,3.7299,3.9058,3.9395,3.9585,4.0328,4.2299,4.4197,4.5395,4.768,4.9464,5.0026,5.222,0.0,0.0,0.0,0.0,0.0,0.0,0.0,0.0,0.0,0.0,0.0,5.0017,5.0914,5.1582,5.2106,5.2409,5.2409,5.2409,5.2523,5.2771,5.2771,5.292,5.3169,5.2904,5.2771,5.2771,5.2771,5.2622,5.2442,5.2655,5.2622,5.2409,5.2409,5.2804,5.35,5.4208,5.4953,5.5698,5.6432,5.668,5.6719,5.6949,5.7139,5.7327,5.7551,5.7735,5.7881,5.7881,5.7881,5.7881,5.7881,5.7881,5.7881,5.7881,5.7881,5.7881,5.7881,5.7881,5.7881,5.7881,5.7881,5.7881,5.7881,5.7881,5.7881,5.7881,5.7881,5.7881,5.7881,5.7881,5.7881,5.7881,5.7881,5.7881,5.7881,5.7881,5.7881,5.7881,5.7881,5.7881,5.7881,5.7881,5.7881,5.7881,5.7881,5.7881,5.7881,5.7881,5.7881,5.7881,5.7881,5.7881,2.6467,2.723,2.8532,2.9609,3.2062,3.4818,3.718,3.8761,4.0254,4.2233,4.2636,4.2657,4.2781,4.3977,4.5422,4.6925,4.8257,4.9621,5.117,5.2275,0.0,0.0,0.0,0.0,0.0,0.0,0.0,0.0,0.0,0.0,0.0,4.9915,5.0838,0.0,5.1944,5.2409,5.2409,5.2409,5.2409,5.2409,5.2409,5.2409,5.2409,5.2409,5.2409,5.2407,5.2854,5.292,5.2738,5.3218,5.3135,5.2688,5.2473,5.2672,5.3202,5.4162,5.4804,5.5367,5.6349,5.668,5.6719,5.6872,5.7025,5.7214,5.7364,5.7588,5.7808,5.7808,5.7845,5.7881,5.7881,5.7881,5.7881,5.7881,5.7881,5.7881,5.7881,5.7881,5.7881,5.7881,5.7881,5.7881,5.7881,5.7881,5.7881,5.7881,5.7881,5.7881,5.7881,5.7881,5.7881,5.7881,5.7881,5.7881,5.7881,5.7881,5.7881,5.7881,5.7881,5.7881,5.7881,5.7881,5.7881,5.7881,5.7881,5.7881,5.7881,5.7881,5.7881,5.7881,5.7881,5.7881,2.7944,2.76,2.8094,3.0028,3.2048,3.4756,3.9379,4.0427,4.1369,4.4646,4.4272,4.3371,4.3514,4.4671,4.6124,4.7739,4.9016,5.0406,5.2142,0.0,0.0,0.0,0.0,0.0,0.0,0.0,0.0,0.0,0.0,0.0,0.0,4.9343,5.0174,0.0,5.1944,5.239,5.239,5.239,5.2409,5.2409,5.2409,5.2409,5.2409,5.2409,5.2409,5.2492,5.3881,5.408,5.3516,5.4953,5.4688,5.3334,5.2655,5.2409,5.2556,5.398,5.4473,5.4725,5.6166,5.668,5.668,5.668,5.6834,5.6987,5.6987,5.7289,5.7588,5.7588,5.7735,5.7881,5.7881,5.7881,5.7881,5.7881,5.7881,5.7881,5.7881,5.7881,5.7881,5.7881,5.7881,5.7881,5.7881,5.7881,5.7881,5.7881,5.7881,5.7881,5.7881,5.7881,5.7881,5.7881,5.7881,5.7881,5.7881,5.7881,5.7881,5.7881,5.7881,5.7881,5.7881,5.7881,5.7881,5.7881,5.7881,5.7881,5.7881,5.7881,5.7881,5.7881,5.7881,5.7881,2.7136,2.7944,2.9487,3.1435,3.4457,3.7898,4.1624,4.2821,4.3958,4.6815,4.6365,4.5517,4.5641,4.5564,4.6181,4.8401,4.7981,4.8687,0.0,0.0,0.0,0.0,0.0,0.0,0.0,0.0,0.0,0.0,0.0,0.0,0.0,4.8846,4.9343,0.0,5.1027,5.1471,5.1471,5.2089,5.2409,5.2409,5.2409,5.2409,5.2409,5.2409,5.2409,5.2407,5.2821,5.2887,5.2721,5.3169,5.3367,5.3334,5.2655,5.2409,5.2525,5.34,5.4026,5.4659,5.5603,5.6266,5.6719,5.6872,5.6949,5.7025,5.7176,5.7289,5.7402,5.7402,5.7551,5.7698,5.7698,5.7772,5.7881,5.7881,5.7881,5.7881,5.7881,5.7881,5.7881,5.7881,5.7881,5.7881,5.7881,5.7881,5.7881,5.7881,5.7881,5.7881,5.7881,5.7881,5.7881,5.7881,5.7881,5.7881,5.7881,5.7881,5.7881,5.7881,5.7881,5.7881,5.7881,5.7881,5.7881,5.7881,5.7881,5.7881,5.7881,5.7881,5.7881,5.7881,5.7881,5.7881,2.8188,2.9415,3.1285,3.3529,3.6462,3.9873,4.3973,4.5214,4.6037,4.7893,4.7289,4.657,4.7324,4.6499,0.0,4.9502,4.8396,0.0,0.0,0.0,0.0,0.0,0.0,0.0,0.0,0.0,0.0,0.0,0.0,0.0,0.0,4.8407,4.8805,0.0,5.0477,5.1118,5.1118,5.198,5.2409,5.2409,5.2409,5.2409,5.2409,5.2409,5.2409,5.239,5.2672,5.2953,5.3202,5.2904,5.3036,5.3334,5.2655,5.2409,5.2473,5.3152,5.3699,5.4192,5.5218,5.5901,5.6354,5.6751,5.6872,5.6911,5.7025,5.7139,5.7214,5.7289,5.7439,5.7625,5.7698,5.7808,5.7881,5.7881,5.7881,5.7881,5.7881,5.7881,5.7881,5.7881,5.7881,5.7881,5.7881,5.7881,5.7881,5.7881,5.7881,5.7881,5.7881,5.7881,5.7881,5.7881,5.7881,5.7881,5.7881,5.7881,5.7881,5.7881,5.7881,5.7881,5.7881,5.7881,5.7881,5.7881,5.7881,5.7881,5.7881,5.7881,5.7881,5.7881,5.7881,5.7881,3.0253,3.1495,3.3275,3.6058,3.8422,4.1324,4.6202,4.7309,4.7489,4.8147,4.7294,4.6872,4.8388,4.7446,4.7461,5.0746,4.9776,0.0,0.0,0.0,0.0,0.0,0.0,0.0,0.0,0.0,0.0,0.0,0.0,0.0,0.0,4.8088,4.8532,4.8615,5.0088,5.0914,5.0989,5.1855,5.2338,0.0,5.2409,5.2409,5.2409,5.2409,5.2409,5.2442,5.3036,5.3732,5.4324,5.3616,5.3351,5.3334,5.2655,5.2409,5.2456,5.3086,5.3367,5.3616,5.5003,5.5532,5.5698,5.6448,5.668,5.668,5.668,5.6834,5.7025,5.7214,5.7439,5.7625,5.7808,5.7881,5.7881,5.7881,5.7881,5.7881,5.7881,5.7881,5.7881,5.7881,5.7881,5.7881,5.7881,5.7881,5.7881,5.7881,5.7881,5.7881,5.7881,5.7881,5.7881,5.7881,5.7881,5.7881,5.7881,5.7881,5.7881,5.7881,5.7881,5.7881,5.7881,5.7881,5.7881,5.7881,5.7881,5.7881,5.7881,5.7881,5.7881,5.7881,5.7881,5.7932,2.9609,3.1495,3.4173,3.7868,4.1833,4.5274,4.6935,4.7309,4.7489,4.8147,4.7653,4.7413,4.8425,4.7806,4.7973,5.0688,0.0,0.0,0.0,0.0,0.0,0.0,0.0,0.0,0.0,0.0,0.0,0.0,0.0,0.0,4.8297,4.7864,4.7892,4.8573,4.8969,4.9439,5.0057,5.0935,5.1709,0.0,5.2409,5.2409,5.2409,5.2409,5.2409,5.239,5.2539,5.3003,5.3599,5.2887,5.292,5.3334,5.2655,5.2409,5.2442,5.2539,5.2953,5.3549,5.4444,5.5102,5.5698,5.6448,5.668,5.668,5.668,5.6719,5.6796,5.7025,5.7214,5.7402,5.7625,5.7772,5.7881,5.7881,5.7881,5.7881,5.7881,5.7881,5.7881,5.7881,5.7881,5.7881,5.7881,5.7881,5.7881,5.7881,5.7881,5.7881,5.7881,5.7881,5.7881,5.7881,5.7881,5.7881,5.7881,5.7881,5.7881,5.7881,5.7881,5.7881,5.7881,5.7881,5.7881,5.7881,5.7881,5.7881,5.7881,5.7881,5.7881,5.7881,5.7881,5.8203,2.9998,3.2452,3.5549,4.0142,4.3584,4.6007,4.6681,4.7085,4.7399,4.7743,4.7534,4.7581,4.8449,4.7907,4.8145,0.0,0.0,0.0,0.0,0.0,0.0,0.0,0.0,0.0,0.0,0.0,0.0,0.0,0.0,4.751,4.7934,4.7538,4.7495,4.7976,4.8366,4.879,4.9222,5.0477,5.1306,5.1782,5.2178,5.2409,5.2409,5.2409,5.2409,5.2409,5.2409,5.2589,5.2887,5.2523,5.2589,5.2887,5.2523,5.2409,5.2409,5.2409,5.2605,5.3069,5.4146,5.4738,5.5234,5.6349,5.668,5.668,5.668,5.668,5.6719,5.6949,5.7139,5.7364,5.7551,5.7735,5.7881,5.7881,5.7881,5.7881,5.7881,5.7881,5.7881,5.7881,5.7881,5.7881,5.7881,5.7881,5.7881,5.7881,5.7881,5.7881,5.7881,5.7881,5.7881,5.7881,5.7881,5.7881,5.7881,5.7881,5.7881,5.7881,5.7881,5.7881,5.7881,5.7881,5.7881,5.7881,5.7881,5.7881,5.7881,5.7881,5.7881,5.7898,5.8254,5.8643,3.0195,3.3439,3.718,4.2079,4.4332,4.5484,4.6172,4.6741,4.7174,4.7279,4.7309,4.7538,4.8256,4.7779,4.8019,0.0,0.0,0.0,0.0,0.0,0.0,0.0,0.0,0.0,0.0,0.0,0.0,0.0,0.0,4.7651,4.7538,4.7538,4.7407,4.7145,4.7851,4.8347,4.862,5.0015,5.0914,5.1306,5.2069,5.2409,5.2409,5.2409,5.2409,5.2409,5.2409,5.2409,5.2409,5.2409,5.2409,5.2409,5.2409,5.2409,5.2409,5.2409,5.2409,5.2589,5.4013,5.449,5.4759,5.6216,5.668,5.668,5.668,5.668,5.6757,5.6987,5.7176,5.7364,5.7588,5.7772,5.7881,5.7881,5.7881,5.7881,5.7881,5.7881,5.7881,5.7881,5.7881,5.7881,5.7881,5.7881,5.7881,5.7881,5.7881,5.7881,5.7881,5.7881,5.7881,5.7881,5.7881,5.7881,5.7881,5.7881,5.7881,5.7881,5.7881,5.7881,5.7881,5.7881,5.7881,5.7881,5.7881,5.7881,5.7881,5.7881,5.7881,5.7898,5.866,5.9082,2.8547,3.3395,3.8871,4.2476,4.4347,4.5484,4.6172,4.6354,4.6621,4.7189,4.7309,4.7352,4.7467,4.7381,0.0,0.0,0.0,0.0,0.0,0.0,0.0,0.0,0.0,0.0,0.0,0.0,0.0,0.0,4.9463,4.9141,4.8449,4.8407,4.7829,4.6471,4.6526,4.7302,4.8765,4.8998,5.0172,5.223,5.2338,5.2409,5.2409,5.2409,5.2409,5.2409,5.2409,5.2409,5.2409,5.2409,5.2409,5.2409,5.2409,5.2409,5.2409,5.2409,5.2409,5.2589,5.4013,5.449,5.4759,5.6216,5.668,5.668,5.668,5.668,5.6757,5.7139,5.7289,5.7402,5.7772,5.7881,5.7881,5.7881,5.7881,5.7881,5.7881,5.7881,5.7881,5.7881,5.7881,5.7881,5.7881,5.7881,5.7881,5.7881,5.7881,5.7881,5.7881,5.7881,5.7881,5.7881,5.7881,5.7881,5.7881,5.7881,5.7881,5.7881,5.7881,5.7881,5.7881,5.7881,5.7881,5.7881,5.7881,5.7881,5.7881,5.7881,5.7881,5.7898,5.866,5.9353,3.0283,3.4277,3.8212,4.1931,4.3509,4.4362,4.505,4.5484,4.5828,4.6127,4.6486,4.686,4.7234,4.7309,0.0,0.0,0.0,0.0,0.0,0.0,0.0,0.0,0.0,0.0,0.0,0.0,0.0,0.0,4.8169,4.7805,4.7419,4.7002,4.6426,4.5753,4.5753,4.633,4.7512,4.7963,4.9389,5.1796,5.221,5.2409,5.2409,5.2409,5.2409,5.2409,5.2409,5.2409,5.2409,5.2409,5.2409,5.2409,5.2409,5.2409,5.2409,5.2409,5.2409,5.2523,5.3549,5.4125,5.4655,5.5752,5.6365,5.668,5.668,5.668,5.6757,5.7063,5.7214,5.7364,5.7662,5.7808,5.7881,5.7881,5.7881,5.7881,5.7881,5.7881,5.7881,5.7881,5.7881,5.7881,5.7881,5.8237,5.8372,5.7949,5.8254,5.8372,5.7932,5.7881,5.7881,5.7881,5.7881,5.7881,5.7881,5.7881,5.7881,5.7881,5.7881,5.7881,5.7881,5.7881,5.7881,5.7881,5.7881,5.7881,5.7881,5.7881,5.7881,5.7915,5.9082,5.9793,3.0357,3.32,3.5716,3.967,4.1609,4.2766,4.3629,4.4451,4.5095,0.0,4.5708,4.6217,4.6696,0.0,0.0,0.0,0.0,0.0,0.0,0.0,0.0,0.0,0.0,0.0,0.0,0.0,0.0,0.0,4.7621,4.7331,4.7099,4.6566,4.6051,4.5672,4.547,4.5858,4.685,4.7844,4.9341,5.1315,5.1862,5.2227,5.2409,5.2409,5.2409,5.2409,5.2409,5.2409,5.2409,5.2409,5.2409,5.2409,5.2409,5.2409,5.2409,5.2409,5.2409,5.2506,5.3384,5.4026,5.4676,5.5603,5.6249,5.668,5.668,5.668,5.6757,5.7025,5.7176,5.7364,5.7625,5.7772,5.7881,5.7881,5.7881,5.7881,5.7881,5.7881,5.7881,5.7881,5.7881,5.7881,5.7881,5.8507,5.8829,5.8254,5.866,5.8812,5.8254,5.8,5.7881,5.7881,5.7881,5.7881,5.7881,5.7881,5.7966,5.8169,5.8169,5.8254,5.844,5.8457,5.8457,5.8457,5.8271,5.8084,5.7881,5.7881,5.7881,5.7932,5.9404,6.0097,2.6207,2.8412,3.0896,3.4876,3.8227,4.0891,4.2216,4.3449,4.4541,4.517,4.5319,4.5364,4.5394,0.0,0.0,0.0,0.0,0.0,0.0,0.0,0.0,0.0,0.0,0.0,0.0,0.0,0.0,0.0,4.9548,4.9634,4.8804,4.8732,4.8045,4.6654,4.5881,4.6247,4.7803,4.9325,5.0482,5.1315,5.1348,5.173,5.2409,5.2409,5.2409,5.2409,5.2409,5.2409,5.2409,5.2409,5.2409,5.2409,5.2409,5.2409,5.2409,5.2409,5.2409,5.2589,5.398,5.4456,5.4759,5.6166,5.6663,5.668,5.668,5.668,5.6796,5.7176,5.7289,5.7402,5.7772,5.7881,5.7881,5.7881,5.7881,5.7881,5.7881,5.7881,5.7881,5.7881,5.7881,5.7881,5.7881,5.8507,5.8998,5.8964,5.8998,5.8998,5.8964,5.8338,5.7881,5.7881,5.7881,5.7881,5.7881,5.7881,5.8203,5.8913,5.8947,5.9268,5.9962,5.9996,5.9996,5.9996,5.9302,5.8609,5.7881,5.7881,5.7881,5.7932,5.9404,6.0097,2.56,2.7739,3.0355,3.344,3.6073,3.8347,4.0083,4.1818,4.3159,4.3399,4.4077,4.4661,0.0,0.0,0.0,0.0,0.0,0.0,0.0,0.0,0.0,0.0,0.0,0.0,0.0,0.0,0.0,0.0,0.0,4.7883,4.7589,4.7077,4.6605,4.6076,4.5766,4.6117,4.7165,4.8722,4.9641,4.9889,5.0868,5.1448,5.173,5.2194,5.2409,5.2409,5.2409,5.2409,5.2409,5.2409,5.2409,5.2409,5.2409,5.2409,5.2409,5.2409,5.2409,5.2523,5.3483,5.4076,5.4692,5.5686,5.6316,5.668,5.668,5.6796,5.6949,5.7214,5.7402,5.7551,5.7808,5.7881,5.7881,5.7881,5.7881,5.7881,5.7881,5.8271,5.8609,5.8609,5.8998,5.9302,5.9302,5.9962,6.0148,5.9167,5.986,6.0131,5.915,5.8778,5.8609,5.8609,5.8169,5.7881,5.7881,5.8338,5.8727,5.8998,5.9455,5.9827,6.008,6.0097,6.0097,6.0097,5.9844,5.9353,5.8609,5.8118,5.7881,5.7932,5.9404,6.0097,2.4238,2.6228,2.8936,3.1779,3.3664,3.5624,3.8686,4.0247,4.1317,4.2216,4.3084,4.3718,0.0,0.0,0.0,0.0,0.0,0.0,0.0,0.0,0.0,0.0,0.0,0.0,0.0,0.0,0.0,0.0,0.0,0.0,4.7186,4.674,4.634,4.6092,4.634,4.6585,4.6811,4.8081,4.8862,4.9127,5.0088,5.0684,5.0949,5.1713,5.2045,5.2061,5.231,5.2409,5.2409,5.2409,5.2409,5.2409,5.2409,5.2409,5.2409,5.2409,5.2409,5.2523,5.3467,5.4113,5.4638,5.567,5.6299,5.6719,5.6757,5.6872,5.7063,5.7327,5.7439,5.7551,5.7808,5.7881,5.7881,5.7881,5.8084,5.8271,5.8271,5.866,5.9015,5.9015,5.9607,6.0097,6.0097,6.0774,6.096,5.9945,6.0655,6.0943,5.9911,5.9336,5.9015,5.9015,5.8338,5.7983,5.8254,5.8727,5.9235,5.9759,6.0233,6.0605,6.0858,6.0875,6.0875,6.0875,6.0622,6.0131,5.9387,5.8626,5.8271,5.8287,5.9522,6.0385,0.0,0.0,0.0,2.9564,3.0853,3.2751,3.7938,3.8661,3.8975,4.1722,4.2276,4.25,0.0,0.0,0.0,0.0,0.0,0.0,0.0,0.0,0.0,0.0,0.0,0.0,0.0,0.0,0.0,0.0,4.8001,4.8001,4.8001,4.8001,4.7638,4.6846,4.7588,4.7638,4.6846,4.7588,4.8365,4.9077,4.9094,4.9475,5.0204,5.0916,5.1299,5.1348,5.2078,5.2393,5.2409,5.2409,5.2409,5.2409,5.2409,5.2409,5.2409,5.2409,5.2409,5.2589,5.4013,5.449,5.4759,5.6216,5.668,5.6719,5.6949,5.6987,5.7101,5.7476,5.7439,5.7402,5.7808,5.7881,5.7881,5.7881,5.8457,5.9015,5.9015,5.9049,5.9082,5.9082,5.9674,6.0165,6.0165,6.0825,6.1332,6.1298,6.1298,6.1298,6.1298,5.9979,5.9049,5.9082,5.8406,5.8254,5.8981,5.9066,5.9725,6.1214,6.1315,6.1653,6.2364,6.2381,6.2381,6.2381,6.1704,6.0943,6.0131,5.9387,5.9015,5.9032,5.9793,6.0943,2.2733,0.0,0.0,0.0,0.0,0.0,0.0,0.0,3.516,3.8751,3.952,4.0164,0.0,0.0,0.0,0.0,0.0,0.0,0.0,0.0,0.0,0.0,0.0,0.0,0.0,0.0,0.0,0.0,4.8001,4.8001,4.8001,4.8001,4.7902,4.7671,4.7886,4.7886,4.7671,4.7886,4.81,4.8315,4.8862,4.9226,4.9442,5.0171,5.0783,5.1315,5.1531,5.1928,5.2409,5.2409,5.2409,5.2409,5.2409,5.2409,5.2409,5.2409,5.2409,5.2589,5.4013,5.449,5.4759,5.6216,5.668,5.6719,5.6757,5.6872,5.7063,5.7327,5.7439,5.7588,5.7845,5.7881,5.7881,5.7881,5.8457,5.9015,5.9015,5.9894,6.0672,6.0672,6.1264,6.1755,6.1755,6.1941,6.1907,6.1383,6.1298,6.1298,6.1298,6.0419,6.003,6.0605,5.9962,5.9573,5.9776,6.0334,6.0858,6.1264,6.1789,6.2178,6.2381,6.2381,6.2381,6.2381,6.2195,6.1721,6.0977,5.9658,5.9015,5.9049,6.0351,6.1484,2.4178,2.4941,2.6288,2.738,0.0,0.0,3.133,3.1913,3.2871,0.0,3.7973,0.0,0.0,0.0,0.0,0.0,0.0,0.0,0.0,0.0,0.0,0.0,0.0,0.0,0.0,4.7371,4.7488,4.7968,4.8001,4.8001,4.8001,4.8001,4.8001,4.8001,4.8001,4.8001,4.8001,4.8001,4.8001,4.8017,4.8448,4.8647,4.868,4.9409,5.0137,5.085,5.1183,5.173,5.2409,5.2409,5.2409,5.2409,5.2409,5.2409,5.2409,5.2409,5.2556,5.297,5.4129,5.4688,5.5173,5.6316,5.668,5.6719,5.6796,5.6911,5.7063,5.7327,5.7588,5.7698,5.7662,5.7772,5.7881,5.7881,5.8693,5.9471,5.9471,6.0672,6.167,6.1366,6.189,6.2381,6.2381,6.2381,6.2245,6.1823,6.1755,6.1755,6.1755,6.1078,6.0655,6.0791,6.0385,6.0097,6.0097,6.0842,6.1434,6.1738,6.2144,6.2381,6.2381,6.2381,6.2381,6.2381,6.2381,6.2026,6.1298,6.0402,5.9962,5.9996,6.1197,6.1992,2.6108,2.6378,2.735,2.9624,2.8038,0.0,3.2332,3.1779,3.1405,0.0,0.0,0.0,0.0,0.0,0.0,0.0,0.0,0.0,0.0,0.0,0.0,0.0,0.0,0.0,4.6708,4.7371,4.782,4.8001,4.8001,4.8001,4.8001,4.8001,4.8001,4.8001,4.8001,4.8001,4.8001,4.8001,4.8001,4.8001,4.8001,4.8001,4.8034,4.8763,4.9508,5.0253,5.0966,5.173,5.2409,5.2409,5.2409,5.2409,5.2409,5.2409,5.2409,5.2409,5.2821,5.3533,5.4225,5.497,5.5698,5.6448,5.668,5.6719,5.6911,5.6949,5.7063,5.7439,5.7698,5.7772,5.7439,5.7625,5.7881,5.7881,5.9032,6.0097,6.0097,6.1298,6.2195,6.1552,6.1941,6.2381,6.2381,6.2381,6.2381,6.2381,6.2245,6.2195,6.2364,6.1603,6.0842,6.0283,6.0233,6.0233,6.0233,6.096,6.1704,6.2347,6.2381,6.2381,6.2381,6.2381,6.2381,6.2381,6.2381,6.2076,6.1417,6.1349,6.1298,6.1315,6.2059,6.2381,2.8053,2.8113,2.8203,2.8184,0.0,0.0,2.744,2.7754,2.8873,0.0,3.1854,0.0,0.0,0.0,0.0,0.0,0.0,0.0,0.0,0.0,0.0,0.0,0.0,0.0,4.6673,4.641,4.6671,4.7902,4.8001,4.8001,4.8001,4.8001,4.8001,4.8001,4.8001,4.8001,4.8001,4.8001,4.8001,4.8001,4.8001,4.8001,4.8034,4.8763,4.9508,5.0253,5.0966,5.173,5.2409,5.2409,5.2409,5.2409,5.2409,5.2409,5.2409,5.2409,5.2821,5.3533,5.4225,5.497,5.5698,5.6448,5.668,5.6735,5.6757,5.6757,5.6834,5.7252,5.7514,5.7662,5.7772,5.7845,5.7881,5.7881,5.9032,6.0097,6.0097,6.1298,6.2347,6.2195,6.2296,6.2381,6.2381,6.2381,6.2381,6.2381,6.1332,6.0994,6.2229,6.0672,5.9877,6.096,6.1078,6.1078,6.1078,6.1738,6.2245,6.2381,6.2381,6.2381,6.2381,6.2381,6.2381,6.2381,6.2381,6.2313,6.2178,6.1586,6.1298,6.1315,6.2059,6.2381,2.9639,2.9325,2.916,2.9475,0.0,0.0,0.0,0.0,2.7829,3.0449,3.0238,0.0,0.0,0.0,0.0,0.0,0.0,0.0,0.0,0.0,0.0,0.0,0.0,0.0,4.504,4.5515,4.6387,4.7902,4.8001,4.8001,4.8001,4.8001,4.8001,4.8001,4.8001,4.8001,4.8001,4.8001,4.8001,4.8001,4.8001,4.8199,4.8564,4.8945,4.9707,5.0767,5.1149,5.173,5.2409,5.2409,5.2409,5.2409,5.2409,5.2409,5.2409,5.2409,5.3053,5.4013,5.4357,5.5239,5.6216,5.6564,5.668,5.668,5.668,5.6757,5.6872,5.7101,5.7364,5.7625,5.7735,5.7808,5.7881,5.7881,5.8744,5.9556,5.9556,6.0452,6.1366,6.1772,6.1839,6.1958,6.233,6.2381,6.2381,6.2381,6.1434,6.0977,6.1738,6.0503,5.9708,6.0114,6.0486,6.0706,6.0706,6.14,6.2009,6.2364,6.2381,6.2381,6.2381,6.2381,6.2381,6.2381,6.2381,6.2381,6.2381,6.2026,6.1839,6.1856,6.2229,6.2381,0.0,0.0,0.0,0.0,0.0,2.8918,0.0,0.0,0.0,0.0,0.0,0.0,0.0,0.0,0.0,0.0,0.0,0.0,0.0,0.0,0.0,0.0,0.0,0.0,0.0,4.4439,4.5849,4.7455,4.7189,4.7189,4.7769,4.7785,4.7852,4.8001,4.8001,4.8001,4.8001,4.8001,4.8001,4.8001,4.8001,4.8398,4.911,4.926,5.0038,5.1315,5.1464,5.1862,5.2409,5.2409,5.2409,5.2409,5.2409,5.2409,5.2409,5.2409,5.3202,5.4291,5.444,5.5371,5.6498,5.663,5.668,5.6735,5.6757,5.6872,5.7025,5.7101,5.7364,5.7625,5.7662,5.7772,5.7881,5.7881,5.8457,5.9015,5.9015,5.959,6.0283,6.0943,6.1197,6.1535,6.2262,6.2381,6.233,6.2195,6.1552,6.1078,6.1078,6.025,5.9505,5.9066,5.9539,5.9945,6.008,6.0842,6.1603,6.233,6.2381,6.2381,6.2381,6.2381,6.2381,6.2381,6.2381,6.2381,6.2381,6.2381,6.2381,6.2381,6.2381,6.2381,0.0,0.0,0.0,0.0,3.185,0.0,0.0,0.0,0.0,0.0,0.0,0.0,0.0,0.0,0.0,0.0,0.0,0.0,0.0,0.0,0.0,0.0,0.0,0.0,0.0,4.2825,4.3753,4.5881,4.4241,4.4274,4.6891,4.7023,4.7322,4.7984,4.8001,4.8001,4.8001,4.8001,4.8001,4.8001,4.8001,4.8398,4.9127,4.979,5.0518,5.1348,5.2011,5.2343,5.2409,5.2409,5.2409,5.2409,5.2409,5.2409,5.2409,5.2409,5.287,5.3632,5.4258,5.5019,5.5814,5.6481,5.668,5.6719,5.6911,5.6987,5.7063,5.7439,5.7551,5.7625,5.7808,5.7881,5.7881,5.7881,5.8457,5.9015,5.9015,5.959,6.0131,6.0216,6.0808,6.1535,6.2262,6.2381,6.2178,6.1518,6.0757,6.0233,6.0233,5.9015,5.8372,5.8947,5.9082,5.9404,6.0047,6.0842,6.1603,6.233,6.2381,6.2381,6.2381,6.2381,6.2381,6.2381,6.2381,6.2381,6.2381,6.2381,6.2381,6.2381,6.2381,6.2381,0.0,0.0,0.0,0.0,0.0,0.0,2.8936,0.0,2.7829,0.0,0.0,0.0,0.0,0.0,0.0,0.0,0.0,0.0,0.0,0.0,0.0,0.0,0.0,0.0,0.0,0.0,0.0,0.0,4.328,4.3413,4.55,4.6427,4.704,4.7355,4.7785,4.8001,4.8001,4.8001,4.8001,4.8001,4.8001,4.8398,4.9127,4.9425,4.9972,5.0701,5.1429,5.1779,5.1796,5.2243,5.2409,5.2409,5.2409,5.2409,5.2409,5.2409,5.2821,5.3533,5.4225,5.497,5.5698,5.6448,5.6757,5.6872,5.6987,5.7101,5.7252,5.7514,5.7588,5.7662,5.7845,5.7881,5.7881,5.7881,5.8135,5.8355,5.8355,5.8592,5.9082,5.9928,6.0368,6.0994,6.2178,6.2042,6.1653,6.1349,6.025,5.9471,5.9471,5.8541,5.8017,5.8321,5.8355,5.8829,5.9996,6.0419,6.1112,6.2313,6.2381,6.2381,6.2381,6.2381,6.2381,6.2381,6.2381,6.2381,6.2381,6.2381,6.2381,6.2381,6.2381,6.2381,3.4689,0.0,0.0,0.0,0.0,0.0,0.0,0.0,0.0,0.0,0.0,0.0,0.0,0.0,0.0,0.0,0.0,0.0,0.0,0.0,0.0,0.0,0.0,0.0,0.0,0.0,0.0,0.0,0.0,4.1806,4.4257,4.5417,4.6278,4.6874,4.7421,4.7802,4.8001,4.8001,4.8001,4.8001,4.8001,4.8398,4.911,4.911,4.9508,5.0253,5.0966,5.1315,5.1365,5.2111,5.2409,5.2409,5.2409,5.2409,5.2409,5.2409,5.2705,5.3268,5.4195,5.514,5.6001,5.6591,5.6872,5.7025,5.7139,5.7252,5.7439,5.7625,5.7698,5.7698,5.7845,5.7881,5.7881,5.7881,5.7881,5.7949,5.8152,5.8203,5.8575,5.986,6.0283,6.0774,6.1907,6.1823,6.145,6.1028,6.003,5.9167,5.8761,5.822,5.7881,5.7881,5.7881,5.849,5.9979,6.0097,6.0757,6.2279,6.2381,6.2381,6.2381,6.2381,6.2381,6.2381,6.2381,6.2381,6.2381,6.2381,6.2381,6.2381,6.2381,6.2381,0.0,0.0,0.0,3.3772,0.0,0.0,0.0,0.0,3.0043,0.0,0.0,0.0,0.0,0.0,0.0,0.0,0.0,0.0,0.0,0.0,0.0,0.0,0.0,0.0,0.0,0.0,0.0,0.0,0.0,0.0,4.3367,4.3681,4.4674,4.6825,4.6924,4.7272,4.8001,4.8001,4.8001,4.8001,4.8001,4.8398,4.911,4.911,4.9508,5.0253,5.0966,5.1315,5.1365,5.2111,5.2409,5.2409,5.2409,5.2409,5.2409,5.2409,5.239,5.2605,5.403,5.5454,5.6685,5.6911,5.6987,5.7063,5.7476,5.7588,5.7625,5.7845,5.7881,5.7881,5.7881,5.7881,5.7881,5.7881,5.7881,5.8084,5.8829,5.8981,5.9201,5.9945,6.074,6.1281,6.1332,6.1907,6.1856,6.0368,6.0097,5.9556,5.8101,5.7898,5.7881,5.7881,5.7881,5.849,5.9979,6.0097,6.0757,6.2279,6.2381,6.2381,6.2381,6.2381,6.2381,6.2381,6.2381,6.2381,6.2381,6.2381,6.2381,6.2381,6.2381,6.2381,0.0,0.0,3.8797,3.595,0.0,0.0,0.0,0.0,0.0,0.0,0.0,0.0,0.0,0.0,0.0,0.0,0.0,0.0,0.0,0.0,0.0,0.0,0.0,0.0,0.0,0.0,0.0,0.0,3.6738,0.0,0.0,4.2539,4.4191,4.54,4.6394,4.7255,4.8001,4.8001,4.8001,4.8001,4.8001,4.8133,4.8382,4.8382,4.8514,4.8812,5.0038,5.0568,5.0667,5.1877,5.2409,5.2409,5.2409,5.2409,5.2409,5.2409,5.2409,5.2589,5.4013,5.5546,5.6911,5.6987,5.7176,5.7439,5.7551,5.7698,5.7808,5.7881,5.7881,5.7881,5.7881,5.7881,5.7881,5.7881,5.7881,5.7949,5.822,5.866,5.9235,5.9962,6.0757,6.145,6.1941,6.2229,6.2059,6.1044,6.0436,5.9911,5.9421,5.9353,5.9353,5.9353,5.8913,5.9252,6.0757,6.1332,6.1839,6.2364,6.2381,6.2381,6.2381,6.2381,6.2381,6.2381,6.2381,6.2381,6.2381,6.2381,6.2381,6.2381,6.2381,6.2381,4.0673,4.0692,0.0,3.8541,3.7078,0.0,3.2955,0.0,0.0,0.0,0.0,0.0,0.0,0.0,0.0,0.0,0.0,0.0,0.0,0.0,0.0,0.0,0.0,0.0,0.0,0.0,3.3491,3.48,3.5065,0.0,0.0,0.0,4.3148,4.4638,4.5864,4.699,4.7984,4.8001,4.8001,4.8001,4.8001,4.8001,4.8001,4.8001,4.8001,4.8084,4.9574,5.022,5.032,5.1777,5.2409,5.2409,5.2409,5.2409,5.2409,5.2409,5.2705,5.3268,5.4195,5.5546,5.6911,5.6987,5.7176,5.7402,5.7476,5.7588,5.7698,5.7772,5.7772,5.7808,5.7881,5.7881,5.7881,5.7881,5.8101,5.8355,5.8626,5.9285,6.0047,6.0774,6.1332,6.1839,6.2313,6.2381,6.2144,6.1417,6.0858,6.0419,6.0131,6.0097,6.0097,6.0097,5.9674,5.9911,6.1197,6.1975,6.2381,6.2381,6.2381,6.2381,6.2381,6.2381,6.2381,6.2381,6.2381,6.2381,6.2381,6.2381,6.2381,6.2381,6.2381,6.2381]}]]